<?xml version="1.0" encoding="UTF-8" standalone="no" ?>
<gpx xmlns="http://www.topografix.com/GPX/1/1" xmlns:xsi="http://www.w3.org/2001/XMLSchema-instance" xsi:schemaLocation="http://www.topografix.com/GPX/1/1 http://www.topografix.com/GPX/1/1/gpx.xsd" version="1.1" creator="VisuGPX - https://www.visugpx.com">
  <metadata>
    <name>Les îles éoliennes 01</name>
    <desc><![CDATA[Avril 18 Oceanis 43 équipage Bruno S J M et G. depuis Portorosa]]></desc>
  </metadata>
  <trk>
    <name><![CDATA[Tracé actuel: 18 AVR 2018 04:53]]></name>
    <trkseg>
      <trkpt lat="38.80059" lon="15.24424">
        <ele>6.87</ele>
        <time>2018-04-18T02:53:22Z</time>
      </trkpt>
      <trkpt lat="38.80059" lon="15.24404">
        <ele>-5.63</ele>
        <time>2018-04-18T02:53:35Z</time>
      </trkpt>
      <trkpt lat="38.8006" lon="15.24403">
        <ele>-8.51</ele>
        <time>2018-04-18T02:53:51Z</time>
      </trkpt>
      <trkpt lat="38.8006" lon="15.24404">
        <ele>-8.51</ele>
        <time>2018-04-18T02:54:04Z</time>
      </trkpt>
      <trkpt lat="38.80059" lon="15.24408">
        <ele>-8.03</ele>
        <time>2018-04-18T02:54:23Z</time>
      </trkpt>
      <trkpt lat="38.80058" lon="15.24415">
        <ele>-2.27</ele>
        <time>2018-04-18T02:54:35Z</time>
      </trkpt>
      <trkpt lat="38.8006" lon="15.24417">
        <ele>-2.27</ele>
        <time>2018-04-18T02:54:59Z</time>
      </trkpt>
      <trkpt lat="38.80062" lon="15.24419">
        <ele>2.06</ele>
        <time>2018-04-18T02:55:16Z</time>
      </trkpt>
      <trkpt lat="38.80061" lon="15.24419">
        <ele>3.02</ele>
        <time>2018-04-18T02:55:28Z</time>
      </trkpt>
      <trkpt lat="38.80056" lon="15.24415">
        <ele>2.54</ele>
        <time>2018-04-18T02:55:42Z</time>
      </trkpt>
      <trkpt lat="38.80031" lon="15.24426">
        <ele>2.06</ele>
        <time>2018-04-18T02:56:04Z</time>
      </trkpt>
      <trkpt lat="38.80033" lon="15.24466">
        <ele>2.06</ele>
        <time>2018-04-18T02:56:24Z</time>
      </trkpt>
      <trkpt lat="38.80044" lon="15.24491">
        <ele>2.54</ele>
        <time>2018-04-18T02:56:36Z</time>
      </trkpt>
      <trkpt lat="38.80054" lon="15.24519">
        <ele>2.54</ele>
        <time>2018-04-18T02:56:48Z</time>
      </trkpt>
      <trkpt lat="38.80066" lon="15.24547">
        <ele>3.98</ele>
        <time>2018-04-18T02:57:02Z</time>
      </trkpt>
      <trkpt lat="38.80078" lon="15.24569">
        <ele>4.46</ele>
        <time>2018-04-18T02:57:14Z</time>
      </trkpt>
      <trkpt lat="38.80086" lon="15.24582">
        <ele>4.94</ele>
        <time>2018-04-18T02:57:25Z</time>
      </trkpt>
      <trkpt lat="38.80089" lon="15.24587">
        <ele>4.94</ele>
        <time>2018-04-18T02:57:29Z</time>
      </trkpt>
      <trkpt lat="38.80094" lon="15.24594">
        <ele>3.98</ele>
        <time>2018-04-18T02:57:34Z</time>
      </trkpt>
      <trkpt lat="38.8012" lon="15.24615">
        <ele>4.46</ele>
        <time>2018-04-18T02:57:52Z</time>
      </trkpt>
      <trkpt lat="38.80142" lon="15.24619">
        <ele>3.5</ele>
        <time>2018-04-18T02:58:05Z</time>
      </trkpt>
      <trkpt lat="38.80165" lon="15.24616">
        <ele>3.02</ele>
        <time>2018-04-18T02:58:19Z</time>
      </trkpt>
      <trkpt lat="38.80194" lon="15.24602">
        <ele>3.02</ele>
        <time>2018-04-18T02:58:39Z</time>
      </trkpt>
      <trkpt lat="38.80216" lon="15.2459">
        <ele>2.54</ele>
        <time>2018-04-18T02:58:54Z</time>
      </trkpt>
      <trkpt lat="38.80251" lon="15.24573">
        <ele>3.02</ele>
        <time>2018-04-18T02:59:18Z</time>
      </trkpt>
      <trkpt lat="38.80274" lon="15.24565">
        <ele>2.54</ele>
        <time>2018-04-18T02:59:33Z</time>
      </trkpt>
      <trkpt lat="38.80301" lon="15.24552">
        <ele>2.54</ele>
        <time>2018-04-18T02:59:51Z</time>
      </trkpt>
      <trkpt lat="38.80332" lon="15.24531">
        <ele>2.54</ele>
        <time>2018-04-18T03:00:13Z</time>
      </trkpt>
      <trkpt lat="38.80347" lon="15.24525">
        <ele>2.54</ele>
        <time>2018-04-18T03:00:23Z</time>
      </trkpt>
      <trkpt lat="38.80375" lon="15.24522">
        <ele>2.06</ele>
        <time>2018-04-18T03:00:41Z</time>
      </trkpt>
      <trkpt lat="38.80405" lon="15.24528">
        <ele>1.58</ele>
        <time>2018-04-18T03:01:00Z</time>
      </trkpt>
      <trkpt lat="38.80445" lon="15.24534">
        <ele>1.58</ele>
        <time>2018-04-18T03:01:26Z</time>
      </trkpt>
      <trkpt lat="38.80487" lon="15.24543">
        <ele>1.58</ele>
        <time>2018-04-18T03:01:53Z</time>
      </trkpt>
      <trkpt lat="38.80508" lon="15.24543">
        <ele>5.42</ele>
        <time>2018-04-18T03:02:07Z</time>
      </trkpt>
      <trkpt lat="38.80543" lon="15.24539">
        <ele>4.94</ele>
        <time>2018-04-18T03:02:30Z</time>
      </trkpt>
      <trkpt lat="38.80573" lon="15.24547">
        <ele>3.98</ele>
        <time>2018-04-18T03:02:49Z</time>
      </trkpt>
      <trkpt lat="38.80602" lon="15.24553">
        <ele>3.98</ele>
        <time>2018-04-18T03:03:08Z</time>
      </trkpt>
      <trkpt lat="38.80618" lon="15.24554">
        <ele>2.54</ele>
        <time>2018-04-18T03:03:18Z</time>
      </trkpt>
      <trkpt lat="38.80633" lon="15.24551">
        <ele>3.5</ele>
        <time>2018-04-18T03:03:31Z</time>
      </trkpt>
      <trkpt lat="38.80652" lon="15.24542">
        <ele>3.98</ele>
        <time>2018-04-18T03:03:43Z</time>
      </trkpt>
      <trkpt lat="38.80672" lon="15.24527">
        <ele>3.5</ele>
        <time>2018-04-18T03:03:59Z</time>
      </trkpt>
      <trkpt lat="38.80695" lon="15.24508">
        <ele>3.98</ele>
        <time>2018-04-18T03:04:18Z</time>
      </trkpt>
      <trkpt lat="38.80708" lon="15.24478">
        <ele>4.94</ele>
        <time>2018-04-18T03:04:36Z</time>
      </trkpt>
      <trkpt lat="38.80728" lon="15.24438">
        <ele>4.46</ele>
        <time>2018-04-18T03:05:01Z</time>
      </trkpt>
      <trkpt lat="38.80745" lon="15.244">
        <ele>3.02</ele>
        <time>2018-04-18T03:05:23Z</time>
      </trkpt>
      <trkpt lat="38.80758" lon="15.24373">
        <ele>3.98</ele>
        <time>2018-04-18T03:05:39Z</time>
      </trkpt>
      <trkpt lat="38.80767" lon="15.24349">
        <ele>4.46</ele>
        <time>2018-04-18T03:05:53Z</time>
      </trkpt>
      <trkpt lat="38.80776" lon="15.24324">
        <ele>4.46</ele>
        <time>2018-04-18T03:06:07Z</time>
      </trkpt>
      <trkpt lat="38.80784" lon="15.24286">
        <ele>4.94</ele>
        <time>2018-04-18T03:06:26Z</time>
      </trkpt>
      <trkpt lat="38.80793" lon="15.24254">
        <ele>4.94</ele>
        <time>2018-04-18T03:06:43Z</time>
      </trkpt>
      <trkpt lat="38.80799" lon="15.24225">
        <ele>4.46</ele>
        <time>2018-04-18T03:06:58Z</time>
      </trkpt>
      <trkpt lat="38.80809" lon="15.24194">
        <ele>4.94</ele>
        <time>2018-04-18T03:07:15Z</time>
      </trkpt>
      <trkpt lat="38.80817" lon="15.24156">
        <ele>3.98</ele>
        <time>2018-04-18T03:07:34Z</time>
      </trkpt>
      <trkpt lat="38.8083" lon="15.24125">
        <ele>4.46</ele>
        <time>2018-04-18T03:07:52Z</time>
      </trkpt>
      <trkpt lat="38.80846" lon="15.2409">
        <ele>5.42</ele>
        <time>2018-04-18T03:08:12Z</time>
      </trkpt>
      <trkpt lat="38.80858" lon="15.24057">
        <ele>4.94</ele>
        <time>2018-04-18T03:08:30Z</time>
      </trkpt>
      <trkpt lat="38.80868" lon="15.24025">
        <ele>4.46</ele>
        <time>2018-04-18T03:08:48Z</time>
      </trkpt>
      <trkpt lat="38.80877" lon="15.23994">
        <ele>4.94</ele>
        <time>2018-04-18T03:09:05Z</time>
      </trkpt>
      <trkpt lat="38.80886" lon="15.23966">
        <ele>3.98</ele>
        <time>2018-04-18T03:09:20Z</time>
      </trkpt>
      <trkpt lat="38.80894" lon="15.23936">
        <ele>3.98</ele>
        <time>2018-04-18T03:09:36Z</time>
      </trkpt>
      <trkpt lat="38.80906" lon="15.23904">
        <ele>3.98</ele>
        <time>2018-04-18T03:09:54Z</time>
      </trkpt>
      <trkpt lat="38.80921" lon="15.23863">
        <ele>4.46</ele>
        <time>2018-04-18T03:10:16Z</time>
      </trkpt>
      <trkpt lat="38.8093" lon="15.23836">
        <ele>5.42</ele>
        <time>2018-04-18T03:10:30Z</time>
      </trkpt>
      <trkpt lat="38.80944" lon="15.23804">
        <ele>5.42</ele>
        <time>2018-04-18T03:10:48Z</time>
      </trkpt>
      <trkpt lat="38.80961" lon="15.2377">
        <ele>5.42</ele>
        <time>2018-04-18T03:11:08Z</time>
      </trkpt>
      <trkpt lat="38.80975" lon="15.23743">
        <ele>4.46</ele>
        <time>2018-04-18T03:11:24Z</time>
      </trkpt>
      <trkpt lat="38.80989" lon="15.23709">
        <ele>4.46</ele>
        <time>2018-04-18T03:11:43Z</time>
      </trkpt>
      <trkpt lat="38.81005" lon="15.23671">
        <ele>4.46</ele>
        <time>2018-04-18T03:12:04Z</time>
      </trkpt>
      <trkpt lat="38.81017" lon="15.23647">
        <ele>3.98</ele>
        <time>2018-04-18T03:12:18Z</time>
      </trkpt>
      <trkpt lat="38.81033" lon="15.23619">
        <ele>4.46</ele>
        <time>2018-04-18T03:12:34Z</time>
      </trkpt>
      <trkpt lat="38.81053" lon="15.23586">
        <ele>3.98</ele>
        <time>2018-04-18T03:12:55Z</time>
      </trkpt>
      <trkpt lat="38.81074" lon="15.2356">
        <ele>4.94</ele>
        <time>2018-04-18T03:13:13Z</time>
      </trkpt>
      <trkpt lat="38.811" lon="15.2354">
        <ele>5.42</ele>
        <time>2018-04-18T03:13:32Z</time>
      </trkpt>
      <trkpt lat="38.8112" lon="15.23518">
        <ele>4.94</ele>
        <time>2018-04-18T03:13:48Z</time>
      </trkpt>
      <trkpt lat="38.81145" lon="15.23491">
        <ele>4.46</ele>
        <time>2018-04-18T03:14:08Z</time>
      </trkpt>
      <trkpt lat="38.81167" lon="15.23468">
        <ele>5.42</ele>
        <time>2018-04-18T03:14:26Z</time>
      </trkpt>
      <trkpt lat="38.81188" lon="15.23443">
        <ele>4.46</ele>
        <time>2018-04-18T03:14:44Z</time>
      </trkpt>
      <trkpt lat="38.81203" lon="15.23407">
        <ele>4.46</ele>
        <time>2018-04-18T03:15:04Z</time>
      </trkpt>
      <trkpt lat="38.81218" lon="15.23373">
        <ele>4.46</ele>
        <time>2018-04-18T03:15:23Z</time>
      </trkpt>
      <trkpt lat="38.81236" lon="15.23332">
        <ele>4.94</ele>
        <time>2018-04-18T03:15:46Z</time>
      </trkpt>
      <trkpt lat="38.81253" lon="15.23288">
        <ele>4.46</ele>
        <time>2018-04-18T03:16:09Z</time>
      </trkpt>
      <trkpt lat="38.81264" lon="15.23251">
        <ele>5.42</ele>
        <time>2018-04-18T03:16:28Z</time>
      </trkpt>
      <trkpt lat="38.81276" lon="15.23215">
        <ele>6.39</ele>
        <time>2018-04-18T03:16:47Z</time>
      </trkpt>
      <trkpt lat="38.8129" lon="15.23178">
        <ele>6.39</ele>
        <time>2018-04-18T03:17:08Z</time>
      </trkpt>
      <trkpt lat="38.81302" lon="15.23149">
        <ele>6.39</ele>
        <time>2018-04-18T03:17:28Z</time>
      </trkpt>
      <trkpt lat="38.81312" lon="15.23124">
        <ele>4.94</ele>
        <time>2018-04-18T03:17:45Z</time>
      </trkpt>
      <trkpt lat="38.81319" lon="15.23097">
        <ele>5.42</ele>
        <time>2018-04-18T03:18:04Z</time>
      </trkpt>
      <trkpt lat="38.81323" lon="15.23084">
        <ele>4.94</ele>
        <time>2018-04-18T03:18:12Z</time>
      </trkpt>
      <trkpt lat="38.8133" lon="15.23063">
        <ele>4.94</ele>
        <time>2018-04-18T03:18:27Z</time>
      </trkpt>
      <trkpt lat="38.81335" lon="15.23045">
        <ele>4.46</ele>
        <time>2018-04-18T03:18:41Z</time>
      </trkpt>
      <trkpt lat="38.81337" lon="15.2304">
        <ele>4.94</ele>
        <time>2018-04-18T03:18:45Z</time>
      </trkpt>
      <trkpt lat="38.81344" lon="15.2302">
        <ele>5.42</ele>
        <time>2018-04-18T03:19:00Z</time>
      </trkpt>
      <trkpt lat="38.81354" lon="15.22985">
        <ele>5.91</ele>
        <time>2018-04-18T03:19:17Z</time>
      </trkpt>
      <trkpt lat="38.81361" lon="15.22943">
        <ele>6.39</ele>
        <time>2018-04-18T03:19:33Z</time>
      </trkpt>
      <trkpt lat="38.81373" lon="15.22896">
        <ele>5.91</ele>
        <time>2018-04-18T03:19:51Z</time>
      </trkpt>
      <trkpt lat="38.81389" lon="15.22847">
        <ele>5.91</ele>
        <time>2018-04-18T03:20:10Z</time>
      </trkpt>
      <trkpt lat="38.814" lon="15.22813">
        <ele>5.91</ele>
        <time>2018-04-18T03:20:23Z</time>
      </trkpt>
      <trkpt lat="38.81412" lon="15.2277">
        <ele>5.91</ele>
        <time>2018-04-18T03:20:39Z</time>
      </trkpt>
      <trkpt lat="38.81424" lon="15.2273">
        <ele>5.91</ele>
        <time>2018-04-18T03:20:54Z</time>
      </trkpt>
      <trkpt lat="38.81436" lon="15.22688">
        <ele>5.91</ele>
        <time>2018-04-18T03:21:10Z</time>
      </trkpt>
      <trkpt lat="38.81452" lon="15.22641">
        <ele>5.91</ele>
        <time>2018-04-18T03:21:28Z</time>
      </trkpt>
      <trkpt lat="38.81463" lon="15.22593">
        <ele>5.42</ele>
        <time>2018-04-18T03:21:46Z</time>
      </trkpt>
      <trkpt lat="38.81477" lon="15.22524">
        <ele>4.94</ele>
        <time>2018-04-18T03:22:11Z</time>
      </trkpt>
      <trkpt lat="38.81484" lon="15.22474">
        <ele>5.91</ele>
        <time>2018-04-18T03:22:29Z</time>
      </trkpt>
      <trkpt lat="38.81493" lon="15.22421">
        <ele>6.87</ele>
        <time>2018-04-18T03:22:48Z</time>
      </trkpt>
      <trkpt lat="38.81497" lon="15.22373">
        <ele>5.91</ele>
        <time>2018-04-18T03:23:05Z</time>
      </trkpt>
      <trkpt lat="38.81505" lon="15.22318">
        <ele>5.91</ele>
        <time>2018-04-18T03:23:24Z</time>
      </trkpt>
      <trkpt lat="38.81511" lon="15.22266">
        <ele>4.94</ele>
        <time>2018-04-18T03:23:42Z</time>
      </trkpt>
      <trkpt lat="38.81517" lon="15.22217">
        <ele>5.42</ele>
        <time>2018-04-18T03:23:59Z</time>
      </trkpt>
      <trkpt lat="38.81523" lon="15.22154">
        <ele>4.46</ele>
        <time>2018-04-18T03:24:21Z</time>
      </trkpt>
      <trkpt lat="38.81527" lon="15.22105">
        <ele>4.94</ele>
        <time>2018-04-18T03:24:38Z</time>
      </trkpt>
      <trkpt lat="38.81529" lon="15.22047">
        <ele>4.94</ele>
        <time>2018-04-18T03:24:58Z</time>
      </trkpt>
      <trkpt lat="38.81533" lon="15.21987">
        <ele>3.98</ele>
        <time>2018-04-18T03:25:18Z</time>
      </trkpt>
      <trkpt lat="38.81534" lon="15.21938">
        <ele>5.42</ele>
        <time>2018-04-18T03:25:34Z</time>
      </trkpt>
      <trkpt lat="38.81531" lon="15.21883">
        <ele>5.91</ele>
        <time>2018-04-18T03:25:51Z</time>
      </trkpt>
      <trkpt lat="38.81522" lon="15.2183">
        <ele>5.42</ele>
        <time>2018-04-18T03:26:07Z</time>
      </trkpt>
      <trkpt lat="38.81519" lon="15.21778">
        <ele>4.94</ele>
        <time>2018-04-18T03:26:22Z</time>
      </trkpt>
      <trkpt lat="38.81514" lon="15.2171">
        <ele>4.94</ele>
        <time>2018-04-18T03:26:42Z</time>
      </trkpt>
      <trkpt lat="38.81513" lon="15.2164">
        <ele>4.94</ele>
        <time>2018-04-18T03:27:02Z</time>
      </trkpt>
      <trkpt lat="38.81507" lon="15.21585">
        <ele>5.42</ele>
        <time>2018-04-18T03:27:18Z</time>
      </trkpt>
      <trkpt lat="38.81497" lon="15.21524">
        <ele>4.94</ele>
        <time>2018-04-18T03:27:36Z</time>
      </trkpt>
      <trkpt lat="38.8149" lon="15.21469">
        <ele>5.42</ele>
        <time>2018-04-18T03:27:52Z</time>
      </trkpt>
      <trkpt lat="38.81481" lon="15.21411">
        <ele>4.94</ele>
        <time>2018-04-18T03:28:09Z</time>
      </trkpt>
      <trkpt lat="38.8147" lon="15.21358">
        <ele>3.98</ele>
        <time>2018-04-18T03:28:25Z</time>
      </trkpt>
      <trkpt lat="38.81455" lon="15.21302">
        <ele>4.46</ele>
        <time>2018-04-18T03:28:42Z</time>
      </trkpt>
      <trkpt lat="38.8144" lon="15.21253">
        <ele>4.94</ele>
        <time>2018-04-18T03:28:59Z</time>
      </trkpt>
      <trkpt lat="38.81425" lon="15.212">
        <ele>5.42</ele>
        <time>2018-04-18T03:29:19Z</time>
      </trkpt>
      <trkpt lat="38.81413" lon="15.21159">
        <ele>4.94</ele>
        <time>2018-04-18T03:29:35Z</time>
      </trkpt>
      <trkpt lat="38.81394" lon="15.2111">
        <ele>4.94</ele>
        <time>2018-04-18T03:29:56Z</time>
      </trkpt>
      <trkpt lat="38.81386" lon="15.21073">
        <ele>3.98</ele>
        <time>2018-04-18T03:30:15Z</time>
      </trkpt>
      <trkpt lat="38.81378" lon="15.21041">
        <ele>4.94</ele>
        <time>2018-04-18T03:30:34Z</time>
      </trkpt>
      <trkpt lat="38.81368" lon="15.21015">
        <ele>4.94</ele>
        <time>2018-04-18T03:30:53Z</time>
      </trkpt>
      <trkpt lat="38.8136" lon="15.20987">
        <ele>3.98</ele>
        <time>2018-04-18T03:31:12Z</time>
      </trkpt>
      <trkpt lat="38.81352" lon="15.20962">
        <ele>4.94</ele>
        <time>2018-04-18T03:31:29Z</time>
      </trkpt>
      <trkpt lat="38.81345" lon="15.20939">
        <ele>3.98</ele>
        <time>2018-04-18T03:31:45Z</time>
      </trkpt>
      <trkpt lat="38.81344" lon="15.20933">
        <ele>3.98</ele>
        <time>2018-04-18T03:31:49Z</time>
      </trkpt>
      <trkpt lat="38.81343" lon="15.20929">
        <ele>3.98</ele>
        <time>2018-04-18T03:31:52Z</time>
      </trkpt>
      <trkpt lat="38.81335" lon="15.20914">
        <ele>5.42</ele>
        <time>2018-04-18T03:32:03Z</time>
      </trkpt>
      <trkpt lat="38.81334" lon="15.20911">
        <ele>5.91</ele>
        <time>2018-04-18T03:32:05Z</time>
      </trkpt>
      <trkpt lat="38.81327" lon="15.20881">
        <ele>3.98</ele>
        <time>2018-04-18T03:32:26Z</time>
      </trkpt>
      <trkpt lat="38.81326" lon="15.20876">
        <ele>3.98</ele>
        <time>2018-04-18T03:32:29Z</time>
      </trkpt>
      <trkpt lat="38.81321" lon="15.20854">
        <ele>4.94</ele>
        <time>2018-04-18T03:32:47Z</time>
      </trkpt>
      <trkpt lat="38.81316" lon="15.20836">
        <ele>4.94</ele>
        <time>2018-04-18T03:33:04Z</time>
      </trkpt>
      <trkpt lat="38.81311" lon="15.20822">
        <ele>4.94</ele>
        <time>2018-04-18T03:33:21Z</time>
      </trkpt>
      <trkpt lat="38.81307" lon="15.20815">
        <ele>5.42</ele>
        <time>2018-04-18T03:33:32Z</time>
      </trkpt>
      <trkpt lat="38.81302" lon="15.20804">
        <ele>5.91</ele>
        <time>2018-04-18T03:33:51Z</time>
      </trkpt>
      <trkpt lat="38.81299" lon="15.20792">
        <ele>3.5</ele>
        <time>2018-04-18T03:34:09Z</time>
      </trkpt>
      <trkpt lat="38.81294" lon="15.20781">
        <ele>4.46</ele>
        <time>2018-04-18T03:34:29Z</time>
      </trkpt>
      <trkpt lat="38.81292" lon="15.20772">
        <ele>3.98</ele>
        <time>2018-04-18T03:34:48Z</time>
      </trkpt>
      <trkpt lat="38.81288" lon="15.20763">
        <ele>5.42</ele>
        <time>2018-04-18T03:35:07Z</time>
      </trkpt>
      <trkpt lat="38.81284" lon="15.20754">
        <ele>3.5</ele>
        <time>2018-04-18T03:35:29Z</time>
      </trkpt>
      <trkpt lat="38.8128" lon="15.20746">
        <ele>4.94</ele>
        <time>2018-04-18T03:35:49Z</time>
      </trkpt>
      <trkpt lat="38.81279" lon="15.20739">
        <ele>3.02</ele>
        <time>2018-04-18T03:36:07Z</time>
      </trkpt>
      <trkpt lat="38.81275" lon="15.20731">
        <ele>4.94</ele>
        <time>2018-04-18T03:36:25Z</time>
      </trkpt>
      <trkpt lat="38.81274" lon="15.20724">
        <ele>4.46</ele>
        <time>2018-04-18T03:36:42Z</time>
      </trkpt>
      <trkpt lat="38.8127" lon="15.20715">
        <ele>3.5</ele>
        <time>2018-04-18T03:37:00Z</time>
      </trkpt>
      <trkpt lat="38.81266" lon="15.20702">
        <ele>3.02</ele>
        <time>2018-04-18T03:37:19Z</time>
      </trkpt>
      <trkpt lat="38.81262" lon="15.2069">
        <ele>3.98</ele>
        <time>2018-04-18T03:37:37Z</time>
      </trkpt>
      <trkpt lat="38.81257" lon="15.20672">
        <ele>5.42</ele>
        <time>2018-04-18T03:37:55Z</time>
      </trkpt>
      <trkpt lat="38.81257" lon="15.20669">
        <ele>5.42</ele>
        <time>2018-04-18T03:37:59Z</time>
      </trkpt>
      <trkpt lat="38.81256" lon="15.20666">
        <ele>4.94</ele>
        <time>2018-04-18T03:38:03Z</time>
      </trkpt>
      <trkpt lat="38.81253" lon="15.20655">
        <ele>4.46</ele>
        <time>2018-04-18T03:38:16Z</time>
      </trkpt>
      <trkpt lat="38.81248" lon="15.20644">
        <ele>2.54</ele>
        <time>2018-04-18T03:38:28Z</time>
      </trkpt>
      <trkpt lat="38.81246" lon="15.20638">
        <ele>3.02</ele>
        <time>2018-04-18T03:38:45Z</time>
      </trkpt>
      <trkpt lat="38.81244" lon="15.20633">
        <ele>3.5</ele>
        <time>2018-04-18T03:39:00Z</time>
      </trkpt>
      <trkpt lat="38.81241" lon="15.20627">
        <ele>3.98</ele>
        <time>2018-04-18T03:39:14Z</time>
      </trkpt>
      <trkpt lat="38.81238" lon="15.2062">
        <ele>4.94</ele>
        <time>2018-04-18T03:39:29Z</time>
      </trkpt>
      <trkpt lat="38.81235" lon="15.20611">
        <ele>5.42</ele>
        <time>2018-04-18T03:39:45Z</time>
      </trkpt>
      <trkpt lat="38.81233" lon="15.20604">
        <ele>4.94</ele>
        <time>2018-04-18T03:39:58Z</time>
      </trkpt>
      <trkpt lat="38.8123" lon="15.20596">
        <ele>4.94</ele>
        <time>2018-04-18T03:40:15Z</time>
      </trkpt>
      <trkpt lat="38.81227" lon="15.20589">
        <ele>4.94</ele>
        <time>2018-04-18T03:40:31Z</time>
      </trkpt>
      <trkpt lat="38.81223" lon="15.2058">
        <ele>4.46</ele>
        <time>2018-04-18T03:40:51Z</time>
      </trkpt>
      <trkpt lat="38.8122" lon="15.20572">
        <ele>4.46</ele>
        <time>2018-04-18T03:41:08Z</time>
      </trkpt>
      <trkpt lat="38.81217" lon="15.20564">
        <ele>3.98</ele>
        <time>2018-04-18T03:41:26Z</time>
      </trkpt>
      <trkpt lat="38.81214" lon="15.20554">
        <ele>4.94</ele>
        <time>2018-04-18T03:41:45Z</time>
      </trkpt>
      <trkpt lat="38.81211" lon="15.20546">
        <ele>5.42</ele>
        <time>2018-04-18T03:42:04Z</time>
      </trkpt>
      <trkpt lat="38.81208" lon="15.20537">
        <ele>3.5</ele>
        <time>2018-04-18T03:42:23Z</time>
      </trkpt>
      <trkpt lat="38.81206" lon="15.20529">
        <ele>3.5</ele>
        <time>2018-04-18T03:42:43Z</time>
      </trkpt>
      <trkpt lat="38.81204" lon="15.2052">
        <ele>3.02</ele>
        <time>2018-04-18T03:43:02Z</time>
      </trkpt>
      <trkpt lat="38.812" lon="15.20512">
        <ele>3.5</ele>
        <time>2018-04-18T03:43:21Z</time>
      </trkpt>
      <trkpt lat="38.81197" lon="15.20506">
        <ele>3.5</ele>
        <time>2018-04-18T03:43:36Z</time>
      </trkpt>
      <trkpt lat="38.81195" lon="15.20496">
        <ele>3.5</ele>
        <time>2018-04-18T03:43:56Z</time>
      </trkpt>
      <trkpt lat="38.81194" lon="15.20489">
        <ele>3.98</ele>
        <time>2018-04-18T03:44:16Z</time>
      </trkpt>
      <trkpt lat="38.81192" lon="15.20478">
        <ele>3.98</ele>
        <time>2018-04-18T03:44:35Z</time>
      </trkpt>
      <trkpt lat="38.81188" lon="15.20469">
        <ele>4.94</ele>
        <time>2018-04-18T03:44:56Z</time>
      </trkpt>
      <trkpt lat="38.81186" lon="15.20461">
        <ele>5.42</ele>
        <time>2018-04-18T03:45:11Z</time>
      </trkpt>
      <trkpt lat="38.81183" lon="15.20456">
        <ele>4.94</ele>
        <time>2018-04-18T03:45:26Z</time>
      </trkpt>
      <trkpt lat="38.81181" lon="15.20449">
        <ele>3.5</ele>
        <time>2018-04-18T03:45:41Z</time>
      </trkpt>
      <trkpt lat="38.8118" lon="15.2044">
        <ele>3.02</ele>
        <time>2018-04-18T03:45:57Z</time>
      </trkpt>
      <trkpt lat="38.81178" lon="15.20435">
        <ele>3.5</ele>
        <time>2018-04-18T03:46:12Z</time>
      </trkpt>
      <trkpt lat="38.81176" lon="15.20429">
        <ele>3.98</ele>
        <time>2018-04-18T03:46:24Z</time>
      </trkpt>
      <trkpt lat="38.81175" lon="15.20423">
        <ele>3.98</ele>
        <time>2018-04-18T03:46:41Z</time>
      </trkpt>
      <trkpt lat="38.81172" lon="15.20412">
        <ele>4.94</ele>
        <time>2018-04-18T03:47:03Z</time>
      </trkpt>
      <trkpt lat="38.81169" lon="15.20406">
        <ele>4.94</ele>
        <time>2018-04-18T03:47:19Z</time>
      </trkpt>
      <trkpt lat="38.81167" lon="15.204">
        <ele>4.94</ele>
        <time>2018-04-18T03:47:34Z</time>
      </trkpt>
      <trkpt lat="38.81165" lon="15.20396">
        <ele>4.94</ele>
        <time>2018-04-18T03:47:47Z</time>
      </trkpt>
      <trkpt lat="38.81163" lon="15.20391">
        <ele>4.94</ele>
        <time>2018-04-18T03:48:01Z</time>
      </trkpt>
      <trkpt lat="38.8116" lon="15.20383">
        <ele>4.46</ele>
        <time>2018-04-18T03:48:19Z</time>
      </trkpt>
      <trkpt lat="38.81159" lon="15.20377">
        <ele>3.5</ele>
        <time>2018-04-18T03:48:36Z</time>
      </trkpt>
      <trkpt lat="38.81157" lon="15.20372">
        <ele>3.5</ele>
        <time>2018-04-18T03:48:51Z</time>
      </trkpt>
      <trkpt lat="38.81154" lon="15.20365">
        <ele>3.98</ele>
        <time>2018-04-18T03:49:07Z</time>
      </trkpt>
      <trkpt lat="38.81152" lon="15.20357">
        <ele>5.42</ele>
        <time>2018-04-18T03:49:26Z</time>
      </trkpt>
      <trkpt lat="38.8115" lon="15.20348">
        <ele>5.91</ele>
        <time>2018-04-18T03:49:45Z</time>
      </trkpt>
      <trkpt lat="38.81148" lon="15.20341">
        <ele>5.91</ele>
        <time>2018-04-18T03:50:01Z</time>
      </trkpt>
      <trkpt lat="38.81146" lon="15.20333">
        <ele>7.35</ele>
        <time>2018-04-18T03:50:17Z</time>
      </trkpt>
      <trkpt lat="38.81144" lon="15.20328">
        <ele>6.87</ele>
        <time>2018-04-18T03:50:36Z</time>
      </trkpt>
      <trkpt lat="38.81141" lon="15.20321">
        <ele>6.39</ele>
        <time>2018-04-18T03:50:51Z</time>
      </trkpt>
      <trkpt lat="38.81138" lon="15.20315">
        <ele>6.87</ele>
        <time>2018-04-18T03:51:07Z</time>
      </trkpt>
      <trkpt lat="38.81135" lon="15.20308">
        <ele>6.87</ele>
        <time>2018-04-18T03:51:26Z</time>
      </trkpt>
      <trkpt lat="38.81132" lon="15.20302">
        <ele>6.39</ele>
        <time>2018-04-18T03:51:43Z</time>
      </trkpt>
      <trkpt lat="38.8113" lon="15.20296">
        <ele>5.91</ele>
        <time>2018-04-18T03:51:58Z</time>
      </trkpt>
      <trkpt lat="38.81126" lon="15.20289">
        <ele>5.91</ele>
        <time>2018-04-18T03:52:13Z</time>
      </trkpt>
      <trkpt lat="38.81123" lon="15.20281">
        <ele>5.91</ele>
        <time>2018-04-18T03:52:30Z</time>
      </trkpt>
      <trkpt lat="38.81123" lon="15.2028">
        <ele>5.91</ele>
        <time>2018-04-18T03:52:45Z</time>
      </trkpt>
      <trkpt lat="38.81121" lon="15.20276">
        <ele>6.39</ele>
        <time>2018-04-18T03:53:01Z</time>
      </trkpt>
      <trkpt lat="38.8112" lon="15.20273">
        <ele>6.39</ele>
        <time>2018-04-18T03:53:17Z</time>
      </trkpt>
      <trkpt lat="38.81118" lon="15.20268">
        <ele>6.39</ele>
        <time>2018-04-18T03:53:35Z</time>
      </trkpt>
      <trkpt lat="38.81106" lon="15.20242">
        <ele>7.83</ele>
        <time>2018-04-18T03:53:53Z</time>
      </trkpt>
      <trkpt lat="38.81099" lon="15.20226">
        <ele>8.79</ele>
        <time>2018-04-18T03:54:08Z</time>
      </trkpt>
      <trkpt lat="38.81093" lon="15.20215">
        <ele>8.79</ele>
        <time>2018-04-18T03:54:21Z</time>
      </trkpt>
      <trkpt lat="38.81087" lon="15.20202">
        <ele>7.83</ele>
        <time>2018-04-18T03:54:41Z</time>
      </trkpt>
      <trkpt lat="38.81083" lon="15.20192">
        <ele>6.87</ele>
        <time>2018-04-18T03:54:57Z</time>
      </trkpt>
      <trkpt lat="38.8108" lon="15.20185">
        <ele>6.87</ele>
        <time>2018-04-18T03:55:11Z</time>
      </trkpt>
      <trkpt lat="38.81078" lon="15.20182">
        <ele>6.87</ele>
        <time>2018-04-18T03:55:26Z</time>
      </trkpt>
      <trkpt lat="38.81076" lon="15.20177">
        <ele>6.87</ele>
        <time>2018-04-18T03:55:42Z</time>
      </trkpt>
      <trkpt lat="38.81074" lon="15.20172">
        <ele>5.91</ele>
        <time>2018-04-18T03:55:59Z</time>
      </trkpt>
      <trkpt lat="38.81071" lon="15.20166">
        <ele>6.87</ele>
        <time>2018-04-18T03:56:17Z</time>
      </trkpt>
      <trkpt lat="38.81068" lon="15.20159">
        <ele>6.87</ele>
        <time>2018-04-18T03:56:34Z</time>
      </trkpt>
      <trkpt lat="38.81063" lon="15.20153">
        <ele>5.91</ele>
        <time>2018-04-18T03:56:50Z</time>
      </trkpt>
      <trkpt lat="38.81058" lon="15.20146">
        <ele>6.39</ele>
        <time>2018-04-18T03:57:03Z</time>
      </trkpt>
      <trkpt lat="38.81054" lon="15.2014">
        <ele>7.35</ele>
        <time>2018-04-18T03:57:20Z</time>
      </trkpt>
      <trkpt lat="38.8105" lon="15.20136">
        <ele>7.83</ele>
        <time>2018-04-18T03:57:37Z</time>
      </trkpt>
      <trkpt lat="38.81048" lon="15.20132">
        <ele>8.79</ele>
        <time>2018-04-18T03:57:50Z</time>
      </trkpt>
      <trkpt lat="38.81045" lon="15.20129">
        <ele>9.27</ele>
        <time>2018-04-18T03:58:04Z</time>
      </trkpt>
      <trkpt lat="38.81042" lon="15.20124">
        <ele>9.75</ele>
        <time>2018-04-18T03:58:21Z</time>
      </trkpt>
      <trkpt lat="38.8104" lon="15.20121">
        <ele>10.23</ele>
        <time>2018-04-18T03:58:34Z</time>
      </trkpt>
      <trkpt lat="38.81037" lon="15.20115">
        <ele>10.23</ele>
        <time>2018-04-18T03:58:53Z</time>
      </trkpt>
      <trkpt lat="38.81032" lon="15.2011">
        <ele>8.31</ele>
        <time>2018-04-18T03:59:07Z</time>
      </trkpt>
      <trkpt lat="38.81029" lon="15.20107">
        <ele>7.35</ele>
        <time>2018-04-18T03:59:19Z</time>
      </trkpt>
      <trkpt lat="38.81025" lon="15.20098">
        <ele>5.91</ele>
        <time>2018-04-18T03:59:27Z</time>
      </trkpt>
      <trkpt lat="38.81009" lon="15.20068">
        <ele>2.54</ele>
        <time>2018-04-18T03:59:40Z</time>
      </trkpt>
      <trkpt lat="38.80988" lon="15.20034">
        <ele>3.98</ele>
        <time>2018-04-18T04:00:00Z</time>
      </trkpt>
      <trkpt lat="38.80968" lon="15.20006">
        <ele>6.39</ele>
        <time>2018-04-18T04:00:18Z</time>
      </trkpt>
      <trkpt lat="38.80944" lon="15.19977">
        <ele>6.87</ele>
        <time>2018-04-18T04:00:36Z</time>
      </trkpt>
      <trkpt lat="38.80916" lon="15.19944">
        <ele>6.39</ele>
        <time>2018-04-18T04:00:58Z</time>
      </trkpt>
      <trkpt lat="38.80893" lon="15.19918">
        <ele>4.94</ele>
        <time>2018-04-18T04:01:15Z</time>
      </trkpt>
      <trkpt lat="38.80867" lon="15.19887">
        <ele>4.46</ele>
        <time>2018-04-18T04:01:35Z</time>
      </trkpt>
      <trkpt lat="38.80849" lon="15.19863">
        <ele>5.42</ele>
        <time>2018-04-18T04:01:50Z</time>
      </trkpt>
      <trkpt lat="38.80826" lon="15.19834">
        <ele>5.42</ele>
        <time>2018-04-18T04:02:08Z</time>
      </trkpt>
      <trkpt lat="38.80807" lon="15.19814">
        <ele>5.42</ele>
        <time>2018-04-18T04:02:22Z</time>
      </trkpt>
      <trkpt lat="38.80781" lon="15.19785">
        <ele>5.42</ele>
        <time>2018-04-18T04:02:41Z</time>
      </trkpt>
      <trkpt lat="38.80757" lon="15.19758">
        <ele>4.94</ele>
        <time>2018-04-18T04:02:59Z</time>
      </trkpt>
      <trkpt lat="38.80735" lon="15.19733">
        <ele>4.94</ele>
        <time>2018-04-18T04:03:15Z</time>
      </trkpt>
      <trkpt lat="38.80719" lon="15.19714">
        <ele>5.91</ele>
        <time>2018-04-18T04:03:27Z</time>
      </trkpt>
      <trkpt lat="38.80698" lon="15.19692">
        <ele>4.94</ele>
        <time>2018-04-18T04:03:42Z</time>
      </trkpt>
      <trkpt lat="38.80676" lon="15.19666">
        <ele>5.42</ele>
        <time>2018-04-18T04:03:58Z</time>
      </trkpt>
      <trkpt lat="38.80654" lon="15.19641">
        <ele>4.94</ele>
        <time>2018-04-18T04:04:15Z</time>
      </trkpt>
      <trkpt lat="38.80636" lon="15.1962">
        <ele>5.42</ele>
        <time>2018-04-18T04:04:31Z</time>
      </trkpt>
      <trkpt lat="38.80615" lon="15.19594">
        <ele>4.46</ele>
        <time>2018-04-18T04:04:51Z</time>
      </trkpt>
      <trkpt lat="38.80593" lon="15.1957">
        <ele>3.5</ele>
        <time>2018-04-18T04:05:11Z</time>
      </trkpt>
      <trkpt lat="38.80575" lon="15.19549">
        <ele>3.5</ele>
        <time>2018-04-18T04:05:28Z</time>
      </trkpt>
      <trkpt lat="38.80557" lon="15.19528">
        <ele>3.98</ele>
        <time>2018-04-18T04:05:45Z</time>
      </trkpt>
      <trkpt lat="38.8055" lon="15.19519">
        <ele>3.98</ele>
        <time>2018-04-18T04:05:52Z</time>
      </trkpt>
      <trkpt lat="38.80528" lon="15.19495">
        <ele>3.98</ele>
        <time>2018-04-18T04:06:12Z</time>
      </trkpt>
      <trkpt lat="38.80511" lon="15.19475">
        <ele>4.46</ele>
        <time>2018-04-18T04:06:29Z</time>
      </trkpt>
      <trkpt lat="38.80506" lon="15.19471">
        <ele>4.94</ele>
        <time>2018-04-18T04:06:33Z</time>
      </trkpt>
      <trkpt lat="38.80489" lon="15.19451">
        <ele>6.39</ele>
        <time>2018-04-18T04:06:50Z</time>
      </trkpt>
      <trkpt lat="38.80478" lon="15.19438">
        <ele>6.39</ele>
        <time>2018-04-18T04:07:00Z</time>
      </trkpt>
      <trkpt lat="38.80459" lon="15.19416">
        <ele>5.91</ele>
        <time>2018-04-18T04:07:18Z</time>
      </trkpt>
      <trkpt lat="38.8045" lon="15.19406">
        <ele>5.91</ele>
        <time>2018-04-18T04:07:26Z</time>
      </trkpt>
      <trkpt lat="38.80434" lon="15.19385">
        <ele>5.91</ele>
        <time>2018-04-18T04:07:43Z</time>
      </trkpt>
      <trkpt lat="38.80415" lon="15.19361">
        <ele>3.98</ele>
        <time>2018-04-18T04:08:02Z</time>
      </trkpt>
      <trkpt lat="38.80399" lon="15.19342">
        <ele>3.5</ele>
        <time>2018-04-18T04:08:18Z</time>
      </trkpt>
      <trkpt lat="38.80381" lon="15.19321">
        <ele>3.98</ele>
        <time>2018-04-18T04:08:36Z</time>
      </trkpt>
      <trkpt lat="38.80366" lon="15.19304">
        <ele>4.94</ele>
        <time>2018-04-18T04:08:50Z</time>
      </trkpt>
      <trkpt lat="38.80354" lon="15.19289">
        <ele>4.46</ele>
        <time>2018-04-18T04:09:02Z</time>
      </trkpt>
      <trkpt lat="38.80348" lon="15.19282">
        <ele>3.5</ele>
        <time>2018-04-18T04:09:08Z</time>
      </trkpt>
      <trkpt lat="38.80341" lon="15.19273">
        <ele>3.5</ele>
        <time>2018-04-18T04:09:15Z</time>
      </trkpt>
      <trkpt lat="38.80323" lon="15.19253">
        <ele>3.98</ele>
        <time>2018-04-18T04:09:32Z</time>
      </trkpt>
      <trkpt lat="38.80305" lon="15.19231">
        <ele>4.46</ele>
        <time>2018-04-18T04:09:50Z</time>
      </trkpt>
      <trkpt lat="38.80289" lon="15.19211">
        <ele>3.98</ele>
        <time>2018-04-18T04:10:07Z</time>
      </trkpt>
      <trkpt lat="38.80274" lon="15.19192">
        <ele>3.5</ele>
        <time>2018-04-18T04:10:23Z</time>
      </trkpt>
      <trkpt lat="38.80259" lon="15.19174">
        <ele>4.46</ele>
        <time>2018-04-18T04:10:38Z</time>
      </trkpt>
      <trkpt lat="38.80253" lon="15.19167">
        <ele>4.46</ele>
        <time>2018-04-18T04:10:44Z</time>
      </trkpt>
      <trkpt lat="38.80237" lon="15.19149">
        <ele>4.46</ele>
        <time>2018-04-18T04:10:59Z</time>
      </trkpt>
      <trkpt lat="38.8023" lon="15.1914">
        <ele>4.46</ele>
        <time>2018-04-18T04:11:06Z</time>
      </trkpt>
      <trkpt lat="38.80226" lon="15.19135">
        <ele>3.98</ele>
        <time>2018-04-18T04:11:10Z</time>
      </trkpt>
      <trkpt lat="38.80204" lon="15.19109">
        <ele>3.02</ele>
        <time>2018-04-18T04:11:32Z</time>
      </trkpt>
      <trkpt lat="38.80188" lon="15.19089">
        <ele>3.5</ele>
        <time>2018-04-18T04:11:48Z</time>
      </trkpt>
      <trkpt lat="38.80186" lon="15.19087">
        <ele>3.02</ele>
        <time>2018-04-18T04:11:50Z</time>
      </trkpt>
      <trkpt lat="38.80179" lon="15.19079">
        <ele>2.54</ele>
        <time>2018-04-18T04:11:57Z</time>
      </trkpt>
      <trkpt lat="38.80157" lon="15.1905">
        <ele>1.58</ele>
        <time>2018-04-18T04:12:19Z</time>
      </trkpt>
      <trkpt lat="38.80139" lon="15.19028">
        <ele>3.02</ele>
        <time>2018-04-18T04:12:37Z</time>
      </trkpt>
      <trkpt lat="38.80124" lon="15.1901">
        <ele>3.5</ele>
        <time>2018-04-18T04:12:52Z</time>
      </trkpt>
      <trkpt lat="38.80107" lon="15.18985">
        <ele>3.98</ele>
        <time>2018-04-18T04:13:11Z</time>
      </trkpt>
      <trkpt lat="38.80097" lon="15.18971">
        <ele>4.94</ele>
        <time>2018-04-18T04:13:22Z</time>
      </trkpt>
      <trkpt lat="38.80087" lon="15.18943">
        <ele>5.42</ele>
        <time>2018-04-18T04:13:39Z</time>
      </trkpt>
      <trkpt lat="38.80079" lon="15.18915">
        <ele>4.94</ele>
        <time>2018-04-18T04:13:56Z</time>
      </trkpt>
      <trkpt lat="38.80071" lon="15.18888">
        <ele>4.94</ele>
        <time>2018-04-18T04:14:12Z</time>
      </trkpt>
      <trkpt lat="38.8007" lon="15.18886">
        <ele>4.94</ele>
        <time>2018-04-18T04:14:13Z</time>
      </trkpt>
      <trkpt lat="38.80067" lon="15.18877">
        <ele>4.46</ele>
        <time>2018-04-18T04:14:17Z</time>
      </trkpt>
      <trkpt lat="38.8006" lon="15.18849">
        <ele>4.46</ele>
        <time>2018-04-18T04:14:33Z</time>
      </trkpt>
      <trkpt lat="38.80056" lon="15.18838">
        <ele>4.46</ele>
        <time>2018-04-18T04:14:40Z</time>
      </trkpt>
      <trkpt lat="38.80054" lon="15.18833">
        <ele>3.5</ele>
        <time>2018-04-18T04:14:44Z</time>
      </trkpt>
      <trkpt lat="38.80042" lon="15.18801">
        <ele>3.02</ele>
        <time>2018-04-18T04:15:05Z</time>
      </trkpt>
      <trkpt lat="38.80035" lon="15.18777">
        <ele>3.02</ele>
        <time>2018-04-18T04:15:17Z</time>
      </trkpt>
      <trkpt lat="38.80032" lon="15.18768">
        <ele>2.06</ele>
        <time>2018-04-18T04:15:23Z</time>
      </trkpt>
      <trkpt lat="38.80023" lon="15.18741">
        <ele>2.54</ele>
        <time>2018-04-18T04:15:40Z</time>
      </trkpt>
      <trkpt lat="38.80013" lon="15.18714">
        <ele>2.54</ele>
        <time>2018-04-18T04:15:57Z</time>
      </trkpt>
      <trkpt lat="38.80001" lon="15.18683">
        <ele>1.58</ele>
        <time>2018-04-18T04:16:17Z</time>
      </trkpt>
      <trkpt lat="38.7999" lon="15.18651">
        <ele>2.06</ele>
        <time>2018-04-18T04:16:36Z</time>
      </trkpt>
      <trkpt lat="38.79985" lon="15.18639">
        <ele>2.54</ele>
        <time>2018-04-18T04:16:45Z</time>
      </trkpt>
      <trkpt lat="38.79977" lon="15.18614">
        <ele>3.02</ele>
        <time>2018-04-18T04:17:00Z</time>
      </trkpt>
      <trkpt lat="38.79975" lon="15.18609">
        <ele>3.5</ele>
        <time>2018-04-18T04:17:03Z</time>
      </trkpt>
      <trkpt lat="38.79966" lon="15.18585">
        <ele>1.58</ele>
        <time>2018-04-18T04:17:18Z</time>
      </trkpt>
      <trkpt lat="38.79958" lon="15.18567">
        <ele>1.58</ele>
        <time>2018-04-18T04:17:32Z</time>
      </trkpt>
      <trkpt lat="38.79944" lon="15.18542">
        <ele>2.54</ele>
        <time>2018-04-18T04:17:50Z</time>
      </trkpt>
      <trkpt lat="38.79931" lon="15.18519">
        <ele>2.54</ele>
        <time>2018-04-18T04:18:06Z</time>
      </trkpt>
      <trkpt lat="38.79912" lon="15.18495">
        <ele>2.06</ele>
        <time>2018-04-18T04:18:26Z</time>
      </trkpt>
      <trkpt lat="38.79896" lon="15.18474">
        <ele>3.02</ele>
        <time>2018-04-18T04:18:43Z</time>
      </trkpt>
      <trkpt lat="38.79882" lon="15.18454">
        <ele>2.06</ele>
        <time>2018-04-18T04:18:58Z</time>
      </trkpt>
      <trkpt lat="38.79867" lon="15.18434">
        <ele>3.02</ele>
        <time>2018-04-18T04:19:14Z</time>
      </trkpt>
      <trkpt lat="38.79849" lon="15.18411">
        <ele>3.5</ele>
        <time>2018-04-18T04:19:33Z</time>
      </trkpt>
      <trkpt lat="38.79828" lon="15.18384">
        <ele>3.5</ele>
        <time>2018-04-18T04:19:55Z</time>
      </trkpt>
      <trkpt lat="38.7981" lon="15.18359">
        <ele>3.02</ele>
        <time>2018-04-18T04:20:14Z</time>
      </trkpt>
      <trkpt lat="38.79791" lon="15.18333">
        <ele>2.54</ele>
        <time>2018-04-18T04:20:34Z</time>
      </trkpt>
      <trkpt lat="38.79774" lon="15.1831">
        <ele>3.5</ele>
        <time>2018-04-18T04:20:52Z</time>
      </trkpt>
      <trkpt lat="38.79757" lon="15.18286">
        <ele>3.98</ele>
        <time>2018-04-18T04:21:10Z</time>
      </trkpt>
      <trkpt lat="38.7974" lon="15.18264">
        <ele>3.5</ele>
        <time>2018-04-18T04:21:27Z</time>
      </trkpt>
      <trkpt lat="38.79724" lon="15.18242">
        <ele>3.02</ele>
        <time>2018-04-18T04:21:44Z</time>
      </trkpt>
      <trkpt lat="38.79707" lon="15.18224">
        <ele>3.02</ele>
        <time>2018-04-18T04:22:01Z</time>
      </trkpt>
      <trkpt lat="38.79689" lon="15.18207">
        <ele>3.5</ele>
        <time>2018-04-18T04:22:17Z</time>
      </trkpt>
      <trkpt lat="38.79672" lon="15.1819">
        <ele>3.5</ele>
        <time>2018-04-18T04:22:33Z</time>
      </trkpt>
      <trkpt lat="38.79655" lon="15.18172">
        <ele>2.06</ele>
        <time>2018-04-18T04:22:48Z</time>
      </trkpt>
      <trkpt lat="38.79637" lon="15.18156">
        <ele>3.02</ele>
        <time>2018-04-18T04:23:03Z</time>
      </trkpt>
      <trkpt lat="38.79611" lon="15.18134">
        <ele>4.46</ele>
        <time>2018-04-18T04:23:21Z</time>
      </trkpt>
      <trkpt lat="38.7959" lon="15.18114">
        <ele>3.98</ele>
        <time>2018-04-18T04:23:36Z</time>
      </trkpt>
      <trkpt lat="38.79575" lon="15.18097">
        <ele>2.54</ele>
        <time>2018-04-18T04:23:48Z</time>
      </trkpt>
      <trkpt lat="38.79557" lon="15.18081">
        <ele>3.02</ele>
        <time>2018-04-18T04:24:00Z</time>
      </trkpt>
      <trkpt lat="38.79534" lon="15.18061">
        <ele>3.02</ele>
        <time>2018-04-18T04:24:17Z</time>
      </trkpt>
      <trkpt lat="38.79511" lon="15.18037">
        <ele>3.98</ele>
        <time>2018-04-18T04:24:35Z</time>
      </trkpt>
      <trkpt lat="38.79494" lon="15.18019">
        <ele>3.02</ele>
        <time>2018-04-18T04:24:49Z</time>
      </trkpt>
      <trkpt lat="38.79478" lon="15.18003">
        <ele>2.54</ele>
        <time>2018-04-18T04:25:01Z</time>
      </trkpt>
      <trkpt lat="38.79457" lon="15.17982">
        <ele>3.5</ele>
        <time>2018-04-18T04:25:16Z</time>
      </trkpt>
      <trkpt lat="38.79439" lon="15.17964">
        <ele>3.5</ele>
        <time>2018-04-18T04:25:31Z</time>
      </trkpt>
      <trkpt lat="38.79421" lon="15.17947">
        <ele>3.02</ele>
        <time>2018-04-18T04:25:45Z</time>
      </trkpt>
      <trkpt lat="38.79405" lon="15.1793">
        <ele>3.5</ele>
        <time>2018-04-18T04:25:58Z</time>
      </trkpt>
      <trkpt lat="38.79384" lon="15.17909">
        <ele>4.94</ele>
        <time>2018-04-18T04:26:13Z</time>
      </trkpt>
      <trkpt lat="38.79364" lon="15.17889">
        <ele>3.5</ele>
        <time>2018-04-18T04:26:28Z</time>
      </trkpt>
      <trkpt lat="38.79345" lon="15.17871">
        <ele>3.5</ele>
        <time>2018-04-18T04:26:42Z</time>
      </trkpt>
      <trkpt lat="38.79328" lon="15.17854">
        <ele>3.98</ele>
        <time>2018-04-18T04:26:55Z</time>
      </trkpt>
      <trkpt lat="38.79309" lon="15.17834">
        <ele>3.02</ele>
        <time>2018-04-18T04:27:08Z</time>
      </trkpt>
      <trkpt lat="38.79289" lon="15.17814">
        <ele>0.62</ele>
        <time>2018-04-18T04:27:23Z</time>
      </trkpt>
      <trkpt lat="38.79263" lon="15.17787">
        <ele>2.06</ele>
        <time>2018-04-18T04:27:42Z</time>
      </trkpt>
      <trkpt lat="38.79249" lon="15.17771">
        <ele>2.54</ele>
        <time>2018-04-18T04:27:54Z</time>
      </trkpt>
      <trkpt lat="38.79229" lon="15.17753">
        <ele>3.02</ele>
        <time>2018-04-18T04:28:09Z</time>
      </trkpt>
      <trkpt lat="38.79209" lon="15.17735">
        <ele>3.5</ele>
        <time>2018-04-18T04:28:23Z</time>
      </trkpt>
      <trkpt lat="38.79188" lon="15.17712">
        <ele>3.98</ele>
        <time>2018-04-18T04:28:39Z</time>
      </trkpt>
      <trkpt lat="38.79167" lon="15.17696">
        <ele>3.5</ele>
        <time>2018-04-18T04:28:53Z</time>
      </trkpt>
      <trkpt lat="38.79147" lon="15.17681">
        <ele>4.46</ele>
        <time>2018-04-18T04:29:06Z</time>
      </trkpt>
      <trkpt lat="38.79118" lon="15.17656">
        <ele>3.02</ele>
        <time>2018-04-18T04:29:25Z</time>
      </trkpt>
      <trkpt lat="38.79098" lon="15.17637">
        <ele>4.46</ele>
        <time>2018-04-18T04:29:39Z</time>
      </trkpt>
      <trkpt lat="38.7907" lon="15.17615">
        <ele>4.94</ele>
        <time>2018-04-18T04:29:57Z</time>
      </trkpt>
      <trkpt lat="38.79044" lon="15.17593">
        <ele>5.91</ele>
        <time>2018-04-18T04:30:13Z</time>
      </trkpt>
      <trkpt lat="38.79017" lon="15.17571">
        <ele>5.91</ele>
        <time>2018-04-18T04:30:31Z</time>
      </trkpt>
      <trkpt lat="38.78987" lon="15.17545">
        <ele>5.91</ele>
        <time>2018-04-18T04:30:50Z</time>
      </trkpt>
      <trkpt lat="38.78956" lon="15.17521">
        <ele>6.39</ele>
        <time>2018-04-18T04:31:10Z</time>
      </trkpt>
      <trkpt lat="38.78928" lon="15.17499">
        <ele>6.87</ele>
        <time>2018-04-18T04:31:27Z</time>
      </trkpt>
      <trkpt lat="38.78903" lon="15.17477">
        <ele>5.42</ele>
        <time>2018-04-18T04:31:43Z</time>
      </trkpt>
      <trkpt lat="38.78877" lon="15.17455">
        <ele>4.46</ele>
        <time>2018-04-18T04:32:00Z</time>
      </trkpt>
      <trkpt lat="38.78852" lon="15.17435">
        <ele>4.94</ele>
        <time>2018-04-18T04:32:16Z</time>
      </trkpt>
      <trkpt lat="38.78822" lon="15.17411">
        <ele>5.42</ele>
        <time>2018-04-18T04:32:35Z</time>
      </trkpt>
      <trkpt lat="38.78798" lon="15.17392">
        <ele>5.42</ele>
        <time>2018-04-18T04:32:50Z</time>
      </trkpt>
      <trkpt lat="38.78775" lon="15.17373">
        <ele>5.42</ele>
        <time>2018-04-18T04:33:05Z</time>
      </trkpt>
      <trkpt lat="38.78754" lon="15.17355">
        <ele>4.46</ele>
        <time>2018-04-18T04:33:18Z</time>
      </trkpt>
      <trkpt lat="38.78726" lon="15.17332">
        <ele>3.98</ele>
        <time>2018-04-18T04:33:33Z</time>
      </trkpt>
      <trkpt lat="38.78692" lon="15.17305">
        <ele>4.46</ele>
        <time>2018-04-18T04:33:51Z</time>
      </trkpt>
      <trkpt lat="38.78669" lon="15.17285">
        <ele>4.94</ele>
        <time>2018-04-18T04:34:06Z</time>
      </trkpt>
      <trkpt lat="38.78665" lon="15.17283">
        <ele>4.94</ele>
        <time>2018-04-18T04:34:08Z</time>
      </trkpt>
      <trkpt lat="38.78657" lon="15.17276">
        <ele>3.5</ele>
        <time>2018-04-18T04:34:14Z</time>
      </trkpt>
      <trkpt lat="38.78641" lon="15.17263">
        <ele>3.98</ele>
        <time>2018-04-18T04:34:29Z</time>
      </trkpt>
      <trkpt lat="38.78635" lon="15.17257">
        <ele>3.5</ele>
        <time>2018-04-18T04:34:34Z</time>
      </trkpt>
      <trkpt lat="38.78614" lon="15.1724">
        <ele>3.98</ele>
        <time>2018-04-18T04:34:51Z</time>
      </trkpt>
      <trkpt lat="38.78588" lon="15.1722">
        <ele>3.98</ele>
        <time>2018-04-18T04:35:10Z</time>
      </trkpt>
      <trkpt lat="38.78562" lon="15.172">
        <ele>3.02</ele>
        <time>2018-04-18T04:35:29Z</time>
      </trkpt>
      <trkpt lat="38.78536" lon="15.1718">
        <ele>3.98</ele>
        <time>2018-04-18T04:35:49Z</time>
      </trkpt>
      <trkpt lat="38.78509" lon="15.17159">
        <ele>4.94</ele>
        <time>2018-04-18T04:36:08Z</time>
      </trkpt>
      <trkpt lat="38.78478" lon="15.17135">
        <ele>4.46</ele>
        <time>2018-04-18T04:36:30Z</time>
      </trkpt>
      <trkpt lat="38.78449" lon="15.17113">
        <ele>4.46</ele>
        <time>2018-04-18T04:36:51Z</time>
      </trkpt>
      <trkpt lat="38.78423" lon="15.17095">
        <ele>3.98</ele>
        <time>2018-04-18T04:37:09Z</time>
      </trkpt>
      <trkpt lat="38.78399" lon="15.17078">
        <ele>3.98</ele>
        <time>2018-04-18T04:37:26Z</time>
      </trkpt>
      <trkpt lat="38.7838" lon="15.17063">
        <ele>3.98</ele>
        <time>2018-04-18T04:37:38Z</time>
      </trkpt>
      <trkpt lat="38.78364" lon="15.1705">
        <ele>3.5</ele>
        <time>2018-04-18T04:37:51Z</time>
      </trkpt>
      <trkpt lat="38.78363" lon="15.1705">
        <ele>3.98</ele>
        <time>2018-04-18T04:37:52Z</time>
      </trkpt>
      <trkpt lat="38.78353" lon="15.17042">
        <ele>3.5</ele>
        <time>2018-04-18T04:37:59Z</time>
      </trkpt>
      <trkpt lat="38.78331" lon="15.17026">
        <ele>3.5</ele>
        <time>2018-04-18T04:38:15Z</time>
      </trkpt>
      <trkpt lat="38.78305" lon="15.17005">
        <ele>2.54</ele>
        <time>2018-04-18T04:38:34Z</time>
      </trkpt>
      <trkpt lat="38.78287" lon="15.16992">
        <ele>3.02</ele>
        <time>2018-04-18T04:38:47Z</time>
      </trkpt>
      <trkpt lat="38.78277" lon="15.16987">
        <ele>3.02</ele>
        <time>2018-04-18T04:38:54Z</time>
      </trkpt>
      <trkpt lat="38.78252" lon="15.16976">
        <ele>3.98</ele>
        <time>2018-04-18T04:39:09Z</time>
      </trkpt>
      <trkpt lat="38.78217" lon="15.16959">
        <ele>5.42</ele>
        <time>2018-04-18T04:39:28Z</time>
      </trkpt>
      <trkpt lat="38.78203" lon="15.16951">
        <ele>4.94</ele>
        <time>2018-04-18T04:39:36Z</time>
      </trkpt>
      <trkpt lat="38.78175" lon="15.16938">
        <ele>4.46</ele>
        <time>2018-04-18T04:39:50Z</time>
      </trkpt>
      <trkpt lat="38.78146" lon="15.16923">
        <ele>4.46</ele>
        <time>2018-04-18T04:40:05Z</time>
      </trkpt>
      <trkpt lat="38.78107" lon="15.16904">
        <ele>3.98</ele>
        <time>2018-04-18T04:40:25Z</time>
      </trkpt>
      <trkpt lat="38.78073" lon="15.16887">
        <ele>3.98</ele>
        <time>2018-04-18T04:40:43Z</time>
      </trkpt>
      <trkpt lat="38.78048" lon="15.16874">
        <ele>3.98</ele>
        <time>2018-04-18T04:40:56Z</time>
      </trkpt>
      <trkpt lat="38.78012" lon="15.16856">
        <ele>3.98</ele>
        <time>2018-04-18T04:41:15Z</time>
      </trkpt>
      <trkpt lat="38.77985" lon="15.16843">
        <ele>3.98</ele>
        <time>2018-04-18T04:41:29Z</time>
      </trkpt>
      <trkpt lat="38.77959" lon="15.16831">
        <ele>1.58</ele>
        <time>2018-04-18T04:41:42Z</time>
      </trkpt>
      <trkpt lat="38.77932" lon="15.16817">
        <ele>0.14</ele>
        <time>2018-04-18T04:41:56Z</time>
      </trkpt>
      <trkpt lat="38.77904" lon="15.16803">
        <ele>2.06</ele>
        <time>2018-04-18T04:42:11Z</time>
      </trkpt>
      <trkpt lat="38.77879" lon="15.16791">
        <ele>3.02</ele>
        <time>2018-04-18T04:42:24Z</time>
      </trkpt>
      <trkpt lat="38.7785" lon="15.16777">
        <ele>4.46</ele>
        <time>2018-04-18T04:42:39Z</time>
      </trkpt>
      <trkpt lat="38.77826" lon="15.16764">
        <ele>4.94</ele>
        <time>2018-04-18T04:42:52Z</time>
      </trkpt>
      <trkpt lat="38.77793" lon="15.16748">
        <ele>3.5</ele>
        <time>2018-04-18T04:43:09Z</time>
      </trkpt>
      <trkpt lat="38.77762" lon="15.16732">
        <ele>3.5</ele>
        <time>2018-04-18T04:43:26Z</time>
      </trkpt>
      <trkpt lat="38.77731" lon="15.16717">
        <ele>3.02</ele>
        <time>2018-04-18T04:43:42Z</time>
      </trkpt>
      <trkpt lat="38.77704" lon="15.16705">
        <ele>3.02</ele>
        <time>2018-04-18T04:43:56Z</time>
      </trkpt>
      <trkpt lat="38.77672" lon="15.16688">
        <ele>3.98</ele>
        <time>2018-04-18T04:44:13Z</time>
      </trkpt>
      <trkpt lat="38.77633" lon="15.16669">
        <ele>4.94</ele>
        <time>2018-04-18T04:44:33Z</time>
      </trkpt>
      <trkpt lat="38.77598" lon="15.16651">
        <ele>4.46</ele>
        <time>2018-04-18T04:44:52Z</time>
      </trkpt>
      <trkpt lat="38.77564" lon="15.16634">
        <ele>4.46</ele>
        <time>2018-04-18T04:45:09Z</time>
      </trkpt>
      <trkpt lat="38.77534" lon="15.16618">
        <ele>4.46</ele>
        <time>2018-04-18T04:45:25Z</time>
      </trkpt>
      <trkpt lat="38.77504" lon="15.166">
        <ele>3.5</ele>
        <time>2018-04-18T04:45:41Z</time>
      </trkpt>
      <trkpt lat="38.77481" lon="15.16583">
        <ele>3.98</ele>
        <time>2018-04-18T04:45:54Z</time>
      </trkpt>
      <trkpt lat="38.77454" lon="15.16562">
        <ele>3.02</ele>
        <time>2018-04-18T04:46:10Z</time>
      </trkpt>
      <trkpt lat="38.77423" lon="15.16538">
        <ele>3.02</ele>
        <time>2018-04-18T04:46:28Z</time>
      </trkpt>
      <trkpt lat="38.77392" lon="15.16513">
        <ele>2.54</ele>
        <time>2018-04-18T04:46:46Z</time>
      </trkpt>
      <trkpt lat="38.77362" lon="15.16491">
        <ele>3.02</ele>
        <time>2018-04-18T04:47:03Z</time>
      </trkpt>
      <trkpt lat="38.77334" lon="15.1647">
        <ele>3.02</ele>
        <time>2018-04-18T04:47:19Z</time>
      </trkpt>
      <trkpt lat="38.77308" lon="15.16448">
        <ele>3.5</ele>
        <time>2018-04-18T04:47:34Z</time>
      </trkpt>
      <trkpt lat="38.77278" lon="15.16431">
        <ele>3.02</ele>
        <time>2018-04-18T04:47:50Z</time>
      </trkpt>
      <trkpt lat="38.77249" lon="15.16418">
        <ele>2.06</ele>
        <time>2018-04-18T04:48:05Z</time>
      </trkpt>
      <trkpt lat="38.77207" lon="15.16397">
        <ele>2.06</ele>
        <time>2018-04-18T04:48:27Z</time>
      </trkpt>
      <trkpt lat="38.7717" lon="15.16378">
        <ele>0.14</ele>
        <time>2018-04-18T04:48:46Z</time>
      </trkpt>
      <trkpt lat="38.77145" lon="15.16366">
        <ele>-0.82</ele>
        <time>2018-04-18T04:48:58Z</time>
      </trkpt>
      <trkpt lat="38.77105" lon="15.16345">
        <ele>0.62</ele>
        <time>2018-04-18T04:49:19Z</time>
      </trkpt>
      <trkpt lat="38.77074" lon="15.16329">
        <ele>1.1</ele>
        <time>2018-04-18T04:49:35Z</time>
      </trkpt>
      <trkpt lat="38.77046" lon="15.16313">
        <ele>3.02</ele>
        <time>2018-04-18T04:49:51Z</time>
      </trkpt>
      <trkpt lat="38.77027" lon="15.16303">
        <ele>3.98</ele>
        <time>2018-04-18T04:50:02Z</time>
      </trkpt>
      <trkpt lat="38.76991" lon="15.16285">
        <ele>3.98</ele>
        <time>2018-04-18T04:50:20Z</time>
      </trkpt>
      <trkpt lat="38.76965" lon="15.1627">
        <ele>3.5</ele>
        <time>2018-04-18T04:50:33Z</time>
      </trkpt>
      <trkpt lat="38.76944" lon="15.16259">
        <ele>2.54</ele>
        <time>2018-04-18T04:50:44Z</time>
      </trkpt>
      <trkpt lat="38.76915" lon="15.16245">
        <ele>2.06</ele>
        <time>2018-04-18T04:50:59Z</time>
      </trkpt>
      <trkpt lat="38.76894" lon="15.16232">
        <ele>2.06</ele>
        <time>2018-04-18T04:51:10Z</time>
      </trkpt>
      <trkpt lat="38.76871" lon="15.16221">
        <ele>3.02</ele>
        <time>2018-04-18T04:51:23Z</time>
      </trkpt>
      <trkpt lat="38.76847" lon="15.16208">
        <ele>3.5</ele>
        <time>2018-04-18T04:51:36Z</time>
      </trkpt>
      <trkpt lat="38.76817" lon="15.16192">
        <ele>3.98</ele>
        <time>2018-04-18T04:51:52Z</time>
      </trkpt>
      <trkpt lat="38.76791" lon="15.16179">
        <ele>2.54</ele>
        <time>2018-04-18T04:52:05Z</time>
      </trkpt>
      <trkpt lat="38.76769" lon="15.16167">
        <ele>0.62</ele>
        <time>2018-04-18T04:52:17Z</time>
      </trkpt>
      <trkpt lat="38.76743" lon="15.16154">
        <ele>1.1</ele>
        <time>2018-04-18T04:52:31Z</time>
      </trkpt>
      <trkpt lat="38.7672" lon="15.16141">
        <ele>2.54</ele>
        <time>2018-04-18T04:52:44Z</time>
      </trkpt>
      <trkpt lat="38.76699" lon="15.16129">
        <ele>4.94</ele>
        <time>2018-04-18T04:52:57Z</time>
      </trkpt>
      <trkpt lat="38.76671" lon="15.16114">
        <ele>4.46</ele>
        <time>2018-04-18T04:53:12Z</time>
      </trkpt>
      <trkpt lat="38.76641" lon="15.16098">
        <ele>4.94</ele>
        <time>2018-04-18T04:53:28Z</time>
      </trkpt>
      <trkpt lat="38.76601" lon="15.16076">
        <ele>3.5</ele>
        <time>2018-04-18T04:53:49Z</time>
      </trkpt>
      <trkpt lat="38.76569" lon="15.16059">
        <ele>2.54</ele>
        <time>2018-04-18T04:54:07Z</time>
      </trkpt>
      <trkpt lat="38.76546" lon="15.16047">
        <ele>2.54</ele>
        <time>2018-04-18T04:54:20Z</time>
      </trkpt>
      <trkpt lat="38.76514" lon="15.16031">
        <ele>3.5</ele>
        <time>2018-04-18T04:54:37Z</time>
      </trkpt>
      <trkpt lat="38.76485" lon="15.16014">
        <ele>3.98</ele>
        <time>2018-04-18T04:54:53Z</time>
      </trkpt>
      <trkpt lat="38.76455" lon="15.15996">
        <ele>3.98</ele>
        <time>2018-04-18T04:55:10Z</time>
      </trkpt>
      <trkpt lat="38.76425" lon="15.15979">
        <ele>4.94</ele>
        <time>2018-04-18T04:55:27Z</time>
      </trkpt>
      <trkpt lat="38.76392" lon="15.1596">
        <ele>4.46</ele>
        <time>2018-04-18T04:55:46Z</time>
      </trkpt>
      <trkpt lat="38.76369" lon="15.15946">
        <ele>3.5</ele>
        <time>2018-04-18T04:55:59Z</time>
      </trkpt>
      <trkpt lat="38.76341" lon="15.1593">
        <ele>2.54</ele>
        <time>2018-04-18T04:56:15Z</time>
      </trkpt>
      <trkpt lat="38.76315" lon="15.15916">
        <ele>2.06</ele>
        <time>2018-04-18T04:56:28Z</time>
      </trkpt>
      <trkpt lat="38.76283" lon="15.15898">
        <ele>2.54</ele>
        <time>2018-04-18T04:56:47Z</time>
      </trkpt>
      <trkpt lat="38.76253" lon="15.1588">
        <ele>3.02</ele>
        <time>2018-04-18T04:57:04Z</time>
      </trkpt>
      <trkpt lat="38.76225" lon="15.15863">
        <ele>3.5</ele>
        <time>2018-04-18T04:57:20Z</time>
      </trkpt>
      <trkpt lat="38.76205" lon="15.15849">
        <ele>4.46</ele>
        <time>2018-04-18T04:57:34Z</time>
      </trkpt>
      <trkpt lat="38.76191" lon="15.15839">
        <ele>3.98</ele>
        <time>2018-04-18T04:57:42Z</time>
      </trkpt>
      <trkpt lat="38.76168" lon="15.15821">
        <ele>4.94</ele>
        <time>2018-04-18T04:57:56Z</time>
      </trkpt>
      <trkpt lat="38.76137" lon="15.15802">
        <ele>3.98</ele>
        <time>2018-04-18T04:58:14Z</time>
      </trkpt>
      <trkpt lat="38.76111" lon="15.15783">
        <ele>3.5</ele>
        <time>2018-04-18T04:58:29Z</time>
      </trkpt>
      <trkpt lat="38.7608" lon="15.1576">
        <ele>3.02</ele>
        <time>2018-04-18T04:58:48Z</time>
      </trkpt>
      <trkpt lat="38.76053" lon="15.1574">
        <ele>2.54</ele>
        <time>2018-04-18T04:59:04Z</time>
      </trkpt>
      <trkpt lat="38.76025" lon="15.1572">
        <ele>3.02</ele>
        <time>2018-04-18T04:59:21Z</time>
      </trkpt>
      <trkpt lat="38.75995" lon="15.15699">
        <ele>3.02</ele>
        <time>2018-04-18T04:59:39Z</time>
      </trkpt>
      <trkpt lat="38.75967" lon="15.15678">
        <ele>3.5</ele>
        <time>2018-04-18T04:59:56Z</time>
      </trkpt>
      <trkpt lat="38.75946" lon="15.15663">
        <ele>4.46</ele>
        <time>2018-04-18T05:00:09Z</time>
      </trkpt>
      <trkpt lat="38.75917" lon="15.15641">
        <ele>5.42</ele>
        <time>2018-04-18T05:00:27Z</time>
      </trkpt>
      <trkpt lat="38.75888" lon="15.1562">
        <ele>5.42</ele>
        <time>2018-04-18T05:00:44Z</time>
      </trkpt>
      <trkpt lat="38.75864" lon="15.15603">
        <ele>4.46</ele>
        <time>2018-04-18T05:00:58Z</time>
      </trkpt>
      <trkpt lat="38.75832" lon="15.15579">
        <ele>3.5</ele>
        <time>2018-04-18T05:01:17Z</time>
      </trkpt>
      <trkpt lat="38.75808" lon="15.15562">
        <ele>2.54</ele>
        <time>2018-04-18T05:01:30Z</time>
      </trkpt>
      <trkpt lat="38.75789" lon="15.15549">
        <ele>2.06</ele>
        <time>2018-04-18T05:01:41Z</time>
      </trkpt>
      <trkpt lat="38.75771" lon="15.15536">
        <ele>1.1</ele>
        <time>2018-04-18T05:01:51Z</time>
      </trkpt>
      <trkpt lat="38.75741" lon="15.15515">
        <ele>2.06</ele>
        <time>2018-04-18T05:02:09Z</time>
      </trkpt>
      <trkpt lat="38.75708" lon="15.15491">
        <ele>3.02</ele>
        <time>2018-04-18T05:02:29Z</time>
      </trkpt>
      <trkpt lat="38.75683" lon="15.15472">
        <ele>3.98</ele>
        <time>2018-04-18T05:02:44Z</time>
      </trkpt>
      <trkpt lat="38.7565" lon="15.15449">
        <ele>4.46</ele>
        <time>2018-04-18T05:03:03Z</time>
      </trkpt>
      <trkpt lat="38.75619" lon="15.15428">
        <ele>2.06</ele>
        <time>2018-04-18T05:03:21Z</time>
      </trkpt>
      <trkpt lat="38.75595" lon="15.1541">
        <ele>1.58</ele>
        <time>2018-04-18T05:03:35Z</time>
      </trkpt>
      <trkpt lat="38.75572" lon="15.15394">
        <ele>2.06</ele>
        <time>2018-04-18T05:03:49Z</time>
      </trkpt>
      <trkpt lat="38.75544" lon="15.15374">
        <ele>1.58</ele>
        <time>2018-04-18T05:04:05Z</time>
      </trkpt>
      <trkpt lat="38.75517" lon="15.15355">
        <ele>1.1</ele>
        <time>2018-04-18T05:04:20Z</time>
      </trkpt>
      <trkpt lat="38.75499" lon="15.15342">
        <ele>-0.34</ele>
        <time>2018-04-18T05:04:31Z</time>
      </trkpt>
      <trkpt lat="38.7549" lon="15.15336">
        <ele>-0.34</ele>
        <time>2018-04-18T05:04:36Z</time>
      </trkpt>
      <trkpt lat="38.7546" lon="15.15314">
        <ele>0.62</ele>
        <time>2018-04-18T05:04:54Z</time>
      </trkpt>
      <trkpt lat="38.75435" lon="15.15297">
        <ele>1.58</ele>
        <time>2018-04-18T05:05:08Z</time>
      </trkpt>
      <trkpt lat="38.75405" lon="15.15277">
        <ele>2.54</ele>
        <time>2018-04-18T05:05:25Z</time>
      </trkpt>
      <trkpt lat="38.75386" lon="15.15263">
        <ele>2.06</ele>
        <time>2018-04-18T05:05:36Z</time>
      </trkpt>
      <trkpt lat="38.75352" lon="15.15238">
        <ele>2.06</ele>
        <time>2018-04-18T05:05:56Z</time>
      </trkpt>
      <trkpt lat="38.75322" lon="15.15216">
        <ele>2.06</ele>
        <time>2018-04-18T05:06:13Z</time>
      </trkpt>
      <trkpt lat="38.75293" lon="15.15195">
        <ele>3.02</ele>
        <time>2018-04-18T05:06:30Z</time>
      </trkpt>
      <trkpt lat="38.75258" lon="15.15169">
        <ele>3.5</ele>
        <time>2018-04-18T05:06:51Z</time>
      </trkpt>
      <trkpt lat="38.75227" lon="15.15147">
        <ele>3.5</ele>
        <time>2018-04-18T05:07:09Z</time>
      </trkpt>
      <trkpt lat="38.75197" lon="15.15125">
        <ele>3.5</ele>
        <time>2018-04-18T05:07:26Z</time>
      </trkpt>
      <trkpt lat="38.75163" lon="15.15101">
        <ele>3.02</ele>
        <time>2018-04-18T05:07:45Z</time>
      </trkpt>
      <trkpt lat="38.7513" lon="15.15078">
        <ele>3.02</ele>
        <time>2018-04-18T05:08:04Z</time>
      </trkpt>
      <trkpt lat="38.75105" lon="15.15058">
        <ele>3.98</ele>
        <time>2018-04-18T05:08:19Z</time>
      </trkpt>
      <trkpt lat="38.75073" lon="15.15034">
        <ele>2.06</ele>
        <time>2018-04-18T05:08:37Z</time>
      </trkpt>
      <trkpt lat="38.75048" lon="15.15015">
        <ele>2.06</ele>
        <time>2018-04-18T05:08:52Z</time>
      </trkpt>
      <trkpt lat="38.75025" lon="15.15">
        <ele>2.06</ele>
        <time>2018-04-18T05:09:05Z</time>
      </trkpt>
      <trkpt lat="38.75003" lon="15.14983">
        <ele>3.02</ele>
        <time>2018-04-18T05:09:18Z</time>
      </trkpt>
      <trkpt lat="38.74972" lon="15.1496">
        <ele>3.02</ele>
        <time>2018-04-18T05:09:36Z</time>
      </trkpt>
      <trkpt lat="38.74946" lon="15.1494">
        <ele>3.98</ele>
        <time>2018-04-18T05:09:52Z</time>
      </trkpt>
      <trkpt lat="38.7491" lon="15.14913">
        <ele>3.5</ele>
        <time>2018-04-18T05:10:13Z</time>
      </trkpt>
      <trkpt lat="38.74884" lon="15.14893">
        <ele>4.46</ele>
        <time>2018-04-18T05:10:28Z</time>
      </trkpt>
      <trkpt lat="38.74861" lon="15.14874">
        <ele>3.02</ele>
        <time>2018-04-18T05:10:41Z</time>
      </trkpt>
      <trkpt lat="38.74849" lon="15.14865">
        <ele>2.54</ele>
        <time>2018-04-18T05:10:48Z</time>
      </trkpt>
      <trkpt lat="38.74839" lon="15.14856">
        <ele>2.06</ele>
        <time>2018-04-18T05:10:54Z</time>
      </trkpt>
      <trkpt lat="38.74818" lon="15.1484">
        <ele>3.5</ele>
        <time>2018-04-18T05:11:08Z</time>
      </trkpt>
      <trkpt lat="38.74794" lon="15.14821">
        <ele>5.42</ele>
        <time>2018-04-18T05:11:23Z</time>
      </trkpt>
      <trkpt lat="38.74771" lon="15.14805">
        <ele>4.94</ele>
        <time>2018-04-18T05:11:37Z</time>
      </trkpt>
      <trkpt lat="38.74743" lon="15.14783">
        <ele>4.46</ele>
        <time>2018-04-18T05:11:53Z</time>
      </trkpt>
      <trkpt lat="38.74719" lon="15.14764">
        <ele>4.46</ele>
        <time>2018-04-18T05:12:07Z</time>
      </trkpt>
      <trkpt lat="38.74695" lon="15.14745">
        <ele>3.5</ele>
        <time>2018-04-18T05:12:21Z</time>
      </trkpt>
      <trkpt lat="38.74664" lon="15.14723">
        <ele>2.54</ele>
        <time>2018-04-18T05:12:39Z</time>
      </trkpt>
      <trkpt lat="38.74637" lon="15.14701">
        <ele>3.5</ele>
        <time>2018-04-18T05:12:55Z</time>
      </trkpt>
      <trkpt lat="38.74609" lon="15.14681">
        <ele>4.94</ele>
        <time>2018-04-18T05:13:11Z</time>
      </trkpt>
      <trkpt lat="38.74582" lon="15.14659">
        <ele>4.94</ele>
        <time>2018-04-18T05:13:27Z</time>
      </trkpt>
      <trkpt lat="38.74551" lon="15.14635">
        <ele>3.5</ele>
        <time>2018-04-18T05:13:46Z</time>
      </trkpt>
      <trkpt lat="38.74528" lon="15.14616">
        <ele>4.46</ele>
        <time>2018-04-18T05:14:06Z</time>
      </trkpt>
      <trkpt lat="38.74523" lon="15.14612">
        <ele>4.46</ele>
        <time>2018-04-18T05:14:12Z</time>
      </trkpt>
      <trkpt lat="38.74515" lon="15.14606">
        <ele>4.94</ele>
        <time>2018-04-18T05:14:22Z</time>
      </trkpt>
      <trkpt lat="38.74503" lon="15.14596">
        <ele>5.91</ele>
        <time>2018-04-18T05:14:37Z</time>
      </trkpt>
      <trkpt lat="38.74493" lon="15.14587">
        <ele>5.91</ele>
        <time>2018-04-18T05:14:53Z</time>
      </trkpt>
      <trkpt lat="38.74484" lon="15.14575">
        <ele>4.46</ele>
        <time>2018-04-18T05:15:09Z</time>
      </trkpt>
      <trkpt lat="38.74475" lon="15.14563">
        <ele>4.94</ele>
        <time>2018-04-18T05:15:24Z</time>
      </trkpt>
      <trkpt lat="38.74467" lon="15.14552">
        <ele>4.46</ele>
        <time>2018-04-18T05:15:39Z</time>
      </trkpt>
      <trkpt lat="38.74457" lon="15.14542">
        <ele>4.46</ele>
        <time>2018-04-18T05:15:51Z</time>
      </trkpt>
      <trkpt lat="38.74448" lon="15.14534">
        <ele>3.98</ele>
        <time>2018-04-18T05:16:01Z</time>
      </trkpt>
      <trkpt lat="38.74438" lon="15.14522">
        <ele>3.98</ele>
        <time>2018-04-18T05:16:13Z</time>
      </trkpt>
      <trkpt lat="38.74435" lon="15.14519">
        <ele>4.46</ele>
        <time>2018-04-18T05:16:17Z</time>
      </trkpt>
      <trkpt lat="38.74428" lon="15.14509">
        <ele>5.91</ele>
        <time>2018-04-18T05:16:30Z</time>
      </trkpt>
      <trkpt lat="38.74423" lon="15.14505">
        <ele>5.91</ele>
        <time>2018-04-18T05:16:36Z</time>
      </trkpt>
      <trkpt lat="38.74416" lon="15.14497">
        <ele>5.42</ele>
        <time>2018-04-18T05:16:46Z</time>
      </trkpt>
      <trkpt lat="38.74408" lon="15.14489">
        <ele>4.94</ele>
        <time>2018-04-18T05:16:56Z</time>
      </trkpt>
      <trkpt lat="38.744" lon="15.14481">
        <ele>4.94</ele>
        <time>2018-04-18T05:17:08Z</time>
      </trkpt>
      <trkpt lat="38.74393" lon="15.14474">
        <ele>4.94</ele>
        <time>2018-04-18T05:17:21Z</time>
      </trkpt>
      <trkpt lat="38.74382" lon="15.14462">
        <ele>4.94</ele>
        <time>2018-04-18T05:17:36Z</time>
      </trkpt>
      <trkpt lat="38.74375" lon="15.14455">
        <ele>4.94</ele>
        <time>2018-04-18T05:17:47Z</time>
      </trkpt>
      <trkpt lat="38.74364" lon="15.14443">
        <ele>5.91</ele>
        <time>2018-04-18T05:18:01Z</time>
      </trkpt>
      <trkpt lat="38.74353" lon="15.14432">
        <ele>5.91</ele>
        <time>2018-04-18T05:18:18Z</time>
      </trkpt>
      <trkpt lat="38.74347" lon="15.14425">
        <ele>5.91</ele>
        <time>2018-04-18T05:18:27Z</time>
      </trkpt>
      <trkpt lat="38.74334" lon="15.14411">
        <ele>5.91</ele>
        <time>2018-04-18T05:18:45Z</time>
      </trkpt>
      <trkpt lat="38.74319" lon="15.14395">
        <ele>6.39</ele>
        <time>2018-04-18T05:19:05Z</time>
      </trkpt>
      <trkpt lat="38.74315" lon="15.14392">
        <ele>6.39</ele>
        <time>2018-04-18T05:19:10Z</time>
      </trkpt>
      <trkpt lat="38.74304" lon="15.1438">
        <ele>6.39</ele>
        <time>2018-04-18T05:19:26Z</time>
      </trkpt>
      <trkpt lat="38.74294" lon="15.1437">
        <ele>5.91</ele>
        <time>2018-04-18T05:19:39Z</time>
      </trkpt>
      <trkpt lat="38.74284" lon="15.14361">
        <ele>4.94</ele>
        <time>2018-04-18T05:19:53Z</time>
      </trkpt>
      <trkpt lat="38.74283" lon="15.14359">
        <ele>4.94</ele>
        <time>2018-04-18T05:19:55Z</time>
      </trkpt>
      <trkpt lat="38.7428" lon="15.14356">
        <ele>5.42</ele>
        <time>2018-04-18T05:19:59Z</time>
      </trkpt>
      <trkpt lat="38.7427" lon="15.14346">
        <ele>5.42</ele>
        <time>2018-04-18T05:20:12Z</time>
      </trkpt>
      <trkpt lat="38.74266" lon="15.14343">
        <ele>5.42</ele>
        <time>2018-04-18T05:20:17Z</time>
      </trkpt>
      <trkpt lat="38.74252" lon="15.14328">
        <ele>5.42</ele>
        <time>2018-04-18T05:20:36Z</time>
      </trkpt>
      <trkpt lat="38.74242" lon="15.14318">
        <ele>5.42</ele>
        <time>2018-04-18T05:20:49Z</time>
      </trkpt>
      <trkpt lat="38.74237" lon="15.14312">
        <ele>4.94</ele>
        <time>2018-04-18T05:20:56Z</time>
      </trkpt>
      <trkpt lat="38.74235" lon="15.14311">
        <ele>4.94</ele>
        <time>2018-04-18T05:20:58Z</time>
      </trkpt>
      <trkpt lat="38.74229" lon="15.14305">
        <ele>4.94</ele>
        <time>2018-04-18T05:21:06Z</time>
      </trkpt>
      <trkpt lat="38.74227" lon="15.14304">
        <ele>5.42</ele>
        <time>2018-04-18T05:21:08Z</time>
      </trkpt>
      <trkpt lat="38.74224" lon="15.14301">
        <ele>5.42</ele>
        <time>2018-04-18T05:21:12Z</time>
      </trkpt>
      <trkpt lat="38.74214" lon="15.14289">
        <ele>5.91</ele>
        <time>2018-04-18T05:21:28Z</time>
      </trkpt>
      <trkpt lat="38.74208" lon="15.14283">
        <ele>4.94</ele>
        <time>2018-04-18T05:21:42Z</time>
      </trkpt>
      <trkpt lat="38.74201" lon="15.14276">
        <ele>3.98</ele>
        <time>2018-04-18T05:21:51Z</time>
      </trkpt>
      <trkpt lat="38.74189" lon="15.14263">
        <ele>3.5</ele>
        <time>2018-04-18T05:22:07Z</time>
      </trkpt>
      <trkpt lat="38.74177" lon="15.14251">
        <ele>4.46</ele>
        <time>2018-04-18T05:22:23Z</time>
      </trkpt>
      <trkpt lat="38.74174" lon="15.14247">
        <ele>4.94</ele>
        <time>2018-04-18T05:22:27Z</time>
      </trkpt>
      <trkpt lat="38.7416" lon="15.14232">
        <ele>4.46</ele>
        <time>2018-04-18T05:22:45Z</time>
      </trkpt>
      <trkpt lat="38.74158" lon="15.1423">
        <ele>4.46</ele>
        <time>2018-04-18T05:22:47Z</time>
      </trkpt>
      <trkpt lat="38.74146" lon="15.14217">
        <ele>4.46</ele>
        <time>2018-04-18T05:23:03Z</time>
      </trkpt>
      <trkpt lat="38.74132" lon="15.14204">
        <ele>5.42</ele>
        <time>2018-04-18T05:23:19Z</time>
      </trkpt>
      <trkpt lat="38.74118" lon="15.14191">
        <ele>4.94</ele>
        <time>2018-04-18T05:23:38Z</time>
      </trkpt>
      <trkpt lat="38.74106" lon="15.14178">
        <ele>4.46</ele>
        <time>2018-04-18T05:23:54Z</time>
      </trkpt>
      <trkpt lat="38.74093" lon="15.14164">
        <ele>4.46</ele>
        <time>2018-04-18T05:24:12Z</time>
      </trkpt>
      <trkpt lat="38.7408" lon="15.14153">
        <ele>3.98</ele>
        <time>2018-04-18T05:24:28Z</time>
      </trkpt>
      <trkpt lat="38.74065" lon="15.14137">
        <ele>4.46</ele>
        <time>2018-04-18T05:24:49Z</time>
      </trkpt>
      <trkpt lat="38.74057" lon="15.14129">
        <ele>3.98</ele>
        <time>2018-04-18T05:24:59Z</time>
      </trkpt>
      <trkpt lat="38.74055" lon="15.14127">
        <ele>3.98</ele>
        <time>2018-04-18T05:25:01Z</time>
      </trkpt>
      <trkpt lat="38.74048" lon="15.14121">
        <ele>4.46</ele>
        <time>2018-04-18T05:25:09Z</time>
      </trkpt>
      <trkpt lat="38.74037" lon="15.1411">
        <ele>3.98</ele>
        <time>2018-04-18T05:25:22Z</time>
      </trkpt>
      <trkpt lat="38.74024" lon="15.14099">
        <ele>5.42</ele>
        <time>2018-04-18T05:25:37Z</time>
      </trkpt>
      <trkpt lat="38.74011" lon="15.14086">
        <ele>4.46</ele>
        <time>2018-04-18T05:25:51Z</time>
      </trkpt>
      <trkpt lat="38.74" lon="15.14075">
        <ele>4.46</ele>
        <time>2018-04-18T05:26:03Z</time>
      </trkpt>
      <trkpt lat="38.73995" lon="15.14071">
        <ele>4.46</ele>
        <time>2018-04-18T05:26:08Z</time>
      </trkpt>
      <trkpt lat="38.73979" lon="15.14056">
        <ele>4.46</ele>
        <time>2018-04-18T05:26:22Z</time>
      </trkpt>
      <trkpt lat="38.7397" lon="15.14044">
        <ele>4.94</ele>
        <time>2018-04-18T05:26:36Z</time>
      </trkpt>
      <trkpt lat="38.73956" lon="15.1403">
        <ele>4.94</ele>
        <time>2018-04-18T05:26:49Z</time>
      </trkpt>
      <trkpt lat="38.73953" lon="15.14028">
        <ele>5.42</ele>
        <time>2018-04-18T05:26:53Z</time>
      </trkpt>
      <trkpt lat="38.73941" lon="15.14015">
        <ele>5.42</ele>
        <time>2018-04-18T05:27:07Z</time>
      </trkpt>
      <trkpt lat="38.73938" lon="15.14011">
        <ele>5.42</ele>
        <time>2018-04-18T05:27:11Z</time>
      </trkpt>
      <trkpt lat="38.73933" lon="15.14006">
        <ele>5.91</ele>
        <time>2018-04-18T05:27:20Z</time>
      </trkpt>
      <trkpt lat="38.73923" lon="15.13997">
        <ele>5.91</ele>
        <time>2018-04-18T05:27:32Z</time>
      </trkpt>
      <trkpt lat="38.7391" lon="15.13995">
        <ele>5.91</ele>
        <time>2018-04-18T05:27:47Z</time>
      </trkpt>
      <trkpt lat="38.73901" lon="15.14">
        <ele>4.94</ele>
        <time>2018-04-18T05:28:02Z</time>
      </trkpt>
      <trkpt lat="38.73898" lon="15.14005">
        <ele>5.42</ele>
        <time>2018-04-18T05:28:13Z</time>
      </trkpt>
      <trkpt lat="38.73898" lon="15.14008">
        <ele>5.42</ele>
        <time>2018-04-18T05:28:22Z</time>
      </trkpt>
      <trkpt lat="38.73895" lon="15.14011">
        <ele>5.91</ele>
        <time>2018-04-18T05:28:26Z</time>
      </trkpt>
      <trkpt lat="38.73893" lon="15.14015">
        <ele>5.91</ele>
        <time>2018-04-18T05:28:37Z</time>
      </trkpt>
      <trkpt lat="38.73892" lon="15.14016">
        <ele>5.91</ele>
        <time>2018-04-18T05:28:53Z</time>
      </trkpt>
      <trkpt lat="38.73892" lon="15.14017">
        <ele>5.42</ele>
        <time>2018-04-18T05:29:06Z</time>
      </trkpt>
      <trkpt lat="38.73891" lon="15.14017">
        <ele>4.46</ele>
        <time>2018-04-18T05:29:20Z</time>
      </trkpt>
      <trkpt lat="38.7389" lon="15.14018">
        <ele>4.46</ele>
        <time>2018-04-18T05:29:35Z</time>
      </trkpt>
      <trkpt lat="38.73889" lon="15.14017">
        <ele>4.46</ele>
        <time>2018-04-18T05:29:50Z</time>
      </trkpt>
      <trkpt lat="38.73886" lon="15.14018">
        <ele>3.98</ele>
        <time>2018-04-18T05:30:07Z</time>
      </trkpt>
      <trkpt lat="38.73884" lon="15.14021">
        <ele>4.46</ele>
        <time>2018-04-18T05:30:16Z</time>
      </trkpt>
      <trkpt lat="38.73883" lon="15.14024">
        <ele>4.46</ele>
        <time>2018-04-18T05:30:31Z</time>
      </trkpt>
      <trkpt lat="38.73881" lon="15.14026">
        <ele>3.98</ele>
        <time>2018-04-18T05:30:43Z</time>
      </trkpt>
      <trkpt lat="38.73879" lon="15.14028">
        <ele>3.98</ele>
        <time>2018-04-18T05:30:56Z</time>
      </trkpt>
      <trkpt lat="38.73878" lon="15.1403">
        <ele>3.98</ele>
        <time>2018-04-18T05:31:08Z</time>
      </trkpt>
      <trkpt lat="38.73876" lon="15.14043">
        <ele>3.02</ele>
        <time>2018-04-18T05:31:22Z</time>
      </trkpt>
      <trkpt lat="38.73875" lon="15.1405">
        <ele>3.02</ele>
        <time>2018-04-18T05:31:28Z</time>
      </trkpt>
      <trkpt lat="38.73875" lon="15.14061">
        <ele>4.46</ele>
        <time>2018-04-18T05:31:42Z</time>
      </trkpt>
      <trkpt lat="38.73879" lon="15.14075">
        <ele>3.5</ele>
        <time>2018-04-18T05:31:57Z</time>
      </trkpt>
      <trkpt lat="38.73884" lon="15.14092">
        <ele>4.46</ele>
        <time>2018-04-18T05:32:13Z</time>
      </trkpt>
      <trkpt lat="38.73884" lon="15.14099">
        <ele>2.06</ele>
        <time>2018-04-18T05:32:24Z</time>
      </trkpt>
      <trkpt lat="38.73884" lon="15.14114">
        <ele>2.06</ele>
        <time>2018-04-18T05:32:37Z</time>
      </trkpt>
      <trkpt lat="38.73884" lon="15.14126">
        <ele>2.06</ele>
        <time>2018-04-18T05:32:49Z</time>
      </trkpt>
      <trkpt lat="38.73884" lon="15.14139">
        <ele>2.54</ele>
        <time>2018-04-18T05:33:03Z</time>
      </trkpt>
      <trkpt lat="38.73884" lon="15.14151">
        <ele>3.02</ele>
        <time>2018-04-18T05:33:20Z</time>
      </trkpt>
      <trkpt lat="38.73874" lon="15.14151">
        <ele>3.02</ele>
        <time>2018-04-18T05:33:36Z</time>
      </trkpt>
      <trkpt lat="38.73867" lon="15.14142">
        <ele>4.46</ele>
        <time>2018-04-18T05:33:51Z</time>
      </trkpt>
      <trkpt lat="38.73857" lon="15.14135">
        <ele>3.98</ele>
        <time>2018-04-18T05:34:06Z</time>
      </trkpt>
      <trkpt lat="38.73846" lon="15.14125">
        <ele>3.98</ele>
        <time>2018-04-18T05:34:23Z</time>
      </trkpt>
      <trkpt lat="38.73844" lon="15.14125">
        <ele>3.98</ele>
        <time>2018-04-18T05:34:25Z</time>
      </trkpt>
      <trkpt lat="38.73842" lon="15.14122">
        <ele>4.46</ele>
        <time>2018-04-18T05:34:28Z</time>
      </trkpt>
      <trkpt lat="38.73834" lon="15.14116">
        <ele>4.94</ele>
        <time>2018-04-18T05:34:38Z</time>
      </trkpt>
      <trkpt lat="38.73818" lon="15.14104">
        <ele>4.46</ele>
        <time>2018-04-18T05:34:55Z</time>
      </trkpt>
      <trkpt lat="38.73814" lon="15.14103">
        <ele>4.94</ele>
        <time>2018-04-18T05:34:58Z</time>
      </trkpt>
      <trkpt lat="38.73809" lon="15.14098">
        <ele>4.46</ele>
        <time>2018-04-18T05:35:02Z</time>
      </trkpt>
      <trkpt lat="38.73796" lon="15.14089">
        <ele>4.46</ele>
        <time>2018-04-18T05:35:12Z</time>
      </trkpt>
      <trkpt lat="38.73776" lon="15.1407">
        <ele>4.94</ele>
        <time>2018-04-18T05:35:28Z</time>
      </trkpt>
      <trkpt lat="38.73765" lon="15.14061">
        <ele>4.94</ele>
        <time>2018-04-18T05:35:37Z</time>
      </trkpt>
      <trkpt lat="38.7376" lon="15.14057">
        <ele>5.42</ele>
        <time>2018-04-18T05:35:41Z</time>
      </trkpt>
      <trkpt lat="38.7374" lon="15.14043">
        <ele>4.46</ele>
        <time>2018-04-18T05:35:56Z</time>
      </trkpt>
      <trkpt lat="38.73716" lon="15.14027">
        <ele>4.94</ele>
        <time>2018-04-18T05:36:13Z</time>
      </trkpt>
      <trkpt lat="38.73694" lon="15.1401">
        <ele>3.98</ele>
        <time>2018-04-18T05:36:29Z</time>
      </trkpt>
      <trkpt lat="38.73665" lon="15.13986">
        <ele>3.98</ele>
        <time>2018-04-18T05:36:50Z</time>
      </trkpt>
      <trkpt lat="38.73647" lon="15.13971">
        <ele>4.46</ele>
        <time>2018-04-18T05:37:04Z</time>
      </trkpt>
      <trkpt lat="38.73622" lon="15.13954">
        <ele>4.94</ele>
        <time>2018-04-18T05:37:22Z</time>
      </trkpt>
      <trkpt lat="38.73596" lon="15.13932">
        <ele>4.46</ele>
        <time>2018-04-18T05:37:43Z</time>
      </trkpt>
      <trkpt lat="38.73571" lon="15.13911">
        <ele>3.98</ele>
        <time>2018-04-18T05:38:03Z</time>
      </trkpt>
      <trkpt lat="38.73545" lon="15.13892">
        <ele>3.5</ele>
        <time>2018-04-18T05:38:23Z</time>
      </trkpt>
      <trkpt lat="38.73516" lon="15.13873">
        <ele>3.5</ele>
        <time>2018-04-18T05:38:44Z</time>
      </trkpt>
      <trkpt lat="38.73496" lon="15.13858">
        <ele>3.02</ele>
        <time>2018-04-18T05:38:59Z</time>
      </trkpt>
      <trkpt lat="38.73468" lon="15.13834">
        <ele>3.5</ele>
        <time>2018-04-18T05:39:20Z</time>
      </trkpt>
      <trkpt lat="38.7344" lon="15.13813">
        <ele>3.5</ele>
        <time>2018-04-18T05:39:41Z</time>
      </trkpt>
      <trkpt lat="38.73413" lon="15.13791">
        <ele>4.46</ele>
        <time>2018-04-18T05:40:02Z</time>
      </trkpt>
      <trkpt lat="38.73387" lon="15.13772">
        <ele>5.91</ele>
        <time>2018-04-18T05:40:21Z</time>
      </trkpt>
      <trkpt lat="38.73368" lon="15.13759">
        <ele>4.46</ele>
        <time>2018-04-18T05:40:36Z</time>
      </trkpt>
      <trkpt lat="38.73356" lon="15.13749">
        <ele>5.42</ele>
        <time>2018-04-18T05:40:46Z</time>
      </trkpt>
      <trkpt lat="38.7335" lon="15.13743">
        <ele>5.42</ele>
        <time>2018-04-18T05:40:52Z</time>
      </trkpt>
      <trkpt lat="38.73336" lon="15.13733">
        <ele>5.42</ele>
        <time>2018-04-18T05:41:04Z</time>
      </trkpt>
      <trkpt lat="38.73319" lon="15.1372">
        <ele>4.94</ele>
        <time>2018-04-18T05:41:20Z</time>
      </trkpt>
      <trkpt lat="38.73298" lon="15.13702">
        <ele>4.46</ele>
        <time>2018-04-18T05:41:42Z</time>
      </trkpt>
      <trkpt lat="38.73283" lon="15.13686">
        <ele>3.98</ele>
        <time>2018-04-18T05:41:58Z</time>
      </trkpt>
      <trkpt lat="38.73279" lon="15.13683">
        <ele>3.98</ele>
        <time>2018-04-18T05:42:03Z</time>
      </trkpt>
      <trkpt lat="38.73255" lon="15.13662">
        <ele>3.98</ele>
        <time>2018-04-18T05:42:26Z</time>
      </trkpt>
      <trkpt lat="38.73241" lon="15.13649">
        <ele>4.46</ele>
        <time>2018-04-18T05:42:40Z</time>
      </trkpt>
      <trkpt lat="38.73234" lon="15.13642">
        <ele>4.94</ele>
        <time>2018-04-18T05:42:46Z</time>
      </trkpt>
      <trkpt lat="38.73219" lon="15.1363">
        <ele>4.94</ele>
        <time>2018-04-18T05:42:58Z</time>
      </trkpt>
      <trkpt lat="38.73216" lon="15.13626">
        <ele>3.98</ele>
        <time>2018-04-18T05:43:01Z</time>
      </trkpt>
      <trkpt lat="38.73214" lon="15.13624">
        <ele>3.98</ele>
        <time>2018-04-18T05:43:03Z</time>
      </trkpt>
      <trkpt lat="38.73206" lon="15.13617">
        <ele>3.5</ele>
        <time>2018-04-18T05:43:10Z</time>
      </trkpt>
      <trkpt lat="38.73195" lon="15.13607">
        <ele>3.5</ele>
        <time>2018-04-18T05:43:20Z</time>
      </trkpt>
      <trkpt lat="38.73183" lon="15.13599">
        <ele>3.02</ele>
        <time>2018-04-18T05:43:33Z</time>
      </trkpt>
      <trkpt lat="38.73182" lon="15.13599">
        <ele>3.5</ele>
        <time>2018-04-18T05:43:34Z</time>
      </trkpt>
      <trkpt lat="38.73165" lon="15.13587">
        <ele>3.5</ele>
        <time>2018-04-18T05:43:49Z</time>
      </trkpt>
      <trkpt lat="38.73158" lon="15.13581">
        <ele>2.54</ele>
        <time>2018-04-18T05:43:56Z</time>
      </trkpt>
      <trkpt lat="38.73152" lon="15.13576">
        <ele>3.5</ele>
        <time>2018-04-18T05:44:01Z</time>
      </trkpt>
      <trkpt lat="38.73127" lon="15.13559">
        <ele>3.5</ele>
        <time>2018-04-18T05:44:21Z</time>
      </trkpt>
      <trkpt lat="38.73105" lon="15.13541">
        <ele>4.46</ele>
        <time>2018-04-18T05:44:39Z</time>
      </trkpt>
      <trkpt lat="38.73084" lon="15.13527">
        <ele>5.42</ele>
        <time>2018-04-18T05:44:56Z</time>
      </trkpt>
      <trkpt lat="38.73057" lon="15.1351">
        <ele>5.91</ele>
        <time>2018-04-18T05:45:18Z</time>
      </trkpt>
      <trkpt lat="38.73037" lon="15.13496">
        <ele>5.42</ele>
        <time>2018-04-18T05:45:34Z</time>
      </trkpt>
      <trkpt lat="38.7301" lon="15.13477">
        <ele>4.94</ele>
        <time>2018-04-18T05:45:54Z</time>
      </trkpt>
      <trkpt lat="38.72983" lon="15.13456">
        <ele>4.46</ele>
        <time>2018-04-18T05:46:15Z</time>
      </trkpt>
      <trkpt lat="38.72961" lon="15.1344">
        <ele>2.54</ele>
        <time>2018-04-18T05:46:31Z</time>
      </trkpt>
      <trkpt lat="38.72932" lon="15.13418">
        <ele>3.98</ele>
        <time>2018-04-18T05:46:51Z</time>
      </trkpt>
      <trkpt lat="38.72909" lon="15.13402">
        <ele>4.46</ele>
        <time>2018-04-18T05:47:07Z</time>
      </trkpt>
      <trkpt lat="38.72886" lon="15.13385">
        <ele>4.46</ele>
        <time>2018-04-18T05:47:23Z</time>
      </trkpt>
      <trkpt lat="38.7286" lon="15.13364">
        <ele>4.94</ele>
        <time>2018-04-18T05:47:42Z</time>
      </trkpt>
      <trkpt lat="38.72835" lon="15.13344">
        <ele>4.94</ele>
        <time>2018-04-18T05:48:00Z</time>
      </trkpt>
      <trkpt lat="38.7281" lon="15.13322">
        <ele>3.02</ele>
        <time>2018-04-18T05:48:19Z</time>
      </trkpt>
      <trkpt lat="38.7278" lon="15.13301">
        <ele>2.54</ele>
        <time>2018-04-18T05:48:40Z</time>
      </trkpt>
      <trkpt lat="38.7276" lon="15.13279">
        <ele>3.02</ele>
        <time>2018-04-18T05:48:55Z</time>
      </trkpt>
      <trkpt lat="38.72749" lon="15.13255">
        <ele>3.98</ele>
        <time>2018-04-18T05:49:09Z</time>
      </trkpt>
      <trkpt lat="38.72734" lon="15.13229">
        <ele>3.98</ele>
        <time>2018-04-18T05:49:27Z</time>
      </trkpt>
      <trkpt lat="38.72723" lon="15.13213">
        <ele>3.5</ele>
        <time>2018-04-18T05:49:40Z</time>
      </trkpt>
      <trkpt lat="38.72719" lon="15.13209">
        <ele>3.02</ele>
        <time>2018-04-18T05:49:44Z</time>
      </trkpt>
      <trkpt lat="38.72707" lon="15.13191">
        <ele>3.5</ele>
        <time>2018-04-18T05:49:59Z</time>
      </trkpt>
      <trkpt lat="38.72701" lon="15.13181">
        <ele>3.02</ele>
        <time>2018-04-18T05:50:08Z</time>
      </trkpt>
      <trkpt lat="38.72699" lon="15.13176">
        <ele>3.5</ele>
        <time>2018-04-18T05:50:12Z</time>
      </trkpt>
      <trkpt lat="38.72695" lon="15.1317">
        <ele>3.5</ele>
        <time>2018-04-18T05:50:18Z</time>
      </trkpt>
      <trkpt lat="38.72685" lon="15.13154">
        <ele>3.98</ele>
        <time>2018-04-18T05:50:34Z</time>
      </trkpt>
      <trkpt lat="38.72674" lon="15.13136">
        <ele>3.02</ele>
        <time>2018-04-18T05:50:52Z</time>
      </trkpt>
      <trkpt lat="38.72665" lon="15.13121">
        <ele>3.5</ele>
        <time>2018-04-18T05:51:07Z</time>
      </trkpt>
      <trkpt lat="38.72654" lon="15.13106">
        <ele>3.02</ele>
        <time>2018-04-18T05:51:19Z</time>
      </trkpt>
      <trkpt lat="38.72652" lon="15.13101">
        <ele>3.02</ele>
        <time>2018-04-18T05:51:23Z</time>
      </trkpt>
      <trkpt lat="38.72641" lon="15.13085">
        <ele>2.54</ele>
        <time>2018-04-18T05:51:41Z</time>
      </trkpt>
      <trkpt lat="38.7264" lon="15.13081">
        <ele>2.54</ele>
        <time>2018-04-18T05:51:44Z</time>
      </trkpt>
      <trkpt lat="38.72634" lon="15.13071">
        <ele>4.46</ele>
        <time>2018-04-18T05:51:56Z</time>
      </trkpt>
      <trkpt lat="38.72624" lon="15.13053">
        <ele>3.98</ele>
        <time>2018-04-18T05:52:13Z</time>
      </trkpt>
      <trkpt lat="38.72622" lon="15.13049">
        <ele>3.5</ele>
        <time>2018-04-18T05:52:16Z</time>
      </trkpt>
      <trkpt lat="38.72609" lon="15.13029">
        <ele>4.46</ele>
        <time>2018-04-18T05:52:35Z</time>
      </trkpt>
      <trkpt lat="38.72598" lon="15.13012">
        <ele>4.46</ele>
        <time>2018-04-18T05:52:52Z</time>
      </trkpt>
      <trkpt lat="38.72595" lon="15.13007">
        <ele>4.46</ele>
        <time>2018-04-18T05:52:57Z</time>
      </trkpt>
      <trkpt lat="38.72583" lon="15.1299">
        <ele>3.02</ele>
        <time>2018-04-18T05:53:14Z</time>
      </trkpt>
      <trkpt lat="38.72582" lon="15.12988">
        <ele>3.02</ele>
        <time>2018-04-18T05:53:16Z</time>
      </trkpt>
      <trkpt lat="38.72571" lon="15.1297">
        <ele>3.02</ele>
        <time>2018-04-18T05:53:33Z</time>
      </trkpt>
      <trkpt lat="38.72559" lon="15.12952">
        <ele>3.98</ele>
        <time>2018-04-18T05:53:50Z</time>
      </trkpt>
      <trkpt lat="38.72549" lon="15.12934">
        <ele>5.42</ele>
        <time>2018-04-18T05:54:05Z</time>
      </trkpt>
      <trkpt lat="38.72537" lon="15.12917">
        <ele>5.42</ele>
        <time>2018-04-18T05:54:21Z</time>
      </trkpt>
      <trkpt lat="38.72524" lon="15.12898">
        <ele>5.42</ele>
        <time>2018-04-18T05:54:38Z</time>
      </trkpt>
      <trkpt lat="38.72509" lon="15.12876">
        <ele>4.94</ele>
        <time>2018-04-18T05:54:56Z</time>
      </trkpt>
      <trkpt lat="38.72505" lon="15.12869">
        <ele>4.94</ele>
        <time>2018-04-18T05:55:02Z</time>
      </trkpt>
      <trkpt lat="38.72498" lon="15.12854">
        <ele>4.46</ele>
        <time>2018-04-18T05:55:15Z</time>
      </trkpt>
      <trkpt lat="38.72496" lon="15.12849">
        <ele>3.98</ele>
        <time>2018-04-18T05:55:20Z</time>
      </trkpt>
      <trkpt lat="38.72493" lon="15.12841">
        <ele>5.42</ele>
        <time>2018-04-18T05:55:27Z</time>
      </trkpt>
      <trkpt lat="38.7248" lon="15.12817">
        <ele>5.91</ele>
        <time>2018-04-18T05:55:45Z</time>
      </trkpt>
      <trkpt lat="38.72479" lon="15.12812">
        <ele>5.42</ele>
        <time>2018-04-18T05:55:48Z</time>
      </trkpt>
      <trkpt lat="38.72474" lon="15.128">
        <ele>6.39</ele>
        <time>2018-04-18T05:55:57Z</time>
      </trkpt>
      <trkpt lat="38.72471" lon="15.12794">
        <ele>6.39</ele>
        <time>2018-04-18T05:56:02Z</time>
      </trkpt>
      <trkpt lat="38.72469" lon="15.12792">
        <ele>5.91</ele>
        <time>2018-04-18T05:56:06Z</time>
      </trkpt>
      <trkpt lat="38.72458" lon="15.12774">
        <ele>4.94</ele>
        <time>2018-04-18T05:56:21Z</time>
      </trkpt>
      <trkpt lat="38.72455" lon="15.12769">
        <ele>4.94</ele>
        <time>2018-04-18T05:56:27Z</time>
      </trkpt>
      <trkpt lat="38.72453" lon="15.12765">
        <ele>3.98</ele>
        <time>2018-04-18T05:56:31Z</time>
      </trkpt>
      <trkpt lat="38.72441" lon="15.12747">
        <ele>3.98</ele>
        <time>2018-04-18T05:56:47Z</time>
      </trkpt>
      <trkpt lat="38.72438" lon="15.12742">
        <ele>4.46</ele>
        <time>2018-04-18T05:56:51Z</time>
      </trkpt>
      <trkpt lat="38.72435" lon="15.12738">
        <ele>4.46</ele>
        <time>2018-04-18T05:56:55Z</time>
      </trkpt>
      <trkpt lat="38.7242" lon="15.12715">
        <ele>4.46</ele>
        <time>2018-04-18T05:57:15Z</time>
      </trkpt>
      <trkpt lat="38.72415" lon="15.12708">
        <ele>4.46</ele>
        <time>2018-04-18T05:57:22Z</time>
      </trkpt>
      <trkpt lat="38.72402" lon="15.12687">
        <ele>4.46</ele>
        <time>2018-04-18T05:57:40Z</time>
      </trkpt>
      <trkpt lat="38.72397" lon="15.1268">
        <ele>3.98</ele>
        <time>2018-04-18T05:57:47Z</time>
      </trkpt>
      <trkpt lat="38.72396" lon="15.12677">
        <ele>3.98</ele>
        <time>2018-04-18T05:57:49Z</time>
      </trkpt>
      <trkpt lat="38.72393" lon="15.12672">
        <ele>3.5</ele>
        <time>2018-04-18T05:57:54Z</time>
      </trkpt>
      <trkpt lat="38.72387" lon="15.12664">
        <ele>3.98</ele>
        <time>2018-04-18T05:58:02Z</time>
      </trkpt>
      <trkpt lat="38.72386" lon="15.12661">
        <ele>4.46</ele>
        <time>2018-04-18T05:58:04Z</time>
      </trkpt>
      <trkpt lat="38.72375" lon="15.12645">
        <ele>4.46</ele>
        <time>2018-04-18T05:58:20Z</time>
      </trkpt>
      <trkpt lat="38.72363" lon="15.12628">
        <ele>4.94</ele>
        <time>2018-04-18T05:58:36Z</time>
      </trkpt>
      <trkpt lat="38.72352" lon="15.12611">
        <ele>3.98</ele>
        <time>2018-04-18T05:58:52Z</time>
      </trkpt>
      <trkpt lat="38.72342" lon="15.12594">
        <ele>4.46</ele>
        <time>2018-04-18T05:59:09Z</time>
      </trkpt>
      <trkpt lat="38.7233" lon="15.12576">
        <ele>4.46</ele>
        <time>2018-04-18T05:59:28Z</time>
      </trkpt>
      <trkpt lat="38.72327" lon="15.1257">
        <ele>4.94</ele>
        <time>2018-04-18T05:59:33Z</time>
      </trkpt>
      <trkpt lat="38.72324" lon="15.12565">
        <ele>5.91</ele>
        <time>2018-04-18T05:59:39Z</time>
      </trkpt>
      <trkpt lat="38.72315" lon="15.1255">
        <ele>5.42</ele>
        <time>2018-04-18T05:59:54Z</time>
      </trkpt>
      <trkpt lat="38.72303" lon="15.12534">
        <ele>4.94</ele>
        <time>2018-04-18T06:00:12Z</time>
      </trkpt>
      <trkpt lat="38.72294" lon="15.12519">
        <ele>4.46</ele>
        <time>2018-04-18T06:00:28Z</time>
      </trkpt>
      <trkpt lat="38.72285" lon="15.12503">
        <ele>4.46</ele>
        <time>2018-04-18T06:00:45Z</time>
      </trkpt>
      <trkpt lat="38.72274" lon="15.12485">
        <ele>4.94</ele>
        <time>2018-04-18T06:01:06Z</time>
      </trkpt>
      <trkpt lat="38.72265" lon="15.1247">
        <ele>4.94</ele>
        <time>2018-04-18T06:01:23Z</time>
      </trkpt>
      <trkpt lat="38.72255" lon="15.12454">
        <ele>5.42</ele>
        <time>2018-04-18T06:01:40Z</time>
      </trkpt>
      <trkpt lat="38.72247" lon="15.12439">
        <ele>5.91</ele>
        <time>2018-04-18T06:01:55Z</time>
      </trkpt>
      <trkpt lat="38.72246" lon="15.12437">
        <ele>5.91</ele>
        <time>2018-04-18T06:01:57Z</time>
      </trkpt>
      <trkpt lat="38.72241" lon="15.12425">
        <ele>4.46</ele>
        <time>2018-04-18T06:02:09Z</time>
      </trkpt>
      <trkpt lat="38.72233" lon="15.1241">
        <ele>6.39</ele>
        <time>2018-04-18T06:02:24Z</time>
      </trkpt>
      <trkpt lat="38.72229" lon="15.12398">
        <ele>7.35</ele>
        <time>2018-04-18T06:02:35Z</time>
      </trkpt>
      <trkpt lat="38.72224" lon="15.1239">
        <ele>8.31</ele>
        <time>2018-04-18T06:02:43Z</time>
      </trkpt>
      <trkpt lat="38.72222" lon="15.12385">
        <ele>8.31</ele>
        <time>2018-04-18T06:02:48Z</time>
      </trkpt>
      <trkpt lat="38.72221" lon="15.12379">
        <ele>8.31</ele>
        <time>2018-04-18T06:02:54Z</time>
      </trkpt>
      <trkpt lat="38.72214" lon="15.12364">
        <ele>6.87</ele>
        <time>2018-04-18T06:03:10Z</time>
      </trkpt>
      <trkpt lat="38.72207" lon="15.1235">
        <ele>3.98</ele>
        <time>2018-04-18T06:03:25Z</time>
      </trkpt>
      <trkpt lat="38.72201" lon="15.12336">
        <ele>3.02</ele>
        <time>2018-04-18T06:03:41Z</time>
      </trkpt>
      <trkpt lat="38.72194" lon="15.12321">
        <ele>1.1</ele>
        <time>2018-04-18T06:03:58Z</time>
      </trkpt>
      <trkpt lat="38.72186" lon="15.12307">
        <ele>1.1</ele>
        <time>2018-04-18T06:04:14Z</time>
      </trkpt>
      <trkpt lat="38.72175" lon="15.12293">
        <ele>2.06</ele>
        <time>2018-04-18T06:04:34Z</time>
      </trkpt>
      <trkpt lat="38.72173" lon="15.12292">
        <ele>2.06</ele>
        <time>2018-04-18T06:04:36Z</time>
      </trkpt>
      <trkpt lat="38.72172" lon="15.1229">
        <ele>2.06</ele>
        <time>2018-04-18T06:04:38Z</time>
      </trkpt>
      <trkpt lat="38.7217" lon="15.12288">
        <ele>2.54</ele>
        <time>2018-04-18T06:04:41Z</time>
      </trkpt>
      <trkpt lat="38.72157" lon="15.12274">
        <ele>3.02</ele>
        <time>2018-04-18T06:04:56Z</time>
      </trkpt>
      <trkpt lat="38.72154" lon="15.1227">
        <ele>3.02</ele>
        <time>2018-04-18T06:05:00Z</time>
      </trkpt>
      <trkpt lat="38.72151" lon="15.12264">
        <ele>3.98</ele>
        <time>2018-04-18T06:05:05Z</time>
      </trkpt>
      <trkpt lat="38.7214" lon="15.12244">
        <ele>3.98</ele>
        <time>2018-04-18T06:05:22Z</time>
      </trkpt>
      <trkpt lat="38.72128" lon="15.12217">
        <ele>3.98</ele>
        <time>2018-04-18T06:05:40Z</time>
      </trkpt>
      <trkpt lat="38.72104" lon="15.12172">
        <ele>4.94</ele>
        <time>2018-04-18T06:06:00Z</time>
      </trkpt>
      <trkpt lat="38.72077" lon="15.12124">
        <ele>4.46</ele>
        <time>2018-04-18T06:06:18Z</time>
      </trkpt>
      <trkpt lat="38.72048" lon="15.12072">
        <ele>3.98</ele>
        <time>2018-04-18T06:06:36Z</time>
      </trkpt>
      <trkpt lat="38.72016" lon="15.12016">
        <ele>3.98</ele>
        <time>2018-04-18T06:06:54Z</time>
      </trkpt>
      <trkpt lat="38.71993" lon="15.11957">
        <ele>3.5</ele>
        <time>2018-04-18T06:07:11Z</time>
      </trkpt>
      <trkpt lat="38.71981" lon="15.11897">
        <ele>3.98</ele>
        <time>2018-04-18T06:07:27Z</time>
      </trkpt>
      <trkpt lat="38.71966" lon="15.1183">
        <ele>3.5</ele>
        <time>2018-04-18T06:07:45Z</time>
      </trkpt>
      <trkpt lat="38.7195" lon="15.11771">
        <ele>3.98</ele>
        <time>2018-04-18T06:08:01Z</time>
      </trkpt>
      <trkpt lat="38.7193" lon="15.11697">
        <ele>3.5</ele>
        <time>2018-04-18T06:08:21Z</time>
      </trkpt>
      <trkpt lat="38.71912" lon="15.11631">
        <ele>3.02</ele>
        <time>2018-04-18T06:08:39Z</time>
      </trkpt>
      <trkpt lat="38.71896" lon="15.11572">
        <ele>3.02</ele>
        <time>2018-04-18T06:08:55Z</time>
      </trkpt>
      <trkpt lat="38.71878" lon="15.11506">
        <ele>3.02</ele>
        <time>2018-04-18T06:09:13Z</time>
      </trkpt>
      <trkpt lat="38.7186" lon="15.11439">
        <ele>3.5</ele>
        <time>2018-04-18T06:09:31Z</time>
      </trkpt>
      <trkpt lat="38.71843" lon="15.11376">
        <ele>3.98</ele>
        <time>2018-04-18T06:09:48Z</time>
      </trkpt>
      <trkpt lat="38.71825" lon="15.11314">
        <ele>3.02</ele>
        <time>2018-04-18T06:10:05Z</time>
      </trkpt>
      <trkpt lat="38.71809" lon="15.11256">
        <ele>3.5</ele>
        <time>2018-04-18T06:10:21Z</time>
      </trkpt>
      <trkpt lat="38.71785" lon="15.11174">
        <ele>3.5</ele>
        <time>2018-04-18T06:10:43Z</time>
      </trkpt>
      <trkpt lat="38.71767" lon="15.11108">
        <ele>3.5</ele>
        <time>2018-04-18T06:11:01Z</time>
      </trkpt>
      <trkpt lat="38.71749" lon="15.11045">
        <ele>3.98</ele>
        <time>2018-04-18T06:11:18Z</time>
      </trkpt>
      <trkpt lat="38.71727" lon="15.10967">
        <ele>4.94</ele>
        <time>2018-04-18T06:11:39Z</time>
      </trkpt>
      <trkpt lat="38.71705" lon="15.10885">
        <ele>4.94</ele>
        <time>2018-04-18T06:12:01Z</time>
      </trkpt>
      <trkpt lat="38.71683" lon="15.10804">
        <ele>5.42</ele>
        <time>2018-04-18T06:12:23Z</time>
      </trkpt>
      <trkpt lat="38.71669" lon="15.10753">
        <ele>5.42</ele>
        <time>2018-04-18T06:12:37Z</time>
      </trkpt>
      <trkpt lat="38.71653" lon="15.10696">
        <ele>5.91</ele>
        <time>2018-04-18T06:12:52Z</time>
      </trkpt>
      <trkpt lat="38.7164" lon="15.10645">
        <ele>3.98</ele>
        <time>2018-04-18T06:13:06Z</time>
      </trkpt>
      <trkpt lat="38.71623" lon="15.10582">
        <ele>4.46</ele>
        <time>2018-04-18T06:13:23Z</time>
      </trkpt>
      <trkpt lat="38.71607" lon="15.1052">
        <ele>2.54</ele>
        <time>2018-04-18T06:13:40Z</time>
      </trkpt>
      <trkpt lat="38.7159" lon="15.10453">
        <ele>3.02</ele>
        <time>2018-04-18T06:13:58Z</time>
      </trkpt>
      <trkpt lat="38.7157" lon="15.10382">
        <ele>3.5</ele>
        <time>2018-04-18T06:14:17Z</time>
      </trkpt>
      <trkpt lat="38.7155" lon="15.10307">
        <ele>4.94</ele>
        <time>2018-04-18T06:14:37Z</time>
      </trkpt>
      <trkpt lat="38.71528" lon="15.10225">
        <ele>5.42</ele>
        <time>2018-04-18T06:14:59Z</time>
      </trkpt>
      <trkpt lat="38.71513" lon="15.10168">
        <ele>5.42</ele>
        <time>2018-04-18T06:15:14Z</time>
      </trkpt>
      <trkpt lat="38.71496" lon="15.10104">
        <ele>5.91</ele>
        <time>2018-04-18T06:15:31Z</time>
      </trkpt>
      <trkpt lat="38.71479" lon="15.10041">
        <ele>5.91</ele>
        <time>2018-04-18T06:15:48Z</time>
      </trkpt>
      <trkpt lat="38.71459" lon="15.09966">
        <ele>6.39</ele>
        <time>2018-04-18T06:16:08Z</time>
      </trkpt>
      <trkpt lat="38.71441" lon="15.09895">
        <ele>5.91</ele>
        <time>2018-04-18T06:16:27Z</time>
      </trkpt>
      <trkpt lat="38.71422" lon="15.09824">
        <ele>5.42</ele>
        <time>2018-04-18T06:16:46Z</time>
      </trkpt>
      <trkpt lat="38.71405" lon="15.09756">
        <ele>5.91</ele>
        <time>2018-04-18T06:17:04Z</time>
      </trkpt>
      <trkpt lat="38.71391" lon="15.09704">
        <ele>5.42</ele>
        <time>2018-04-18T06:17:18Z</time>
      </trkpt>
      <trkpt lat="38.71377" lon="15.09649">
        <ele>4.46</ele>
        <time>2018-04-18T06:17:33Z</time>
      </trkpt>
      <trkpt lat="38.71361" lon="15.09586">
        <ele>5.42</ele>
        <time>2018-04-18T06:17:50Z</time>
      </trkpt>
      <trkpt lat="38.71345" lon="15.09526">
        <ele>5.91</ele>
        <time>2018-04-18T06:18:06Z</time>
      </trkpt>
      <trkpt lat="38.7133" lon="15.09466">
        <ele>5.42</ele>
        <time>2018-04-18T06:18:22Z</time>
      </trkpt>
      <trkpt lat="38.71309" lon="15.09384">
        <ele>5.91</ele>
        <time>2018-04-18T06:18:44Z</time>
      </trkpt>
      <trkpt lat="38.71294" lon="15.09329">
        <ele>5.42</ele>
        <time>2018-04-18T06:18:59Z</time>
      </trkpt>
      <trkpt lat="38.71279" lon="15.09271">
        <ele>6.39</ele>
        <time>2018-04-18T06:19:15Z</time>
      </trkpt>
      <trkpt lat="38.71268" lon="15.09225">
        <ele>2.54</ele>
        <time>2018-04-18T06:19:28Z</time>
      </trkpt>
      <trkpt lat="38.71252" lon="15.09163">
        <ele>1.58</ele>
        <time>2018-04-18T06:19:45Z</time>
      </trkpt>
      <trkpt lat="38.71235" lon="15.09101">
        <ele>3.98</ele>
        <time>2018-04-18T06:20:02Z</time>
      </trkpt>
      <trkpt lat="38.71223" lon="15.09052">
        <ele>2.06</ele>
        <time>2018-04-18T06:20:14Z</time>
      </trkpt>
      <trkpt lat="38.71208" lon="15.08998">
        <ele>0.62</ele>
        <time>2018-04-18T06:20:29Z</time>
      </trkpt>
      <trkpt lat="38.71193" lon="15.08945">
        <ele>1.1</ele>
        <time>2018-04-18T06:20:44Z</time>
      </trkpt>
      <trkpt lat="38.71184" lon="15.08903">
        <ele>2.54</ele>
        <time>2018-04-18T06:20:56Z</time>
      </trkpt>
      <trkpt lat="38.71169" lon="15.08843">
        <ele>4.94</ele>
        <time>2018-04-18T06:21:12Z</time>
      </trkpt>
      <trkpt lat="38.71156" lon="15.08789">
        <ele>4.94</ele>
        <time>2018-04-18T06:21:27Z</time>
      </trkpt>
      <trkpt lat="38.7114" lon="15.08727">
        <ele>4.94</ele>
        <time>2018-04-18T06:21:44Z</time>
      </trkpt>
      <trkpt lat="38.7112" lon="15.08646">
        <ele>4.46</ele>
        <time>2018-04-18T06:22:06Z</time>
      </trkpt>
      <trkpt lat="38.71101" lon="15.0857">
        <ele>4.94</ele>
        <time>2018-04-18T06:22:27Z</time>
      </trkpt>
      <trkpt lat="38.71084" lon="15.08508">
        <ele>4.94</ele>
        <time>2018-04-18T06:22:44Z</time>
      </trkpt>
      <trkpt lat="38.71067" lon="15.08439">
        <ele>5.42</ele>
        <time>2018-04-18T06:23:03Z</time>
      </trkpt>
      <trkpt lat="38.71048" lon="15.08367">
        <ele>4.94</ele>
        <time>2018-04-18T06:23:23Z</time>
      </trkpt>
      <trkpt lat="38.71023" lon="15.08273">
        <ele>4.46</ele>
        <time>2018-04-18T06:23:49Z</time>
      </trkpt>
      <trkpt lat="38.71001" lon="15.08186">
        <ele>4.46</ele>
        <time>2018-04-18T06:24:13Z</time>
      </trkpt>
      <trkpt lat="38.70984" lon="15.08117">
        <ele>4.94</ele>
        <time>2018-04-18T06:24:32Z</time>
      </trkpt>
      <trkpt lat="38.70967" lon="15.08051">
        <ele>4.94</ele>
        <time>2018-04-18T06:24:50Z</time>
      </trkpt>
      <trkpt lat="38.70951" lon="15.0799">
        <ele>4.94</ele>
        <time>2018-04-18T06:25:07Z</time>
      </trkpt>
      <trkpt lat="38.70937" lon="15.07931">
        <ele>4.94</ele>
        <time>2018-04-18T06:25:23Z</time>
      </trkpt>
      <trkpt lat="38.7092" lon="15.07866">
        <ele>5.42</ele>
        <time>2018-04-18T06:25:41Z</time>
      </trkpt>
      <trkpt lat="38.70904" lon="15.07804">
        <ele>5.42</ele>
        <time>2018-04-18T06:25:58Z</time>
      </trkpt>
      <trkpt lat="38.70885" lon="15.07732">
        <ele>4.94</ele>
        <time>2018-04-18T06:26:18Z</time>
      </trkpt>
      <trkpt lat="38.70867" lon="15.0766">
        <ele>4.94</ele>
        <time>2018-04-18T06:26:38Z</time>
      </trkpt>
      <trkpt lat="38.70852" lon="15.07602">
        <ele>5.91</ele>
        <time>2018-04-18T06:26:54Z</time>
      </trkpt>
      <trkpt lat="38.70832" lon="15.07524">
        <ele>6.39</ele>
        <time>2018-04-18T06:27:15Z</time>
      </trkpt>
      <trkpt lat="38.70815" lon="15.07455">
        <ele>7.35</ele>
        <time>2018-04-18T06:27:34Z</time>
      </trkpt>
      <trkpt lat="38.708" lon="15.07396">
        <ele>7.35</ele>
        <time>2018-04-18T06:27:50Z</time>
      </trkpt>
      <trkpt lat="38.70779" lon="15.07316">
        <ele>7.83</ele>
        <time>2018-04-18T06:28:12Z</time>
      </trkpt>
      <trkpt lat="38.70765" lon="15.07259">
        <ele>8.31</ele>
        <time>2018-04-18T06:28:28Z</time>
      </trkpt>
      <trkpt lat="38.70754" lon="15.07215">
        <ele>8.79</ele>
        <time>2018-04-18T06:28:39Z</time>
      </trkpt>
      <trkpt lat="38.7074" lon="15.07159">
        <ele>6.39</ele>
        <time>2018-04-18T06:28:54Z</time>
      </trkpt>
      <trkpt lat="38.70725" lon="15.07101">
        <ele>5.42</ele>
        <time>2018-04-18T06:29:10Z</time>
      </trkpt>
      <trkpt lat="38.70709" lon="15.07031">
        <ele>5.42</ele>
        <time>2018-04-18T06:29:29Z</time>
      </trkpt>
      <trkpt lat="38.70697" lon="15.06986">
        <ele>5.42</ele>
        <time>2018-04-18T06:29:42Z</time>
      </trkpt>
      <trkpt lat="38.70682" lon="15.06928">
        <ele>4.46</ele>
        <time>2018-04-18T06:29:58Z</time>
      </trkpt>
      <trkpt lat="38.70671" lon="15.06883">
        <ele>4.46</ele>
        <time>2018-04-18T06:30:11Z</time>
      </trkpt>
      <trkpt lat="38.70654" lon="15.06814">
        <ele>3.98</ele>
        <time>2018-04-18T06:30:30Z</time>
      </trkpt>
      <trkpt lat="38.70639" lon="15.06748">
        <ele>4.46</ele>
        <time>2018-04-18T06:30:48Z</time>
      </trkpt>
      <trkpt lat="38.7062" lon="15.06677">
        <ele>3.98</ele>
        <time>2018-04-18T06:31:08Z</time>
      </trkpt>
      <trkpt lat="38.70607" lon="15.06621">
        <ele>3.5</ele>
        <time>2018-04-18T06:31:23Z</time>
      </trkpt>
      <trkpt lat="38.70587" lon="15.06538">
        <ele>3.98</ele>
        <time>2018-04-18T06:31:46Z</time>
      </trkpt>
      <trkpt lat="38.70567" lon="15.06462">
        <ele>4.46</ele>
        <time>2018-04-18T06:32:07Z</time>
      </trkpt>
      <trkpt lat="38.70549" lon="15.06389">
        <ele>3.98</ele>
        <time>2018-04-18T06:32:27Z</time>
      </trkpt>
      <trkpt lat="38.70531" lon="15.06318">
        <ele>3.98</ele>
        <time>2018-04-18T06:32:46Z</time>
      </trkpt>
      <trkpt lat="38.70514" lon="15.06253">
        <ele>3.02</ele>
        <time>2018-04-18T06:33:04Z</time>
      </trkpt>
      <trkpt lat="38.70495" lon="15.06184">
        <ele>3.02</ele>
        <time>2018-04-18T06:33:23Z</time>
      </trkpt>
      <trkpt lat="38.70471" lon="15.0609">
        <ele>1.58</ele>
        <time>2018-04-18T06:33:49Z</time>
      </trkpt>
      <trkpt lat="38.70453" lon="15.06021">
        <ele>1.58</ele>
        <time>2018-04-18T06:34:08Z</time>
      </trkpt>
      <trkpt lat="38.70435" lon="15.05951">
        <ele>3.02</ele>
        <time>2018-04-18T06:34:27Z</time>
      </trkpt>
      <trkpt lat="38.70414" lon="15.05875">
        <ele>4.46</ele>
        <time>2018-04-18T06:34:48Z</time>
      </trkpt>
      <trkpt lat="38.70392" lon="15.05792">
        <ele>4.46</ele>
        <time>2018-04-18T06:35:11Z</time>
      </trkpt>
      <trkpt lat="38.70376" lon="15.05726">
        <ele>4.94</ele>
        <time>2018-04-18T06:35:29Z</time>
      </trkpt>
      <trkpt lat="38.70357" lon="15.05649">
        <ele>4.46</ele>
        <time>2018-04-18T06:35:50Z</time>
      </trkpt>
      <trkpt lat="38.70339" lon="15.05579">
        <ele>3.98</ele>
        <time>2018-04-18T06:36:09Z</time>
      </trkpt>
      <trkpt lat="38.70322" lon="15.05513">
        <ele>3.98</ele>
        <time>2018-04-18T06:36:27Z</time>
      </trkpt>
      <trkpt lat="38.70303" lon="15.05444">
        <ele>3.98</ele>
        <time>2018-04-18T06:36:46Z</time>
      </trkpt>
      <trkpt lat="38.70283" lon="15.05363">
        <ele>2.54</ele>
        <time>2018-04-18T06:37:08Z</time>
      </trkpt>
      <trkpt lat="38.70263" lon="15.05289">
        <ele>1.1</ele>
        <time>2018-04-18T06:37:28Z</time>
      </trkpt>
      <trkpt lat="38.70243" lon="15.05211">
        <ele>1.1</ele>
        <time>2018-04-18T06:37:49Z</time>
      </trkpt>
      <trkpt lat="38.7022" lon="15.05127">
        <ele>1.58</ele>
        <time>2018-04-18T06:38:12Z</time>
      </trkpt>
      <trkpt lat="38.70199" lon="15.05051">
        <ele>2.06</ele>
        <time>2018-04-18T06:38:33Z</time>
      </trkpt>
      <trkpt lat="38.70186" lon="15.04997">
        <ele>2.54</ele>
        <time>2018-04-18T06:38:48Z</time>
      </trkpt>
      <trkpt lat="38.7017" lon="15.04941">
        <ele>3.5</ele>
        <time>2018-04-18T06:39:03Z</time>
      </trkpt>
      <trkpt lat="38.70155" lon="15.04883">
        <ele>2.54</ele>
        <time>2018-04-18T06:39:18Z</time>
      </trkpt>
      <trkpt lat="38.7014" lon="15.04828">
        <ele>1.58</ele>
        <time>2018-04-18T06:39:33Z</time>
      </trkpt>
      <trkpt lat="38.70128" lon="15.04782">
        <ele>2.06</ele>
        <time>2018-04-18T06:39:46Z</time>
      </trkpt>
      <trkpt lat="38.70112" lon="15.04723">
        <ele>3.02</ele>
        <time>2018-04-18T06:40:03Z</time>
      </trkpt>
      <trkpt lat="38.70099" lon="15.04677">
        <ele>3.02</ele>
        <time>2018-04-18T06:40:16Z</time>
      </trkpt>
      <trkpt lat="38.7008" lon="15.04609">
        <ele>3.02</ele>
        <time>2018-04-18T06:40:35Z</time>
      </trkpt>
      <trkpt lat="38.70066" lon="15.04555">
        <ele>3.02</ele>
        <time>2018-04-18T06:40:50Z</time>
      </trkpt>
      <trkpt lat="38.70048" lon="15.04492">
        <ele>3.98</ele>
        <time>2018-04-18T06:41:08Z</time>
      </trkpt>
      <trkpt lat="38.70032" lon="15.04435">
        <ele>4.46</ele>
        <time>2018-04-18T06:41:24Z</time>
      </trkpt>
      <trkpt lat="38.70016" lon="15.04371">
        <ele>4.94</ele>
        <time>2018-04-18T06:41:42Z</time>
      </trkpt>
      <trkpt lat="38.69996" lon="15.04297">
        <ele>4.94</ele>
        <time>2018-04-18T06:42:03Z</time>
      </trkpt>
      <trkpt lat="38.69981" lon="15.0424">
        <ele>5.42</ele>
        <time>2018-04-18T06:42:19Z</time>
      </trkpt>
      <trkpt lat="38.69964" lon="15.04175">
        <ele>5.42</ele>
        <time>2018-04-18T06:42:37Z</time>
      </trkpt>
      <trkpt lat="38.6995" lon="15.04121">
        <ele>5.42</ele>
        <time>2018-04-18T06:42:52Z</time>
      </trkpt>
      <trkpt lat="38.69934" lon="15.04063">
        <ele>4.46</ele>
        <time>2018-04-18T06:43:08Z</time>
      </trkpt>
      <trkpt lat="38.69921" lon="15.04014">
        <ele>4.94</ele>
        <time>2018-04-18T06:43:22Z</time>
      </trkpt>
      <trkpt lat="38.69903" lon="15.03946">
        <ele>3.98</ele>
        <time>2018-04-18T06:43:41Z</time>
      </trkpt>
      <trkpt lat="38.69885" lon="15.0388">
        <ele>3.98</ele>
        <time>2018-04-18T06:43:59Z</time>
      </trkpt>
      <trkpt lat="38.69869" lon="15.03823">
        <ele>3.98</ele>
        <time>2018-04-18T06:44:15Z</time>
      </trkpt>
      <trkpt lat="38.69852" lon="15.03755">
        <ele>4.46</ele>
        <time>2018-04-18T06:44:34Z</time>
      </trkpt>
      <trkpt lat="38.69837" lon="15.03698">
        <ele>4.94</ele>
        <time>2018-04-18T06:44:50Z</time>
      </trkpt>
      <trkpt lat="38.69821" lon="15.0364">
        <ele>3.5</ele>
        <time>2018-04-18T06:45:06Z</time>
      </trkpt>
      <trkpt lat="38.69804" lon="15.03576">
        <ele>3.02</ele>
        <time>2018-04-18T06:45:24Z</time>
      </trkpt>
      <trkpt lat="38.69787" lon="15.03513">
        <ele>3.5</ele>
        <time>2018-04-18T06:45:42Z</time>
      </trkpt>
      <trkpt lat="38.69766" lon="15.03439">
        <ele>3.5</ele>
        <time>2018-04-18T06:46:03Z</time>
      </trkpt>
      <trkpt lat="38.69749" lon="15.03372">
        <ele>3.98</ele>
        <time>2018-04-18T06:46:22Z</time>
      </trkpt>
      <trkpt lat="38.69729" lon="15.03297">
        <ele>4.46</ele>
        <time>2018-04-18T06:46:43Z</time>
      </trkpt>
      <trkpt lat="38.6971" lon="15.03226">
        <ele>5.42</ele>
        <time>2018-04-18T06:47:03Z</time>
      </trkpt>
      <trkpt lat="38.69691" lon="15.03154">
        <ele>5.42</ele>
        <time>2018-04-18T06:47:23Z</time>
      </trkpt>
      <trkpt lat="38.69672" lon="15.03083">
        <ele>4.94</ele>
        <time>2018-04-18T06:47:43Z</time>
      </trkpt>
      <trkpt lat="38.69655" lon="15.03015">
        <ele>5.42</ele>
        <time>2018-04-18T06:48:02Z</time>
      </trkpt>
      <trkpt lat="38.69642" lon="15.02965">
        <ele>4.46</ele>
        <time>2018-04-18T06:48:16Z</time>
      </trkpt>
      <trkpt lat="38.69626" lon="15.02898">
        <ele>5.91</ele>
        <time>2018-04-18T06:48:35Z</time>
      </trkpt>
      <trkpt lat="38.69612" lon="15.02841">
        <ele>5.91</ele>
        <time>2018-04-18T06:48:51Z</time>
      </trkpt>
      <trkpt lat="38.69598" lon="15.02784">
        <ele>6.39</ele>
        <time>2018-04-18T06:49:07Z</time>
      </trkpt>
      <trkpt lat="38.69581" lon="15.0272">
        <ele>5.42</ele>
        <time>2018-04-18T06:49:25Z</time>
      </trkpt>
      <trkpt lat="38.69563" lon="15.02651">
        <ele>4.46</ele>
        <time>2018-04-18T06:49:44Z</time>
      </trkpt>
      <trkpt lat="38.69552" lon="15.02597">
        <ele>3.5</ele>
        <time>2018-04-18T06:49:59Z</time>
      </trkpt>
      <trkpt lat="38.69537" lon="15.02537">
        <ele>3.98</ele>
        <time>2018-04-18T06:50:16Z</time>
      </trkpt>
      <trkpt lat="38.69519" lon="15.02473">
        <ele>3.98</ele>
        <time>2018-04-18T06:50:34Z</time>
      </trkpt>
      <trkpt lat="38.69508" lon="15.02433">
        <ele>3.5</ele>
        <time>2018-04-18T06:50:45Z</time>
      </trkpt>
      <trkpt lat="38.69491" lon="15.02365">
        <ele>2.54</ele>
        <time>2018-04-18T06:51:04Z</time>
      </trkpt>
      <trkpt lat="38.69477" lon="15.02311">
        <ele>3.5</ele>
        <time>2018-04-18T06:51:19Z</time>
      </trkpt>
      <trkpt lat="38.69461" lon="15.02247">
        <ele>3.02</ele>
        <time>2018-04-18T06:51:37Z</time>
      </trkpt>
      <trkpt lat="38.69448" lon="15.02192">
        <ele>3.98</ele>
        <time>2018-04-18T06:51:53Z</time>
      </trkpt>
      <trkpt lat="38.69431" lon="15.02124">
        <ele>3.5</ele>
        <time>2018-04-18T06:52:12Z</time>
      </trkpt>
      <trkpt lat="38.69414" lon="15.02057">
        <ele>3.02</ele>
        <time>2018-04-18T06:52:31Z</time>
      </trkpt>
      <trkpt lat="38.69398" lon="15.01992">
        <ele>3.02</ele>
        <time>2018-04-18T06:52:49Z</time>
      </trkpt>
      <trkpt lat="38.69386" lon="15.01946">
        <ele>3.5</ele>
        <time>2018-04-18T06:53:02Z</time>
      </trkpt>
      <trkpt lat="38.69372" lon="15.01885">
        <ele>3.5</ele>
        <time>2018-04-18T06:53:19Z</time>
      </trkpt>
      <trkpt lat="38.69357" lon="15.01824">
        <ele>3.5</ele>
        <time>2018-04-18T06:53:36Z</time>
      </trkpt>
      <trkpt lat="38.69345" lon="15.01776">
        <ele>3.02</ele>
        <time>2018-04-18T06:53:49Z</time>
      </trkpt>
      <trkpt lat="38.69328" lon="15.01712">
        <ele>3.98</ele>
        <time>2018-04-18T06:54:07Z</time>
      </trkpt>
      <trkpt lat="38.69315" lon="15.01659">
        <ele>3.02</ele>
        <time>2018-04-18T06:54:22Z</time>
      </trkpt>
      <trkpt lat="38.69293" lon="15.01577">
        <ele>3.5</ele>
        <time>2018-04-18T06:54:45Z</time>
      </trkpt>
      <trkpt lat="38.69271" lon="15.015">
        <ele>3.5</ele>
        <time>2018-04-18T06:55:07Z</time>
      </trkpt>
      <trkpt lat="38.69253" lon="15.01436">
        <ele>2.06</ele>
        <time>2018-04-18T06:55:25Z</time>
      </trkpt>
      <trkpt lat="38.69237" lon="15.01379">
        <ele>2.54</ele>
        <time>2018-04-18T06:55:41Z</time>
      </trkpt>
      <trkpt lat="38.69224" lon="15.01329">
        <ele>2.06</ele>
        <time>2018-04-18T06:55:55Z</time>
      </trkpt>
      <trkpt lat="38.69206" lon="15.0126">
        <ele>1.58</ele>
        <time>2018-04-18T06:56:14Z</time>
      </trkpt>
      <trkpt lat="38.69189" lon="15.01199">
        <ele>2.54</ele>
        <time>2018-04-18T06:56:31Z</time>
      </trkpt>
      <trkpt lat="38.69172" lon="15.01135">
        <ele>2.54</ele>
        <time>2018-04-18T06:56:49Z</time>
      </trkpt>
      <trkpt lat="38.69159" lon="15.01084">
        <ele>3.5</ele>
        <time>2018-04-18T06:57:03Z</time>
      </trkpt>
      <trkpt lat="38.69141" lon="15.01016">
        <ele>3.5</ele>
        <time>2018-04-18T06:57:22Z</time>
      </trkpt>
      <trkpt lat="38.69122" lon="15.00945">
        <ele>3.98</ele>
        <time>2018-04-18T06:57:42Z</time>
      </trkpt>
      <trkpt lat="38.69104" lon="15.00878">
        <ele>3.98</ele>
        <time>2018-04-18T06:58:01Z</time>
      </trkpt>
      <trkpt lat="38.69086" lon="15.00811">
        <ele>3.5</ele>
        <time>2018-04-18T06:58:20Z</time>
      </trkpt>
      <trkpt lat="38.69069" lon="15.00748">
        <ele>3.98</ele>
        <time>2018-04-18T06:58:38Z</time>
      </trkpt>
      <trkpt lat="38.69052" lon="15.00687">
        <ele>3.02</ele>
        <time>2018-04-18T06:58:55Z</time>
      </trkpt>
      <trkpt lat="38.69036" lon="15.00627">
        <ele>3.5</ele>
        <time>2018-04-18T06:59:12Z</time>
      </trkpt>
      <trkpt lat="38.6902" lon="15.00566">
        <ele>3.5</ele>
        <time>2018-04-18T06:59:29Z</time>
      </trkpt>
      <trkpt lat="38.69001" lon="15.00499">
        <ele>3.02</ele>
        <time>2018-04-18T06:59:48Z</time>
      </trkpt>
      <trkpt lat="38.68984" lon="15.00435">
        <ele>3.02</ele>
        <time>2018-04-18T07:00:06Z</time>
      </trkpt>
      <trkpt lat="38.68968" lon="15.00375">
        <ele>3.98</ele>
        <time>2018-04-18T07:00:23Z</time>
      </trkpt>
      <trkpt lat="38.6895" lon="15.00313">
        <ele>3.02</ele>
        <time>2018-04-18T07:00:40Z</time>
      </trkpt>
      <trkpt lat="38.68937" lon="15.00264">
        <ele>3.02</ele>
        <time>2018-04-18T07:00:54Z</time>
      </trkpt>
      <trkpt lat="38.68925" lon="15.00218">
        <ele>3.02</ele>
        <time>2018-04-18T07:01:07Z</time>
      </trkpt>
      <trkpt lat="38.68911" lon="15.00164">
        <ele>3.5</ele>
        <time>2018-04-18T07:01:22Z</time>
      </trkpt>
      <trkpt lat="38.68911" lon="15.00118">
        <ele>3.5</ele>
        <time>2018-04-18T07:01:35Z</time>
      </trkpt>
      <trkpt lat="38.68922" lon="15.00068">
        <ele>3.98</ele>
        <time>2018-04-18T07:01:49Z</time>
      </trkpt>
      <trkpt lat="38.68945" lon="15.00012">
        <ele>3.98</ele>
        <time>2018-04-18T07:02:06Z</time>
      </trkpt>
      <trkpt lat="38.68964" lon="14.99953">
        <ele>4.94</ele>
        <time>2018-04-18T07:02:23Z</time>
      </trkpt>
      <trkpt lat="38.68957" lon="14.99907">
        <ele>4.46</ele>
        <time>2018-04-18T07:02:36Z</time>
      </trkpt>
      <trkpt lat="38.68944" lon="14.99847">
        <ele>4.46</ele>
        <time>2018-04-18T07:02:53Z</time>
      </trkpt>
      <trkpt lat="38.6894" lon="14.99829">
        <ele>4.46</ele>
        <time>2018-04-18T07:02:58Z</time>
      </trkpt>
      <trkpt lat="38.68934" lon="14.99805">
        <ele>3.5</ele>
        <time>2018-04-18T07:03:04Z</time>
      </trkpt>
      <trkpt lat="38.6893" lon="14.99761">
        <ele>3.98</ele>
        <time>2018-04-18T07:03:15Z</time>
      </trkpt>
      <trkpt lat="38.68924" lon="14.99706">
        <ele>2.54</ele>
        <time>2018-04-18T07:03:31Z</time>
      </trkpt>
      <trkpt lat="38.68919" lon="14.99666">
        <ele>3.5</ele>
        <time>2018-04-18T07:03:42Z</time>
      </trkpt>
      <trkpt lat="38.68908" lon="14.99605">
        <ele>3.5</ele>
        <time>2018-04-18T07:03:59Z</time>
      </trkpt>
      <trkpt lat="38.68895" lon="14.99547">
        <ele>3.5</ele>
        <time>2018-04-18T07:04:15Z</time>
      </trkpt>
      <trkpt lat="38.68887" lon="14.99494">
        <ele>3.98</ele>
        <time>2018-04-18T07:04:30Z</time>
      </trkpt>
      <trkpt lat="38.68866" lon="14.99411">
        <ele>4.94</ele>
        <time>2018-04-18T07:04:54Z</time>
      </trkpt>
      <trkpt lat="38.68847" lon="14.99343">
        <ele>4.94</ele>
        <time>2018-04-18T07:05:14Z</time>
      </trkpt>
      <trkpt lat="38.68831" lon="14.9929">
        <ele>4.46</ele>
        <time>2018-04-18T07:05:29Z</time>
      </trkpt>
      <trkpt lat="38.68819" lon="14.99244">
        <ele>3.5</ele>
        <time>2018-04-18T07:05:42Z</time>
      </trkpt>
      <trkpt lat="38.68806" lon="14.99196">
        <ele>3.5</ele>
        <time>2018-04-18T07:05:56Z</time>
      </trkpt>
      <trkpt lat="38.6879" lon="14.99134">
        <ele>3.5</ele>
        <time>2018-04-18T07:06:14Z</time>
      </trkpt>
      <trkpt lat="38.68776" lon="14.99086">
        <ele>3.02</ele>
        <time>2018-04-18T07:06:28Z</time>
      </trkpt>
      <trkpt lat="38.68758" lon="14.9902">
        <ele>2.06</ele>
        <time>2018-04-18T07:06:47Z</time>
      </trkpt>
      <trkpt lat="38.68738" lon="14.98948">
        <ele>2.06</ele>
        <time>2018-04-18T07:07:08Z</time>
      </trkpt>
      <trkpt lat="38.6872" lon="14.98886">
        <ele>2.06</ele>
        <time>2018-04-18T07:07:26Z</time>
      </trkpt>
      <trkpt lat="38.68701" lon="14.98818">
        <ele>2.54</ele>
        <time>2018-04-18T07:07:46Z</time>
      </trkpt>
      <trkpt lat="38.68683" lon="14.98754">
        <ele>2.54</ele>
        <time>2018-04-18T07:08:05Z</time>
      </trkpt>
      <trkpt lat="38.68667" lon="14.98698">
        <ele>2.54</ele>
        <time>2018-04-18T07:08:21Z</time>
      </trkpt>
      <trkpt lat="38.6865" lon="14.98637">
        <ele>2.54</ele>
        <time>2018-04-18T07:08:39Z</time>
      </trkpt>
      <trkpt lat="38.68629" lon="14.98566">
        <ele>2.54</ele>
        <time>2018-04-18T07:09:00Z</time>
      </trkpt>
      <trkpt lat="38.68612" lon="14.98507">
        <ele>2.06</ele>
        <time>2018-04-18T07:09:17Z</time>
      </trkpt>
      <trkpt lat="38.68594" lon="14.98448">
        <ele>1.1</ele>
        <time>2018-04-18T07:09:34Z</time>
      </trkpt>
      <trkpt lat="38.68581" lon="14.98397">
        <ele>2.54</ele>
        <time>2018-04-18T07:09:49Z</time>
      </trkpt>
      <trkpt lat="38.68563" lon="14.98338">
        <ele>3.5</ele>
        <time>2018-04-18T07:10:06Z</time>
      </trkpt>
      <trkpt lat="38.68544" lon="14.98272">
        <ele>4.46</ele>
        <time>2018-04-18T07:10:25Z</time>
      </trkpt>
      <trkpt lat="38.6853" lon="14.98224">
        <ele>3.5</ele>
        <time>2018-04-18T07:10:39Z</time>
      </trkpt>
      <trkpt lat="38.68516" lon="14.98169">
        <ele>3.5</ele>
        <time>2018-04-18T07:10:55Z</time>
      </trkpt>
      <trkpt lat="38.68504" lon="14.98125">
        <ele>3.98</ele>
        <time>2018-04-18T07:11:08Z</time>
      </trkpt>
      <trkpt lat="38.68486" lon="14.98062">
        <ele>3.5</ele>
        <time>2018-04-18T07:11:26Z</time>
      </trkpt>
      <trkpt lat="38.6847" lon="14.98003">
        <ele>3.5</ele>
        <time>2018-04-18T07:11:43Z</time>
      </trkpt>
      <trkpt lat="38.6845" lon="14.97934">
        <ele>3.02</ele>
        <time>2018-04-18T07:12:03Z</time>
      </trkpt>
      <trkpt lat="38.68432" lon="14.97864">
        <ele>2.54</ele>
        <time>2018-04-18T07:12:23Z</time>
      </trkpt>
      <trkpt lat="38.68415" lon="14.97806">
        <ele>2.06</ele>
        <time>2018-04-18T07:12:39Z</time>
      </trkpt>
      <trkpt lat="38.68399" lon="14.9775">
        <ele>1.1</ele>
        <time>2018-04-18T07:12:54Z</time>
      </trkpt>
      <trkpt lat="38.68387" lon="14.97701">
        <ele>0.14</ele>
        <time>2018-04-18T07:13:09Z</time>
      </trkpt>
      <trkpt lat="38.68367" lon="14.97629">
        <ele>2.06</ele>
        <time>2018-04-18T07:13:30Z</time>
      </trkpt>
      <trkpt lat="38.6835" lon="14.97565">
        <ele>2.06</ele>
        <time>2018-04-18T07:13:48Z</time>
      </trkpt>
      <trkpt lat="38.68329" lon="14.97484">
        <ele>2.06</ele>
        <time>2018-04-18T07:14:11Z</time>
      </trkpt>
      <trkpt lat="38.68307" lon="14.97401">
        <ele>3.02</ele>
        <time>2018-04-18T07:14:35Z</time>
      </trkpt>
      <trkpt lat="38.68287" lon="14.9732">
        <ele>3.98</ele>
        <time>2018-04-18T07:14:58Z</time>
      </trkpt>
      <trkpt lat="38.68265" lon="14.97241">
        <ele>3.02</ele>
        <time>2018-04-18T07:15:20Z</time>
      </trkpt>
      <trkpt lat="38.68245" lon="14.9717">
        <ele>2.54</ele>
        <time>2018-04-18T07:15:40Z</time>
      </trkpt>
      <trkpt lat="38.68226" lon="14.97096">
        <ele>3.02</ele>
        <time>2018-04-18T07:16:01Z</time>
      </trkpt>
      <trkpt lat="38.68205" lon="14.97024">
        <ele>3.02</ele>
        <time>2018-04-18T07:16:21Z</time>
      </trkpt>
      <trkpt lat="38.68193" lon="14.96978">
        <ele>3.98</ele>
        <time>2018-04-18T07:16:34Z</time>
      </trkpt>
      <trkpt lat="38.68173" lon="14.96904">
        <ele>3.02</ele>
        <time>2018-04-18T07:16:55Z</time>
      </trkpt>
      <trkpt lat="38.68153" lon="14.96828">
        <ele>3.5</ele>
        <time>2018-04-18T07:17:16Z</time>
      </trkpt>
      <trkpt lat="38.68135" lon="14.9676">
        <ele>3.5</ele>
        <time>2018-04-18T07:17:35Z</time>
      </trkpt>
      <trkpt lat="38.68113" lon="14.96677">
        <ele>3.98</ele>
        <time>2018-04-18T07:17:58Z</time>
      </trkpt>
      <trkpt lat="38.68093" lon="14.96605">
        <ele>3.98</ele>
        <time>2018-04-18T07:18:18Z</time>
      </trkpt>
      <trkpt lat="38.68078" lon="14.96546">
        <ele>3.5</ele>
        <time>2018-04-18T07:18:34Z</time>
      </trkpt>
      <trkpt lat="38.68063" lon="14.96488">
        <ele>3.98</ele>
        <time>2018-04-18T07:18:50Z</time>
      </trkpt>
      <trkpt lat="38.68044" lon="14.96415">
        <ele>3.98</ele>
        <time>2018-04-18T07:19:10Z</time>
      </trkpt>
      <trkpt lat="38.68021" lon="14.96331">
        <ele>3.98</ele>
        <time>2018-04-18T07:19:33Z</time>
      </trkpt>
      <trkpt lat="38.68003" lon="14.96256">
        <ele>4.46</ele>
        <time>2018-04-18T07:19:53Z</time>
      </trkpt>
      <trkpt lat="38.67983" lon="14.96179">
        <ele>3.5</ele>
        <time>2018-04-18T07:20:14Z</time>
      </trkpt>
      <trkpt lat="38.67963" lon="14.96098">
        <ele>3.5</ele>
        <time>2018-04-18T07:20:36Z</time>
      </trkpt>
      <trkpt lat="38.67947" lon="14.96031">
        <ele>3.98</ele>
        <time>2018-04-18T07:20:54Z</time>
      </trkpt>
      <trkpt lat="38.67929" lon="14.95965">
        <ele>3.98</ele>
        <time>2018-04-18T07:21:12Z</time>
      </trkpt>
      <trkpt lat="38.67912" lon="14.95899">
        <ele>3.98</ele>
        <time>2018-04-18T07:21:30Z</time>
      </trkpt>
      <trkpt lat="38.67893" lon="14.95824">
        <ele>4.94</ele>
        <time>2018-04-18T07:21:50Z</time>
      </trkpt>
      <trkpt lat="38.67874" lon="14.95754">
        <ele>4.46</ele>
        <time>2018-04-18T07:22:09Z</time>
      </trkpt>
      <trkpt lat="38.67857" lon="14.95687">
        <ele>3.98</ele>
        <time>2018-04-18T07:22:27Z</time>
      </trkpt>
      <trkpt lat="38.67836" lon="14.95605">
        <ele>3.5</ele>
        <time>2018-04-18T07:22:49Z</time>
      </trkpt>
      <trkpt lat="38.67817" lon="14.95527">
        <ele>3.5</ele>
        <time>2018-04-18T07:23:10Z</time>
      </trkpt>
      <trkpt lat="38.67797" lon="14.95452">
        <ele>3.98</ele>
        <time>2018-04-18T07:23:30Z</time>
      </trkpt>
      <trkpt lat="38.67782" lon="14.95389">
        <ele>3.98</ele>
        <time>2018-04-18T07:23:47Z</time>
      </trkpt>
      <trkpt lat="38.67765" lon="14.95322">
        <ele>4.46</ele>
        <time>2018-04-18T07:24:05Z</time>
      </trkpt>
      <trkpt lat="38.67747" lon="14.95247">
        <ele>4.46</ele>
        <time>2018-04-18T07:24:25Z</time>
      </trkpt>
      <trkpt lat="38.6773" lon="14.9518">
        <ele>3.98</ele>
        <time>2018-04-18T07:24:43Z</time>
      </trkpt>
      <trkpt lat="38.67713" lon="14.95109">
        <ele>3.98</ele>
        <time>2018-04-18T07:25:02Z</time>
      </trkpt>
      <trkpt lat="38.67695" lon="14.9503">
        <ele>4.46</ele>
        <time>2018-04-18T07:25:23Z</time>
      </trkpt>
      <trkpt lat="38.67676" lon="14.94955">
        <ele>3.98</ele>
        <time>2018-04-18T07:25:43Z</time>
      </trkpt>
      <trkpt lat="38.67657" lon="14.94872">
        <ele>3.98</ele>
        <time>2018-04-18T07:26:05Z</time>
      </trkpt>
      <trkpt lat="38.67639" lon="14.94797">
        <ele>3.98</ele>
        <time>2018-04-18T07:26:25Z</time>
      </trkpt>
      <trkpt lat="38.67622" lon="14.94727">
        <ele>3.98</ele>
        <time>2018-04-18T07:26:44Z</time>
      </trkpt>
      <trkpt lat="38.67603" lon="14.94646">
        <ele>4.46</ele>
        <time>2018-04-18T07:27:06Z</time>
      </trkpt>
      <trkpt lat="38.67587" lon="14.94576">
        <ele>4.46</ele>
        <time>2018-04-18T07:27:25Z</time>
      </trkpt>
      <trkpt lat="38.67571" lon="14.94506">
        <ele>3.98</ele>
        <time>2018-04-18T07:27:44Z</time>
      </trkpt>
      <trkpt lat="38.67562" lon="14.94466">
        <ele>3.02</ele>
        <time>2018-04-18T07:27:59Z</time>
      </trkpt>
      <trkpt lat="38.67556" lon="14.94426">
        <ele>3.98</ele>
        <time>2018-04-18T07:28:19Z</time>
      </trkpt>
      <trkpt lat="38.67552" lon="14.94388">
        <ele>4.46</ele>
        <time>2018-04-18T07:28:41Z</time>
      </trkpt>
      <trkpt lat="38.67549" lon="14.94362">
        <ele>4.46</ele>
        <time>2018-04-18T07:28:58Z</time>
      </trkpt>
      <trkpt lat="38.67547" lon="14.94335">
        <ele>4.46</ele>
        <time>2018-04-18T07:29:17Z</time>
      </trkpt>
      <trkpt lat="38.67544" lon="14.94302">
        <ele>4.46</ele>
        <time>2018-04-18T07:29:39Z</time>
      </trkpt>
      <trkpt lat="38.67536" lon="14.94257">
        <ele>4.46</ele>
        <time>2018-04-18T07:29:55Z</time>
      </trkpt>
      <trkpt lat="38.67521" lon="14.94187">
        <ele>4.94</ele>
        <time>2018-04-18T07:30:15Z</time>
      </trkpt>
      <trkpt lat="38.67504" lon="14.94112">
        <ele>4.94</ele>
        <time>2018-04-18T07:30:36Z</time>
      </trkpt>
      <trkpt lat="38.67487" lon="14.9404">
        <ele>4.46</ele>
        <time>2018-04-18T07:30:56Z</time>
      </trkpt>
      <trkpt lat="38.67469" lon="14.93956">
        <ele>3.98</ele>
        <time>2018-04-18T07:31:19Z</time>
      </trkpt>
      <trkpt lat="38.6745" lon="14.93869">
        <ele>3.98</ele>
        <time>2018-04-18T07:31:43Z</time>
      </trkpt>
      <trkpt lat="38.67435" lon="14.93801">
        <ele>3.5</ele>
        <time>2018-04-18T07:32:02Z</time>
      </trkpt>
      <trkpt lat="38.67424" lon="14.93747">
        <ele>3.5</ele>
        <time>2018-04-18T07:32:17Z</time>
      </trkpt>
      <trkpt lat="38.67408" lon="14.93678">
        <ele>3.98</ele>
        <time>2018-04-18T07:32:36Z</time>
      </trkpt>
      <trkpt lat="38.67396" lon="14.93621">
        <ele>3.98</ele>
        <time>2018-04-18T07:32:52Z</time>
      </trkpt>
      <trkpt lat="38.67379" lon="14.93542">
        <ele>3.5</ele>
        <time>2018-04-18T07:33:14Z</time>
      </trkpt>
      <trkpt lat="38.67365" lon="14.93477">
        <ele>3.02</ele>
        <time>2018-04-18T07:33:32Z</time>
      </trkpt>
      <trkpt lat="38.67349" lon="14.93405">
        <ele>3.5</ele>
        <time>2018-04-18T07:33:52Z</time>
      </trkpt>
      <trkpt lat="38.67334" lon="14.93343">
        <ele>3.5</ele>
        <time>2018-04-18T07:34:09Z</time>
      </trkpt>
      <trkpt lat="38.67319" lon="14.93278">
        <ele>3.5</ele>
        <time>2018-04-18T07:34:27Z</time>
      </trkpt>
      <trkpt lat="38.67306" lon="14.93217">
        <ele>3.5</ele>
        <time>2018-04-18T07:34:44Z</time>
      </trkpt>
      <trkpt lat="38.67288" lon="14.93141">
        <ele>3.5</ele>
        <time>2018-04-18T07:35:05Z</time>
      </trkpt>
      <trkpt lat="38.67273" lon="14.93076">
        <ele>2.54</ele>
        <time>2018-04-18T07:35:23Z</time>
      </trkpt>
      <trkpt lat="38.67257" lon="14.93011">
        <ele>3.02</ele>
        <time>2018-04-18T07:35:41Z</time>
      </trkpt>
      <trkpt lat="38.67243" lon="14.92946">
        <ele>3.5</ele>
        <time>2018-04-18T07:35:59Z</time>
      </trkpt>
      <trkpt lat="38.67229" lon="14.92885">
        <ele>3.5</ele>
        <time>2018-04-18T07:36:16Z</time>
      </trkpt>
      <trkpt lat="38.67213" lon="14.92812">
        <ele>4.46</ele>
        <time>2018-04-18T07:36:36Z</time>
      </trkpt>
      <trkpt lat="38.67198" lon="14.92742">
        <ele>3.98</ele>
        <time>2018-04-18T07:36:55Z</time>
      </trkpt>
      <trkpt lat="38.67181" lon="14.92665">
        <ele>3.98</ele>
        <time>2018-04-18T07:37:16Z</time>
      </trkpt>
      <trkpt lat="38.67166" lon="14.92593">
        <ele>3.5</ele>
        <time>2018-04-18T07:37:36Z</time>
      </trkpt>
      <trkpt lat="38.67152" lon="14.92528">
        <ele>3.5</ele>
        <time>2018-04-18T07:37:54Z</time>
      </trkpt>
      <trkpt lat="38.67137" lon="14.92459">
        <ele>3.98</ele>
        <time>2018-04-18T07:38:13Z</time>
      </trkpt>
      <trkpt lat="38.67123" lon="14.92394">
        <ele>3.98</ele>
        <time>2018-04-18T07:38:31Z</time>
      </trkpt>
      <trkpt lat="38.67107" lon="14.92318">
        <ele>4.46</ele>
        <time>2018-04-18T07:38:52Z</time>
      </trkpt>
      <trkpt lat="38.67092" lon="14.9225">
        <ele>4.46</ele>
        <time>2018-04-18T07:39:11Z</time>
      </trkpt>
      <trkpt lat="38.67079" lon="14.92181">
        <ele>3.5</ele>
        <time>2018-04-18T07:39:30Z</time>
      </trkpt>
      <trkpt lat="38.67064" lon="14.92111">
        <ele>4.46</ele>
        <time>2018-04-18T07:39:49Z</time>
      </trkpt>
      <trkpt lat="38.67048" lon="14.92039">
        <ele>4.46</ele>
        <time>2018-04-18T07:40:09Z</time>
      </trkpt>
      <trkpt lat="38.67037" lon="14.91984">
        <ele>4.46</ele>
        <time>2018-04-18T07:40:24Z</time>
      </trkpt>
      <trkpt lat="38.67022" lon="14.91911">
        <ele>3.5</ele>
        <time>2018-04-18T07:40:44Z</time>
      </trkpt>
      <trkpt lat="38.67008" lon="14.91842">
        <ele>3.5</ele>
        <time>2018-04-18T07:41:03Z</time>
      </trkpt>
      <trkpt lat="38.66995" lon="14.91776">
        <ele>3.5</ele>
        <time>2018-04-18T07:41:21Z</time>
      </trkpt>
      <trkpt lat="38.66976" lon="14.91685">
        <ele>2.54</ele>
        <time>2018-04-18T07:41:46Z</time>
      </trkpt>
      <trkpt lat="38.66963" lon="14.91614">
        <ele>3.5</ele>
        <time>2018-04-18T07:42:05Z</time>
      </trkpt>
      <trkpt lat="38.66951" lon="14.91547">
        <ele>2.54</ele>
        <time>2018-04-18T07:42:23Z</time>
      </trkpt>
      <trkpt lat="38.66939" lon="14.91484">
        <ele>3.02</ele>
        <time>2018-04-18T07:42:40Z</time>
      </trkpt>
      <trkpt lat="38.66928" lon="14.91425">
        <ele>3.98</ele>
        <time>2018-04-18T07:42:56Z</time>
      </trkpt>
      <trkpt lat="38.66915" lon="14.91354">
        <ele>3.98</ele>
        <time>2018-04-18T07:43:15Z</time>
      </trkpt>
      <trkpt lat="38.66904" lon="14.9129">
        <ele>3.98</ele>
        <time>2018-04-18T07:43:32Z</time>
      </trkpt>
      <trkpt lat="38.66891" lon="14.91219">
        <ele>3.02</ele>
        <time>2018-04-18T07:43:51Z</time>
      </trkpt>
      <trkpt lat="38.66879" lon="14.91156">
        <ele>3.5</ele>
        <time>2018-04-18T07:44:08Z</time>
      </trkpt>
      <trkpt lat="38.66866" lon="14.91088">
        <ele>3.02</ele>
        <time>2018-04-18T07:44:26Z</time>
      </trkpt>
      <trkpt lat="38.66854" lon="14.9102">
        <ele>3.02</ele>
        <time>2018-04-18T07:44:44Z</time>
      </trkpt>
      <trkpt lat="38.66844" lon="14.90959">
        <ele>3.5</ele>
        <time>2018-04-18T07:45:00Z</time>
      </trkpt>
      <trkpt lat="38.66832" lon="14.90888">
        <ele>3.02</ele>
        <time>2018-04-18T07:45:19Z</time>
      </trkpt>
      <trkpt lat="38.66822" lon="14.90817">
        <ele>3.5</ele>
        <time>2018-04-18T07:45:38Z</time>
      </trkpt>
      <trkpt lat="38.66809" lon="14.90739">
        <ele>3.5</ele>
        <time>2018-04-18T07:45:59Z</time>
      </trkpt>
      <trkpt lat="38.66798" lon="14.90667">
        <ele>3.5</ele>
        <time>2018-04-18T07:46:18Z</time>
      </trkpt>
      <trkpt lat="38.66785" lon="14.90592">
        <ele>3.02</ele>
        <time>2018-04-18T07:46:38Z</time>
      </trkpt>
      <trkpt lat="38.66772" lon="14.90521">
        <ele>3.5</ele>
        <time>2018-04-18T07:46:57Z</time>
      </trkpt>
      <trkpt lat="38.66757" lon="14.90442">
        <ele>4.94</ele>
        <time>2018-04-18T07:47:18Z</time>
      </trkpt>
      <trkpt lat="38.66742" lon="14.90355">
        <ele>5.91</ele>
        <time>2018-04-18T07:47:41Z</time>
      </trkpt>
      <trkpt lat="38.66728" lon="14.90288">
        <ele>5.91</ele>
        <time>2018-04-18T07:47:59Z</time>
      </trkpt>
      <trkpt lat="38.66715" lon="14.90225">
        <ele>5.91</ele>
        <time>2018-04-18T07:48:16Z</time>
      </trkpt>
      <trkpt lat="38.66699" lon="14.9015">
        <ele>6.39</ele>
        <time>2018-04-18T07:48:36Z</time>
      </trkpt>
      <trkpt lat="38.66683" lon="14.90068">
        <ele>6.39</ele>
        <time>2018-04-18T07:48:58Z</time>
      </trkpt>
      <trkpt lat="38.66667" lon="14.89989">
        <ele>5.42</ele>
        <time>2018-04-18T07:49:19Z</time>
      </trkpt>
      <trkpt lat="38.6665" lon="14.89906">
        <ele>5.42</ele>
        <time>2018-04-18T07:49:41Z</time>
      </trkpt>
      <trkpt lat="38.66637" lon="14.89842">
        <ele>5.42</ele>
        <time>2018-04-18T07:49:58Z</time>
      </trkpt>
      <trkpt lat="38.66622" lon="14.89771">
        <ele>3.98</ele>
        <time>2018-04-18T07:50:17Z</time>
      </trkpt>
      <trkpt lat="38.66609" lon="14.8971">
        <ele>4.46</ele>
        <time>2018-04-18T07:50:33Z</time>
      </trkpt>
      <trkpt lat="38.66592" lon="14.89626">
        <ele>4.46</ele>
        <time>2018-04-18T07:50:55Z</time>
      </trkpt>
      <trkpt lat="38.66574" lon="14.89539">
        <ele>4.94</ele>
        <time>2018-04-18T07:51:18Z</time>
      </trkpt>
      <trkpt lat="38.66557" lon="14.89459">
        <ele>4.46</ele>
        <time>2018-04-18T07:51:39Z</time>
      </trkpt>
      <trkpt lat="38.6654" lon="14.89379">
        <ele>3.98</ele>
        <time>2018-04-18T07:52:00Z</time>
      </trkpt>
      <trkpt lat="38.66526" lon="14.89311">
        <ele>3.98</ele>
        <time>2018-04-18T07:52:18Z</time>
      </trkpt>
      <trkpt lat="38.6651" lon="14.89243">
        <ele>4.46</ele>
        <time>2018-04-18T07:52:36Z</time>
      </trkpt>
      <trkpt lat="38.66494" lon="14.89167">
        <ele>4.46</ele>
        <time>2018-04-18T07:52:56Z</time>
      </trkpt>
      <trkpt lat="38.66475" lon="14.89087">
        <ele>4.94</ele>
        <time>2018-04-18T07:53:17Z</time>
      </trkpt>
      <trkpt lat="38.66457" lon="14.89009">
        <ele>4.46</ele>
        <time>2018-04-18T07:53:38Z</time>
      </trkpt>
      <trkpt lat="38.66435" lon="14.88924">
        <ele>3.02</ele>
        <time>2018-04-18T07:54:01Z</time>
      </trkpt>
      <trkpt lat="38.66416" lon="14.88845">
        <ele>3.02</ele>
        <time>2018-04-18T07:54:22Z</time>
      </trkpt>
      <trkpt lat="38.66398" lon="14.88763">
        <ele>3.5</ele>
        <time>2018-04-18T07:54:44Z</time>
      </trkpt>
      <trkpt lat="38.66375" lon="14.88674">
        <ele>3.5</ele>
        <time>2018-04-18T07:55:08Z</time>
      </trkpt>
      <trkpt lat="38.66356" lon="14.88603">
        <ele>3.98</ele>
        <time>2018-04-18T07:55:27Z</time>
      </trkpt>
      <trkpt lat="38.66334" lon="14.88518">
        <ele>3.98</ele>
        <time>2018-04-18T07:55:50Z</time>
      </trkpt>
      <trkpt lat="38.66313" lon="14.8844">
        <ele>3.98</ele>
        <time>2018-04-18T07:56:11Z</time>
      </trkpt>
      <trkpt lat="38.66289" lon="14.88354">
        <ele>4.94</ele>
        <time>2018-04-18T07:56:34Z</time>
      </trkpt>
      <trkpt lat="38.66266" lon="14.88277">
        <ele>5.91</ele>
        <time>2018-04-18T07:56:55Z</time>
      </trkpt>
      <trkpt lat="38.66241" lon="14.88195">
        <ele>5.91</ele>
        <time>2018-04-18T07:57:17Z</time>
      </trkpt>
      <trkpt lat="38.66218" lon="14.88121">
        <ele>5.91</ele>
        <time>2018-04-18T07:57:37Z</time>
      </trkpt>
      <trkpt lat="38.66195" lon="14.88047">
        <ele>5.91</ele>
        <time>2018-04-18T07:57:57Z</time>
      </trkpt>
      <trkpt lat="38.66172" lon="14.87972">
        <ele>4.94</ele>
        <time>2018-04-18T07:58:17Z</time>
      </trkpt>
      <trkpt lat="38.66146" lon="14.87887">
        <ele>4.94</ele>
        <time>2018-04-18T07:58:40Z</time>
      </trkpt>
      <trkpt lat="38.66121" lon="14.87805">
        <ele>5.42</ele>
        <time>2018-04-18T07:59:02Z</time>
      </trkpt>
      <trkpt lat="38.66095" lon="14.8772">
        <ele>4.94</ele>
        <time>2018-04-18T07:59:25Z</time>
      </trkpt>
      <trkpt lat="38.6607" lon="14.87639">
        <ele>3.5</ele>
        <time>2018-04-18T07:59:47Z</time>
      </trkpt>
      <trkpt lat="38.6605" lon="14.87577">
        <ele>3.98</ele>
        <time>2018-04-18T08:00:04Z</time>
      </trkpt>
      <trkpt lat="38.66028" lon="14.87507">
        <ele>3.98</ele>
        <time>2018-04-18T08:00:23Z</time>
      </trkpt>
      <trkpt lat="38.66008" lon="14.87444">
        <ele>3.5</ele>
        <time>2018-04-18T08:00:40Z</time>
      </trkpt>
      <trkpt lat="38.65987" lon="14.8738">
        <ele>3.98</ele>
        <time>2018-04-18T08:00:57Z</time>
      </trkpt>
      <trkpt lat="38.65963" lon="14.87301">
        <ele>3.98</ele>
        <time>2018-04-18T08:01:18Z</time>
      </trkpt>
      <trkpt lat="38.65935" lon="14.87211">
        <ele>3.5</ele>
        <time>2018-04-18T08:01:42Z</time>
      </trkpt>
      <trkpt lat="38.65911" lon="14.87136">
        <ele>3.02</ele>
        <time>2018-04-18T08:02:02Z</time>
      </trkpt>
      <trkpt lat="38.65885" lon="14.87049">
        <ele>3.02</ele>
        <time>2018-04-18T08:02:25Z</time>
      </trkpt>
      <trkpt lat="38.6586" lon="14.86966">
        <ele>2.54</ele>
        <time>2018-04-18T08:02:47Z</time>
      </trkpt>
      <trkpt lat="38.65836" lon="14.86886">
        <ele>3.02</ele>
        <time>2018-04-18T08:03:08Z</time>
      </trkpt>
      <trkpt lat="38.65812" lon="14.86805">
        <ele>3.5</ele>
        <time>2018-04-18T08:03:29Z</time>
      </trkpt>
      <trkpt lat="38.65791" lon="14.86733">
        <ele>3.98</ele>
        <time>2018-04-18T08:03:48Z</time>
      </trkpt>
      <trkpt lat="38.65764" lon="14.86646">
        <ele>4.46</ele>
        <time>2018-04-18T08:04:11Z</time>
      </trkpt>
      <trkpt lat="38.65741" lon="14.86569">
        <ele>4.94</ele>
        <time>2018-04-18T08:04:31Z</time>
      </trkpt>
      <trkpt lat="38.65715" lon="14.86486">
        <ele>4.94</ele>
        <time>2018-04-18T08:04:53Z</time>
      </trkpt>
      <trkpt lat="38.65687" lon="14.86395">
        <ele>5.42</ele>
        <time>2018-04-18T08:05:17Z</time>
      </trkpt>
      <trkpt lat="38.6566" lon="14.86308">
        <ele>5.42</ele>
        <time>2018-04-18T08:05:40Z</time>
      </trkpt>
      <trkpt lat="38.65635" lon="14.86224">
        <ele>4.94</ele>
        <time>2018-04-18T08:06:02Z</time>
      </trkpt>
      <trkpt lat="38.65608" lon="14.86137">
        <ele>4.46</ele>
        <time>2018-04-18T08:06:25Z</time>
      </trkpt>
      <trkpt lat="38.65578" lon="14.86044">
        <ele>4.46</ele>
        <time>2018-04-18T08:06:50Z</time>
      </trkpt>
      <trkpt lat="38.65546" lon="14.85943">
        <ele>3.98</ele>
        <time>2018-04-18T08:07:17Z</time>
      </trkpt>
      <trkpt lat="38.65517" lon="14.85855">
        <ele>4.94</ele>
        <time>2018-04-18T08:07:41Z</time>
      </trkpt>
      <trkpt lat="38.65491" lon="14.85773">
        <ele>4.46</ele>
        <time>2018-04-18T08:08:03Z</time>
      </trkpt>
      <trkpt lat="38.65471" lon="14.85711">
        <ele>4.46</ele>
        <time>2018-04-18T08:08:20Z</time>
      </trkpt>
      <trkpt lat="38.65452" lon="14.85651">
        <ele>3.98</ele>
        <time>2018-04-18T08:08:36Z</time>
      </trkpt>
      <trkpt lat="38.6543" lon="14.85582">
        <ele>5.42</ele>
        <time>2018-04-18T08:08:55Z</time>
      </trkpt>
      <trkpt lat="38.65405" lon="14.85503">
        <ele>5.91</ele>
        <time>2018-04-18T08:09:16Z</time>
      </trkpt>
      <trkpt lat="38.65378" lon="14.85421">
        <ele>5.91</ele>
        <time>2018-04-18T08:09:38Z</time>
      </trkpt>
      <trkpt lat="38.65355" lon="14.8535">
        <ele>5.42</ele>
        <time>2018-04-18T08:09:57Z</time>
      </trkpt>
      <trkpt lat="38.6533" lon="14.85275">
        <ele>4.46</ele>
        <time>2018-04-18T08:10:17Z</time>
      </trkpt>
      <trkpt lat="38.65306" lon="14.85205">
        <ele>4.94</ele>
        <time>2018-04-18T08:10:36Z</time>
      </trkpt>
      <trkpt lat="38.65278" lon="14.85124">
        <ele>4.94</ele>
        <time>2018-04-18T08:10:58Z</time>
      </trkpt>
      <trkpt lat="38.65251" lon="14.85046">
        <ele>4.94</ele>
        <time>2018-04-18T08:11:19Z</time>
      </trkpt>
      <trkpt lat="38.6523" lon="14.84988">
        <ele>4.46</ele>
        <time>2018-04-18T08:11:35Z</time>
      </trkpt>
      <trkpt lat="38.65212" lon="14.84936">
        <ele>3.98</ele>
        <time>2018-04-18T08:11:49Z</time>
      </trkpt>
      <trkpt lat="38.65196" lon="14.8489">
        <ele>5.42</ele>
        <time>2018-04-18T08:12:01Z</time>
      </trkpt>
      <trkpt lat="38.65185" lon="14.84853">
        <ele>4.46</ele>
        <time>2018-04-18T08:12:10Z</time>
      </trkpt>
      <trkpt lat="38.65166" lon="14.84801">
        <ele>3.98</ele>
        <time>2018-04-18T08:12:24Z</time>
      </trkpt>
      <trkpt lat="38.6514" lon="14.84726">
        <ele>4.46</ele>
        <time>2018-04-18T08:12:44Z</time>
      </trkpt>
      <trkpt lat="38.65108" lon="14.84638">
        <ele>5.42</ele>
        <time>2018-04-18T08:13:08Z</time>
      </trkpt>
      <trkpt lat="38.65085" lon="14.84572">
        <ele>5.91</ele>
        <time>2018-04-18T08:13:26Z</time>
      </trkpt>
      <trkpt lat="38.65059" lon="14.84499">
        <ele>5.91</ele>
        <time>2018-04-18T08:13:46Z</time>
      </trkpt>
      <trkpt lat="38.65036" lon="14.84433">
        <ele>5.91</ele>
        <time>2018-04-18T08:14:04Z</time>
      </trkpt>
      <trkpt lat="38.65009" lon="14.8436">
        <ele>5.91</ele>
        <time>2018-04-18T08:14:24Z</time>
      </trkpt>
      <trkpt lat="38.64979" lon="14.84276">
        <ele>5.42</ele>
        <time>2018-04-18T08:14:47Z</time>
      </trkpt>
      <trkpt lat="38.64951" lon="14.84199">
        <ele>5.42</ele>
        <time>2018-04-18T08:15:08Z</time>
      </trkpt>
      <trkpt lat="38.64918" lon="14.84107">
        <ele>5.42</ele>
        <time>2018-04-18T08:15:33Z</time>
      </trkpt>
      <trkpt lat="38.64889" lon="14.84034">
        <ele>5.91</ele>
        <time>2018-04-18T08:15:54Z</time>
      </trkpt>
      <trkpt lat="38.64865" lon="14.83968">
        <ele>6.39</ele>
        <time>2018-04-18T08:16:13Z</time>
      </trkpt>
      <trkpt lat="38.64839" lon="14.83902">
        <ele>7.35</ele>
        <time>2018-04-18T08:16:31Z</time>
      </trkpt>
      <trkpt lat="38.64811" lon="14.8383">
        <ele>6.87</ele>
        <time>2018-04-18T08:16:53Z</time>
      </trkpt>
      <trkpt lat="38.6478" lon="14.83748">
        <ele>6.39</ele>
        <time>2018-04-18T08:17:15Z</time>
      </trkpt>
      <trkpt lat="38.64527" lon="14.83049">
        <ele>7.35</ele>
        <time>2018-04-18T08:20:31Z</time>
      </trkpt>
      <trkpt lat="38.64504" lon="14.82982">
        <ele>6.39</ele>
        <time>2018-04-18T08:20:49Z</time>
      </trkpt>
      <trkpt lat="38.64479" lon="14.82908">
        <ele>5.42</ele>
        <time>2018-04-18T08:21:09Z</time>
      </trkpt>
      <trkpt lat="38.6445" lon="14.82838">
        <ele>4.46</ele>
        <time>2018-04-18T08:21:29Z</time>
      </trkpt>
      <trkpt lat="38.64397" lon="14.82753">
        <ele>3.98</ele>
        <time>2018-04-18T08:21:57Z</time>
      </trkpt>
      <trkpt lat="38.64376" lon="14.8268">
        <ele>3.98</ele>
        <time>2018-04-18T08:22:16Z</time>
      </trkpt>
      <trkpt lat="38.64359" lon="14.82597">
        <ele>4.94</ele>
        <time>2018-04-18T08:22:35Z</time>
      </trkpt>
      <trkpt lat="38.64342" lon="14.82501">
        <ele>6.39</ele>
        <time>2018-04-18T08:23:01Z</time>
      </trkpt>
      <trkpt lat="38.64307" lon="14.82391">
        <ele>8.31</ele>
        <time>2018-04-18T08:23:30Z</time>
      </trkpt>
      <trkpt lat="38.64266" lon="14.82321">
        <ele>9.27</ele>
        <time>2018-04-18T08:23:52Z</time>
      </trkpt>
      <trkpt lat="38.64237" lon="14.82226">
        <ele>9.27</ele>
        <time>2018-04-18T08:24:17Z</time>
      </trkpt>
      <trkpt lat="38.64202" lon="14.82119">
        <ele>10.71</ele>
        <time>2018-04-18T08:24:46Z</time>
      </trkpt>
      <trkpt lat="38.64169" lon="14.82022">
        <ele>9.27</ele>
        <time>2018-04-18T08:25:13Z</time>
      </trkpt>
      <trkpt lat="38.6414" lon="14.81926">
        <ele>8.79</ele>
        <time>2018-04-18T08:25:38Z</time>
      </trkpt>
      <trkpt lat="38.64106" lon="14.81844">
        <ele>4.94</ele>
        <time>2018-04-18T08:26:03Z</time>
      </trkpt>
      <trkpt lat="38.64074" lon="14.81739">
        <ele>-0.82</ele>
        <time>2018-04-18T08:26:29Z</time>
      </trkpt>
      <trkpt lat="38.64042" lon="14.81628">
        <ele>-1.3</ele>
        <time>2018-04-18T08:26:58Z</time>
      </trkpt>
      <trkpt lat="38.64013" lon="14.8155">
        <ele>3.02</ele>
        <time>2018-04-18T08:27:20Z</time>
      </trkpt>
      <trkpt lat="38.63989" lon="14.81484">
        <ele>3.02</ele>
        <time>2018-04-18T08:27:38Z</time>
      </trkpt>
      <trkpt lat="38.63959" lon="14.81393">
        <ele>3.98</ele>
        <time>2018-04-18T08:28:03Z</time>
      </trkpt>
      <trkpt lat="38.63942" lon="14.8134">
        <ele>4.46</ele>
        <time>2018-04-18T08:28:17Z</time>
      </trkpt>
      <trkpt lat="38.63924" lon="14.81285">
        <ele>4.94</ele>
        <time>2018-04-18T08:28:32Z</time>
      </trkpt>
      <trkpt lat="38.63901" lon="14.81215">
        <ele>5.42</ele>
        <time>2018-04-18T08:28:51Z</time>
      </trkpt>
      <trkpt lat="38.63879" lon="14.81144">
        <ele>4.94</ele>
        <time>2018-04-18T08:29:10Z</time>
      </trkpt>
      <trkpt lat="38.63855" lon="14.8107">
        <ele>5.42</ele>
        <time>2018-04-18T08:29:30Z</time>
      </trkpt>
      <trkpt lat="38.63832" lon="14.80995">
        <ele>4.94</ele>
        <time>2018-04-18T08:29:50Z</time>
      </trkpt>
      <trkpt lat="38.63811" lon="14.80928">
        <ele>4.94</ele>
        <time>2018-04-18T08:30:08Z</time>
      </trkpt>
      <trkpt lat="38.63785" lon="14.80846">
        <ele>4.94</ele>
        <time>2018-04-18T08:30:30Z</time>
      </trkpt>
      <trkpt lat="38.63765" lon="14.80782">
        <ele>4.94</ele>
        <time>2018-04-18T08:30:47Z</time>
      </trkpt>
      <trkpt lat="38.63746" lon="14.80719">
        <ele>5.91</ele>
        <time>2018-04-18T08:31:04Z</time>
      </trkpt>
      <trkpt lat="38.63725" lon="14.80651">
        <ele>5.42</ele>
        <time>2018-04-18T08:31:22Z</time>
      </trkpt>
      <trkpt lat="38.63707" lon="14.80591">
        <ele>5.91</ele>
        <time>2018-04-18T08:31:38Z</time>
      </trkpt>
      <trkpt lat="38.63691" lon="14.80539">
        <ele>5.42</ele>
        <time>2018-04-18T08:31:52Z</time>
      </trkpt>
      <trkpt lat="38.6367" lon="14.80468">
        <ele>5.42</ele>
        <time>2018-04-18T08:32:11Z</time>
      </trkpt>
      <trkpt lat="38.6365" lon="14.804">
        <ele>5.42</ele>
        <time>2018-04-18T08:32:29Z</time>
      </trkpt>
      <trkpt lat="38.63628" lon="14.80324">
        <ele>5.42</ele>
        <time>2018-04-18T08:32:49Z</time>
      </trkpt>
      <trkpt lat="38.63607" lon="14.80252">
        <ele>5.42</ele>
        <time>2018-04-18T08:33:08Z</time>
      </trkpt>
      <trkpt lat="38.63588" lon="14.80187">
        <ele>6.39</ele>
        <time>2018-04-18T08:33:25Z</time>
      </trkpt>
      <trkpt lat="38.6357" lon="14.80126">
        <ele>6.39</ele>
        <time>2018-04-18T08:33:41Z</time>
      </trkpt>
      <trkpt lat="38.63557" lon="14.8008">
        <ele>5.91</ele>
        <time>2018-04-18T08:33:53Z</time>
      </trkpt>
      <trkpt lat="38.63541" lon="14.80023">
        <ele>6.39</ele>
        <time>2018-04-18T08:34:08Z</time>
      </trkpt>
      <trkpt lat="38.63521" lon="14.79947">
        <ele>5.42</ele>
        <time>2018-04-18T08:34:28Z</time>
      </trkpt>
      <trkpt lat="38.63502" lon="14.79878">
        <ele>5.91</ele>
        <time>2018-04-18T08:34:46Z</time>
      </trkpt>
      <trkpt lat="38.6348" lon="14.79801">
        <ele>5.42</ele>
        <time>2018-04-18T08:35:06Z</time>
      </trkpt>
      <trkpt lat="38.63462" lon="14.79736">
        <ele>5.91</ele>
        <time>2018-04-18T08:35:23Z</time>
      </trkpt>
      <trkpt lat="38.63444" lon="14.79671">
        <ele>5.91</ele>
        <time>2018-04-18T08:35:40Z</time>
      </trkpt>
      <trkpt lat="38.63423" lon="14.79594">
        <ele>5.42</ele>
        <time>2018-04-18T08:36:00Z</time>
      </trkpt>
      <trkpt lat="38.63396" lon="14.79499">
        <ele>5.91</ele>
        <time>2018-04-18T08:36:25Z</time>
      </trkpt>
      <trkpt lat="38.63378" lon="14.79433">
        <ele>5.42</ele>
        <time>2018-04-18T08:36:42Z</time>
      </trkpt>
      <trkpt lat="38.63358" lon="14.7936">
        <ele>5.42</ele>
        <time>2018-04-18T08:37:01Z</time>
      </trkpt>
      <trkpt lat="38.63337" lon="14.79287">
        <ele>4.94</ele>
        <time>2018-04-18T08:37:20Z</time>
      </trkpt>
      <trkpt lat="38.63316" lon="14.7921">
        <ele>4.94</ele>
        <time>2018-04-18T08:37:40Z</time>
      </trkpt>
      <trkpt lat="38.63296" lon="14.79134">
        <ele>4.46</ele>
        <time>2018-04-18T08:38:00Z</time>
      </trkpt>
      <trkpt lat="38.63275" lon="14.79057">
        <ele>4.94</ele>
        <time>2018-04-18T08:38:20Z</time>
      </trkpt>
      <trkpt lat="38.63255" lon="14.78984">
        <ele>4.94</ele>
        <time>2018-04-18T08:38:39Z</time>
      </trkpt>
      <trkpt lat="38.63231" lon="14.78897">
        <ele>4.94</ele>
        <time>2018-04-18T08:39:02Z</time>
      </trkpt>
      <trkpt lat="38.6321" lon="14.78821">
        <ele>4.94</ele>
        <time>2018-04-18T08:39:22Z</time>
      </trkpt>
      <trkpt lat="38.63193" lon="14.7876">
        <ele>4.94</ele>
        <time>2018-04-18T08:39:38Z</time>
      </trkpt>
      <trkpt lat="38.63175" lon="14.78692">
        <ele>4.94</ele>
        <time>2018-04-18T08:39:56Z</time>
      </trkpt>
      <trkpt lat="38.63153" lon="14.78612">
        <ele>4.46</ele>
        <time>2018-04-18T08:40:17Z</time>
      </trkpt>
      <trkpt lat="38.63132" lon="14.78532">
        <ele>4.46</ele>
        <time>2018-04-18T08:40:38Z</time>
      </trkpt>
      <trkpt lat="38.63111" lon="14.78449">
        <ele>3.98</ele>
        <time>2018-04-18T08:41:00Z</time>
      </trkpt>
      <trkpt lat="38.6309" lon="14.78369">
        <ele>3.5</ele>
        <time>2018-04-18T08:41:21Z</time>
      </trkpt>
      <trkpt lat="38.63069" lon="14.78289">
        <ele>3.5</ele>
        <time>2018-04-18T08:41:42Z</time>
      </trkpt>
      <trkpt lat="38.6305" lon="14.78218">
        <ele>3.98</ele>
        <time>2018-04-18T08:42:01Z</time>
      </trkpt>
      <trkpt lat="38.63032" lon="14.7815">
        <ele>3.98</ele>
        <time>2018-04-18T08:42:19Z</time>
      </trkpt>
      <trkpt lat="38.63011" lon="14.78067">
        <ele>3.5</ele>
        <time>2018-04-18T08:42:41Z</time>
      </trkpt>
      <trkpt lat="38.62988" lon="14.77981">
        <ele>3.5</ele>
        <time>2018-04-18T08:43:04Z</time>
      </trkpt>
      <trkpt lat="38.6297" lon="14.7791">
        <ele>3.02</ele>
        <time>2018-04-18T08:43:23Z</time>
      </trkpt>
      <trkpt lat="38.6295" lon="14.77831">
        <ele>3.5</ele>
        <time>2018-04-18T08:43:44Z</time>
      </trkpt>
      <trkpt lat="38.62931" lon="14.77756">
        <ele>3.02</ele>
        <time>2018-04-18T08:44:04Z</time>
      </trkpt>
      <trkpt lat="38.62911" lon="14.77669">
        <ele>2.54</ele>
        <time>2018-04-18T08:44:27Z</time>
      </trkpt>
      <trkpt lat="38.62898" lon="14.77617">
        <ele>2.54</ele>
        <time>2018-04-18T08:44:41Z</time>
      </trkpt>
      <trkpt lat="38.6288" lon="14.77542">
        <ele>2.06</ele>
        <time>2018-04-18T08:45:01Z</time>
      </trkpt>
      <trkpt lat="38.62864" lon="14.77474">
        <ele>1.58</ele>
        <time>2018-04-18T08:45:19Z</time>
      </trkpt>
      <trkpt lat="38.62846" lon="14.77404">
        <ele>1.58</ele>
        <time>2018-04-18T08:45:38Z</time>
      </trkpt>
      <trkpt lat="38.62829" lon="14.77329">
        <ele>2.06</ele>
        <time>2018-04-18T08:45:58Z</time>
      </trkpt>
      <trkpt lat="38.62812" lon="14.77254">
        <ele>1.1</ele>
        <time>2018-04-18T08:46:18Z</time>
      </trkpt>
      <trkpt lat="38.62796" lon="14.77187">
        <ele>1.1</ele>
        <time>2018-04-18T08:46:36Z</time>
      </trkpt>
      <trkpt lat="38.62781" lon="14.7712">
        <ele>2.06</ele>
        <time>2018-04-18T08:46:54Z</time>
      </trkpt>
      <trkpt lat="38.62765" lon="14.77053">
        <ele>2.06</ele>
        <time>2018-04-18T08:47:12Z</time>
      </trkpt>
      <trkpt lat="38.62751" lon="14.76991">
        <ele>2.06</ele>
        <time>2018-04-18T08:47:29Z</time>
      </trkpt>
      <trkpt lat="38.62733" lon="14.7691">
        <ele>2.54</ele>
        <time>2018-04-18T08:47:51Z</time>
      </trkpt>
      <trkpt lat="38.62714" lon="14.76824">
        <ele>3.02</ele>
        <time>2018-04-18T08:48:14Z</time>
      </trkpt>
      <trkpt lat="38.62698" lon="14.76748">
        <ele>2.06</ele>
        <time>2018-04-18T08:48:34Z</time>
      </trkpt>
      <trkpt lat="38.62684" lon="14.76685">
        <ele>2.06</ele>
        <time>2018-04-18T08:48:51Z</time>
      </trkpt>
      <trkpt lat="38.62669" lon="14.76614">
        <ele>2.54</ele>
        <time>2018-04-18T08:49:10Z</time>
      </trkpt>
      <trkpt lat="38.62654" lon="14.76543">
        <ele>2.54</ele>
        <time>2018-04-18T08:49:29Z</time>
      </trkpt>
      <trkpt lat="38.62639" lon="14.76472">
        <ele>1.58</ele>
        <time>2018-04-18T08:49:48Z</time>
      </trkpt>
      <trkpt lat="38.62623" lon="14.76393">
        <ele>1.58</ele>
        <time>2018-04-18T08:50:09Z</time>
      </trkpt>
      <trkpt lat="38.62609" lon="14.76321">
        <ele>0.62</ele>
        <time>2018-04-18T08:50:28Z</time>
      </trkpt>
      <trkpt lat="38.62595" lon="14.76249">
        <ele>0.62</ele>
        <time>2018-04-18T08:50:47Z</time>
      </trkpt>
      <trkpt lat="38.62581" lon="14.76178">
        <ele>0.62</ele>
        <time>2018-04-18T08:51:06Z</time>
      </trkpt>
      <trkpt lat="38.62566" lon="14.76099">
        <ele>0.62</ele>
        <time>2018-04-18T08:51:27Z</time>
      </trkpt>
      <trkpt lat="38.62554" lon="14.76035">
        <ele>1.1</ele>
        <time>2018-04-18T08:51:44Z</time>
      </trkpt>
      <trkpt lat="38.62539" lon="14.75957">
        <ele>0.62</ele>
        <time>2018-04-18T08:52:05Z</time>
      </trkpt>
      <trkpt lat="38.62525" lon="14.75881">
        <ele>0.62</ele>
        <time>2018-04-18T08:52:25Z</time>
      </trkpt>
      <trkpt lat="38.62512" lon="14.75814">
        <ele>0.62</ele>
        <time>2018-04-18T08:52:43Z</time>
      </trkpt>
      <trkpt lat="38.62497" lon="14.75731">
        <ele>1.1</ele>
        <time>2018-04-18T08:53:05Z</time>
      </trkpt>
      <trkpt lat="38.62485" lon="14.75663">
        <ele>1.1</ele>
        <time>2018-04-18T08:53:23Z</time>
      </trkpt>
      <trkpt lat="38.62508" lon="14.7562">
        <ele>0.14</ele>
        <time>2018-04-18T08:53:36Z</time>
      </trkpt>
      <trkpt lat="38.6254" lon="14.75566">
        <ele>1.58</ele>
        <time>2018-04-18T08:53:52Z</time>
      </trkpt>
      <trkpt lat="38.62556" lon="14.75535">
        <ele>1.1</ele>
        <time>2018-04-18T08:54:01Z</time>
      </trkpt>
      <trkpt lat="38.62569" lon="14.75498">
        <ele>-0.34</ele>
        <time>2018-04-18T08:54:12Z</time>
      </trkpt>
      <trkpt lat="38.62577" lon="14.75462">
        <ele>-1.79</ele>
        <time>2018-04-18T08:54:22Z</time>
      </trkpt>
      <trkpt lat="38.62597" lon="14.75408">
        <ele>0.14</ele>
        <time>2018-04-18T08:54:36Z</time>
      </trkpt>
      <trkpt lat="38.62599" lon="14.75405">
        <ele>0.14</ele>
        <time>2018-04-18T08:54:37Z</time>
      </trkpt>
      <trkpt lat="38.62604" lon="14.75351">
        <ele>-1.3</ele>
        <time>2018-04-18T08:54:50Z</time>
      </trkpt>
      <trkpt lat="38.6261" lon="14.75293">
        <ele>-3.71</ele>
        <time>2018-04-18T08:55:04Z</time>
      </trkpt>
      <trkpt lat="38.62616" lon="14.75208">
        <ele>-3.23</ele>
        <time>2018-04-18T08:55:25Z</time>
      </trkpt>
      <trkpt lat="38.62628" lon="14.75128">
        <ele>-2.27</ele>
        <time>2018-04-18T08:55:45Z</time>
      </trkpt>
      <trkpt lat="38.62637" lon="14.75057">
        <ele>-1.79</ele>
        <time>2018-04-18T08:56:03Z</time>
      </trkpt>
      <trkpt lat="38.62642" lon="14.74979">
        <ele>-0.34</ele>
        <time>2018-04-18T08:56:23Z</time>
      </trkpt>
      <trkpt lat="38.62638" lon="14.74909">
        <ele>1.58</ele>
        <time>2018-04-18T08:56:41Z</time>
      </trkpt>
      <trkpt lat="38.62631" lon="14.74855">
        <ele>2.54</ele>
        <time>2018-04-18T08:56:56Z</time>
      </trkpt>
      <trkpt lat="38.62619" lon="14.74797">
        <ele>3.02</ele>
        <time>2018-04-18T08:57:12Z</time>
      </trkpt>
      <trkpt lat="38.62613" lon="14.74738">
        <ele>2.06</ele>
        <time>2018-04-18T08:57:28Z</time>
      </trkpt>
      <trkpt lat="38.62612" lon="14.74665">
        <ele>2.54</ele>
        <time>2018-04-18T08:57:47Z</time>
      </trkpt>
      <trkpt lat="38.62609" lon="14.74605">
        <ele>1.58</ele>
        <time>2018-04-18T08:58:03Z</time>
      </trkpt>
      <trkpt lat="38.62601" lon="14.74539">
        <ele>2.06</ele>
        <time>2018-04-18T08:58:21Z</time>
      </trkpt>
      <trkpt lat="38.62593" lon="14.74461">
        <ele>2.06</ele>
        <time>2018-04-18T08:58:42Z</time>
      </trkpt>
      <trkpt lat="38.62589" lon="14.74396">
        <ele>2.06</ele>
        <time>2018-04-18T08:58:59Z</time>
      </trkpt>
      <trkpt lat="38.62593" lon="14.74335">
        <ele>2.06</ele>
        <time>2018-04-18T08:59:15Z</time>
      </trkpt>
      <trkpt lat="38.62615" lon="14.74267">
        <ele>2.06</ele>
        <time>2018-04-18T08:59:33Z</time>
      </trkpt>
      <trkpt lat="38.62631" lon="14.74203">
        <ele>2.54</ele>
        <time>2018-04-18T08:59:50Z</time>
      </trkpt>
      <trkpt lat="38.62649" lon="14.74138">
        <ele>2.54</ele>
        <time>2018-04-18T09:00:07Z</time>
      </trkpt>
      <trkpt lat="38.62679" lon="14.74074">
        <ele>2.06</ele>
        <time>2018-04-18T09:00:25Z</time>
      </trkpt>
      <trkpt lat="38.62715" lon="14.7402">
        <ele>1.58</ele>
        <time>2018-04-18T09:00:42Z</time>
      </trkpt>
      <trkpt lat="38.62755" lon="14.73975">
        <ele>1.58</ele>
        <time>2018-04-18T09:00:58Z</time>
      </trkpt>
      <trkpt lat="38.62799" lon="14.7393">
        <ele>1.1</ele>
        <time>2018-04-18T09:01:15Z</time>
      </trkpt>
      <trkpt lat="38.62858" lon="14.73888">
        <ele>1.1</ele>
        <time>2018-04-18T09:01:35Z</time>
      </trkpt>
      <trkpt lat="38.62903" lon="14.73846">
        <ele>2.54</ele>
        <time>2018-04-18T09:01:52Z</time>
      </trkpt>
      <trkpt lat="38.62915" lon="14.73791">
        <ele>2.54</ele>
        <time>2018-04-18T09:02:07Z</time>
      </trkpt>
      <trkpt lat="38.62908" lon="14.73726">
        <ele>2.06</ele>
        <time>2018-04-18T09:02:25Z</time>
      </trkpt>
      <trkpt lat="38.62894" lon="14.73659">
        <ele>1.58</ele>
        <time>2018-04-18T09:02:44Z</time>
      </trkpt>
      <trkpt lat="38.62881" lon="14.73606">
        <ele>1.1</ele>
        <time>2018-04-18T09:03:00Z</time>
      </trkpt>
      <trkpt lat="38.62866" lon="14.73542">
        <ele>0.14</ele>
        <time>2018-04-18T09:03:19Z</time>
      </trkpt>
      <trkpt lat="38.62853" lon="14.73481">
        <ele>0.62</ele>
        <time>2018-04-18T09:03:37Z</time>
      </trkpt>
      <trkpt lat="38.62841" lon="14.73416">
        <ele>1.58</ele>
        <time>2018-04-18T09:03:56Z</time>
      </trkpt>
      <trkpt lat="38.62835" lon="14.73356">
        <ele>2.54</ele>
        <time>2018-04-18T09:04:13Z</time>
      </trkpt>
      <trkpt lat="38.6283" lon="14.73288">
        <ele>1.58</ele>
        <time>2018-04-18T09:04:32Z</time>
      </trkpt>
      <trkpt lat="38.62815" lon="14.73236">
        <ele>1.1</ele>
        <time>2018-04-18T09:04:48Z</time>
      </trkpt>
      <trkpt lat="38.62802" lon="14.73179">
        <ele>1.1</ele>
        <time>2018-04-18T09:05:05Z</time>
      </trkpt>
      <trkpt lat="38.62791" lon="14.73123">
        <ele>2.06</ele>
        <time>2018-04-18T09:05:21Z</time>
      </trkpt>
      <trkpt lat="38.62782" lon="14.73063">
        <ele>2.54</ele>
        <time>2018-04-18T09:05:38Z</time>
      </trkpt>
      <trkpt lat="38.62773" lon="14.7299">
        <ele>3.02</ele>
        <time>2018-04-18T09:05:58Z</time>
      </trkpt>
      <trkpt lat="38.62764" lon="14.72906">
        <ele>3.02</ele>
        <time>2018-04-18T09:06:21Z</time>
      </trkpt>
      <trkpt lat="38.62757" lon="14.72837">
        <ele>3.02</ele>
        <time>2018-04-18T09:06:40Z</time>
      </trkpt>
      <trkpt lat="38.62752" lon="14.7277">
        <ele>1.58</ele>
        <time>2018-04-18T09:06:58Z</time>
      </trkpt>
      <trkpt lat="38.62749" lon="14.727">
        <ele>1.58</ele>
        <time>2018-04-18T09:07:17Z</time>
      </trkpt>
      <trkpt lat="38.62747" lon="14.72632">
        <ele>2.06</ele>
        <time>2018-04-18T09:07:35Z</time>
      </trkpt>
      <trkpt lat="38.62742" lon="14.72557">
        <ele>2.06</ele>
        <time>2018-04-18T09:07:55Z</time>
      </trkpt>
      <trkpt lat="38.62741" lon="14.72489">
        <ele>1.58</ele>
        <time>2018-04-18T09:08:13Z</time>
      </trkpt>
      <trkpt lat="38.62741" lon="14.72417">
        <ele>1.58</ele>
        <time>2018-04-18T09:08:32Z</time>
      </trkpt>
      <trkpt lat="38.62741" lon="14.7234">
        <ele>2.06</ele>
        <time>2018-04-18T09:08:52Z</time>
      </trkpt>
      <trkpt lat="38.62739" lon="14.72268">
        <ele>1.58</ele>
        <time>2018-04-18T09:09:11Z</time>
      </trkpt>
      <trkpt lat="38.62736" lon="14.72197">
        <ele>1.1</ele>
        <time>2018-04-18T09:09:30Z</time>
      </trkpt>
      <trkpt lat="38.62736" lon="14.72114">
        <ele>1.58</ele>
        <time>2018-04-18T09:09:52Z</time>
      </trkpt>
      <trkpt lat="38.62733" lon="14.72049">
        <ele>1.1</ele>
        <time>2018-04-18T09:10:09Z</time>
      </trkpt>
      <trkpt lat="38.62734" lon="14.71977">
        <ele>0.62</ele>
        <time>2018-04-18T09:10:28Z</time>
      </trkpt>
      <trkpt lat="38.62732" lon="14.71897">
        <ele>1.58</ele>
        <time>2018-04-18T09:10:49Z</time>
      </trkpt>
      <trkpt lat="38.6273" lon="14.71829">
        <ele>1.1</ele>
        <time>2018-04-18T09:11:07Z</time>
      </trkpt>
      <trkpt lat="38.62734" lon="14.71755">
        <ele>2.06</ele>
        <time>2018-04-18T09:11:26Z</time>
      </trkpt>
      <trkpt lat="38.62739" lon="14.71689">
        <ele>1.1</ele>
        <time>2018-04-18T09:11:43Z</time>
      </trkpt>
      <trkpt lat="38.62737" lon="14.71609">
        <ele>0.62</ele>
        <time>2018-04-18T09:12:04Z</time>
      </trkpt>
      <trkpt lat="38.62738" lon="14.71533">
        <ele>0.62</ele>
        <time>2018-04-18T09:12:24Z</time>
      </trkpt>
      <trkpt lat="38.62736" lon="14.71457">
        <ele>0.14</ele>
        <time>2018-04-18T09:12:44Z</time>
      </trkpt>
      <trkpt lat="38.62734" lon="14.71388">
        <ele>0.14</ele>
        <time>2018-04-18T09:13:02Z</time>
      </trkpt>
      <trkpt lat="38.62733" lon="14.71308">
        <ele>1.1</ele>
        <time>2018-04-18T09:13:23Z</time>
      </trkpt>
      <trkpt lat="38.62732" lon="14.71223">
        <ele>0.62</ele>
        <time>2018-04-18T09:13:45Z</time>
      </trkpt>
      <trkpt lat="38.62732" lon="14.7115">
        <ele>0.62</ele>
        <time>2018-04-18T09:14:04Z</time>
      </trkpt>
      <trkpt lat="38.62731" lon="14.71077">
        <ele>1.1</ele>
        <time>2018-04-18T09:14:23Z</time>
      </trkpt>
      <trkpt lat="38.62729" lon="14.70992">
        <ele>1.1</ele>
        <time>2018-04-18T09:14:45Z</time>
      </trkpt>
      <trkpt lat="38.62729" lon="14.70919">
        <ele>1.1</ele>
        <time>2018-04-18T09:15:04Z</time>
      </trkpt>
      <trkpt lat="38.62729" lon="14.70827">
        <ele>1.1</ele>
        <time>2018-04-18T09:15:28Z</time>
      </trkpt>
      <trkpt lat="38.62728" lon="14.7075">
        <ele>1.1</ele>
        <time>2018-04-18T09:15:48Z</time>
      </trkpt>
      <trkpt lat="38.62729" lon="14.70672">
        <ele>1.1</ele>
        <time>2018-04-18T09:16:08Z</time>
      </trkpt>
      <trkpt lat="38.62728" lon="14.70618">
        <ele>1.1</ele>
        <time>2018-04-18T09:16:22Z</time>
      </trkpt>
      <trkpt lat="38.62728" lon="14.7054">
        <ele>1.1</ele>
        <time>2018-04-18T09:16:42Z</time>
      </trkpt>
      <trkpt lat="38.62727" lon="14.70462">
        <ele>1.1</ele>
        <time>2018-04-18T09:17:02Z</time>
      </trkpt>
      <trkpt lat="38.62727" lon="14.70392">
        <ele>1.58</ele>
        <time>2018-04-18T09:17:20Z</time>
      </trkpt>
      <trkpt lat="38.62728" lon="14.70314">
        <ele>1.1</ele>
        <time>2018-04-18T09:17:40Z</time>
      </trkpt>
      <trkpt lat="38.62728" lon="14.70243">
        <ele>1.58</ele>
        <time>2018-04-18T09:17:59Z</time>
      </trkpt>
      <trkpt lat="38.6273" lon="14.70201">
        <ele>1.58</ele>
        <time>2018-04-18T09:18:15Z</time>
      </trkpt>
      <trkpt lat="38.62731" lon="14.70154">
        <ele>1.58</ele>
        <time>2018-04-18T09:18:31Z</time>
      </trkpt>
      <trkpt lat="38.62731" lon="14.7008">
        <ele>2.54</ele>
        <time>2018-04-18T09:18:51Z</time>
      </trkpt>
      <trkpt lat="38.62731" lon="14.70023">
        <ele>2.54</ele>
        <time>2018-04-18T09:19:06Z</time>
      </trkpt>
      <trkpt lat="38.6273" lon="14.69947">
        <ele>3.5</ele>
        <time>2018-04-18T09:19:26Z</time>
      </trkpt>
      <trkpt lat="38.6273" lon="14.6987">
        <ele>2.54</ele>
        <time>2018-04-18T09:19:46Z</time>
      </trkpt>
      <trkpt lat="38.62728" lon="14.6979">
        <ele>2.06</ele>
        <time>2018-04-18T09:20:07Z</time>
      </trkpt>
      <trkpt lat="38.62728" lon="14.69718">
        <ele>2.06</ele>
        <time>2018-04-18T09:20:26Z</time>
      </trkpt>
      <trkpt lat="38.62727" lon="14.69642">
        <ele>3.02</ele>
        <time>2018-04-18T09:20:46Z</time>
      </trkpt>
      <trkpt lat="38.62726" lon="14.69566">
        <ele>3.02</ele>
        <time>2018-04-18T09:21:06Z</time>
      </trkpt>
      <trkpt lat="38.6272" lon="14.69492">
        <ele>1.1</ele>
        <time>2018-04-18T09:21:26Z</time>
      </trkpt>
      <trkpt lat="38.62712" lon="14.69419">
        <ele>0.62</ele>
        <time>2018-04-18T09:21:46Z</time>
      </trkpt>
      <trkpt lat="38.62705" lon="14.69347">
        <ele>0.14</ele>
        <time>2018-04-18T09:22:06Z</time>
      </trkpt>
      <trkpt lat="38.62698" lon="14.69266">
        <ele>0.62</ele>
        <time>2018-04-18T09:22:28Z</time>
      </trkpt>
      <trkpt lat="38.62689" lon="14.69182">
        <ele>0.62</ele>
        <time>2018-04-18T09:22:51Z</time>
      </trkpt>
      <trkpt lat="38.62683" lon="14.69123">
        <ele>0.62</ele>
        <time>2018-04-18T09:23:07Z</time>
      </trkpt>
      <trkpt lat="38.62676" lon="14.6906">
        <ele>0.62</ele>
        <time>2018-04-18T09:23:24Z</time>
      </trkpt>
      <trkpt lat="38.62668" lon="14.69006">
        <ele>1.1</ele>
        <time>2018-04-18T09:23:39Z</time>
      </trkpt>
      <trkpt lat="38.62651" lon="14.68929">
        <ele>2.06</ele>
        <time>2018-04-18T09:24:01Z</time>
      </trkpt>
      <trkpt lat="38.62631" lon="14.68849">
        <ele>1.58</ele>
        <time>2018-04-18T09:24:24Z</time>
      </trkpt>
      <trkpt lat="38.62616" lon="14.6879">
        <ele>0.62</ele>
        <time>2018-04-18T09:24:41Z</time>
      </trkpt>
      <trkpt lat="38.626" lon="14.68727">
        <ele>1.1</ele>
        <time>2018-04-18T09:24:59Z</time>
      </trkpt>
      <trkpt lat="38.62582" lon="14.68658">
        <ele>1.58</ele>
        <time>2018-04-18T09:25:19Z</time>
      </trkpt>
      <trkpt lat="38.62561" lon="14.68582">
        <ele>3.02</ele>
        <time>2018-04-18T09:25:41Z</time>
      </trkpt>
      <trkpt lat="38.6254" lon="14.68503">
        <ele>2.54</ele>
        <time>2018-04-18T09:26:04Z</time>
      </trkpt>
      <trkpt lat="38.62525" lon="14.68443">
        <ele>2.06</ele>
        <time>2018-04-18T09:26:21Z</time>
      </trkpt>
      <trkpt lat="38.62508" lon="14.6838">
        <ele>1.58</ele>
        <time>2018-04-18T09:26:39Z</time>
      </trkpt>
      <trkpt lat="38.62493" lon="14.68317">
        <ele>1.58</ele>
        <time>2018-04-18T09:26:57Z</time>
      </trkpt>
      <trkpt lat="38.62478" lon="14.68257">
        <ele>1.58</ele>
        <time>2018-04-18T09:27:14Z</time>
      </trkpt>
      <trkpt lat="38.62464" lon="14.68201">
        <ele>2.06</ele>
        <time>2018-04-18T09:27:30Z</time>
      </trkpt>
      <trkpt lat="38.62447" lon="14.68134">
        <ele>1.1</ele>
        <time>2018-04-18T09:27:49Z</time>
      </trkpt>
      <trkpt lat="38.6243" lon="14.68067">
        <ele>0.62</ele>
        <time>2018-04-18T09:28:08Z</time>
      </trkpt>
      <trkpt lat="38.62412" lon="14.67994">
        <ele>0.62</ele>
        <time>2018-04-18T09:28:29Z</time>
      </trkpt>
      <trkpt lat="38.62392" lon="14.6792">
        <ele>1.58</ele>
        <time>2018-04-18T09:28:50Z</time>
      </trkpt>
      <trkpt lat="38.62373" lon="14.67847">
        <ele>1.58</ele>
        <time>2018-04-18T09:29:11Z</time>
      </trkpt>
      <trkpt lat="38.62357" lon="14.67784">
        <ele>1.58</ele>
        <time>2018-04-18T09:29:29Z</time>
      </trkpt>
      <trkpt lat="38.6234" lon="14.67718">
        <ele>2.06</ele>
        <time>2018-04-18T09:29:48Z</time>
      </trkpt>
      <trkpt lat="38.62327" lon="14.67662">
        <ele>1.58</ele>
        <time>2018-04-18T09:30:04Z</time>
      </trkpt>
      <trkpt lat="38.62309" lon="14.67593">
        <ele>1.58</ele>
        <time>2018-04-18T09:30:24Z</time>
      </trkpt>
      <trkpt lat="38.6229" lon="14.67517">
        <ele>2.54</ele>
        <time>2018-04-18T09:30:46Z</time>
      </trkpt>
      <trkpt lat="38.62276" lon="14.67462">
        <ele>3.02</ele>
        <time>2018-04-18T09:31:02Z</time>
      </trkpt>
      <trkpt lat="38.62257" lon="14.67394">
        <ele>3.5</ele>
        <time>2018-04-18T09:31:22Z</time>
      </trkpt>
      <trkpt lat="38.62242" lon="14.67336">
        <ele>3.5</ele>
        <time>2018-04-18T09:31:39Z</time>
      </trkpt>
      <trkpt lat="38.62225" lon="14.67271">
        <ele>3.98</ele>
        <time>2018-04-18T09:31:58Z</time>
      </trkpt>
      <trkpt lat="38.62208" lon="14.67206">
        <ele>2.54</ele>
        <time>2018-04-18T09:32:17Z</time>
      </trkpt>
      <trkpt lat="38.6219" lon="14.67137">
        <ele>2.06</ele>
        <time>2018-04-18T09:32:37Z</time>
      </trkpt>
      <trkpt lat="38.62172" lon="14.67068">
        <ele>2.54</ele>
        <time>2018-04-18T09:32:57Z</time>
      </trkpt>
      <trkpt lat="38.62154" lon="14.67003">
        <ele>2.06</ele>
        <time>2018-04-18T09:33:16Z</time>
      </trkpt>
      <trkpt lat="38.62134" lon="14.66931">
        <ele>2.54</ele>
        <time>2018-04-18T09:33:37Z</time>
      </trkpt>
      <trkpt lat="38.62118" lon="14.66869">
        <ele>2.54</ele>
        <time>2018-04-18T09:33:55Z</time>
      </trkpt>
      <trkpt lat="38.62102" lon="14.66811">
        <ele>2.54</ele>
        <time>2018-04-18T09:34:12Z</time>
      </trkpt>
      <trkpt lat="38.62087" lon="14.66753">
        <ele>2.54</ele>
        <time>2018-04-18T09:34:29Z</time>
      </trkpt>
      <trkpt lat="38.62073" lon="14.66702">
        <ele>3.02</ele>
        <time>2018-04-18T09:34:44Z</time>
      </trkpt>
      <trkpt lat="38.62054" lon="14.66638">
        <ele>3.5</ele>
        <time>2018-04-18T09:35:03Z</time>
      </trkpt>
      <trkpt lat="38.62038" lon="14.6658">
        <ele>3.98</ele>
        <time>2018-04-18T09:35:20Z</time>
      </trkpt>
      <trkpt lat="38.6202" lon="14.6652">
        <ele>3.98</ele>
        <time>2018-04-18T09:35:38Z</time>
      </trkpt>
      <trkpt lat="38.62001" lon="14.66456">
        <ele>3.5</ele>
        <time>2018-04-18T09:35:57Z</time>
      </trkpt>
      <trkpt lat="38.61983" lon="14.66399">
        <ele>4.46</ele>
        <time>2018-04-18T09:36:14Z</time>
      </trkpt>
      <trkpt lat="38.61959" lon="14.66321">
        <ele>3.98</ele>
        <time>2018-04-18T09:36:37Z</time>
      </trkpt>
      <trkpt lat="38.61943" lon="14.66271">
        <ele>3.98</ele>
        <time>2018-04-18T09:36:52Z</time>
      </trkpt>
      <trkpt lat="38.61922" lon="14.66204">
        <ele>3.98</ele>
        <time>2018-04-18T09:37:12Z</time>
      </trkpt>
      <trkpt lat="38.61905" lon="14.6615">
        <ele>4.46</ele>
        <time>2018-04-18T09:37:28Z</time>
      </trkpt>
      <trkpt lat="38.61882" lon="14.6608">
        <ele>4.94</ele>
        <time>2018-04-18T09:37:49Z</time>
      </trkpt>
      <trkpt lat="38.61862" lon="14.6602">
        <ele>4.46</ele>
        <time>2018-04-18T09:38:07Z</time>
      </trkpt>
      <trkpt lat="38.61845" lon="14.65967">
        <ele>4.46</ele>
        <time>2018-04-18T09:38:23Z</time>
      </trkpt>
      <trkpt lat="38.61824" lon="14.65907">
        <ele>4.94</ele>
        <time>2018-04-18T09:38:41Z</time>
      </trkpt>
      <trkpt lat="38.61804" lon="14.65847">
        <ele>4.46</ele>
        <time>2018-04-18T09:38:59Z</time>
      </trkpt>
      <trkpt lat="38.61784" lon="14.65786">
        <ele>3.98</ele>
        <time>2018-04-18T09:39:17Z</time>
      </trkpt>
      <trkpt lat="38.61765" lon="14.65716">
        <ele>3.98</ele>
        <time>2018-04-18T09:39:37Z</time>
      </trkpt>
      <trkpt lat="38.6175" lon="14.65649">
        <ele>3.5</ele>
        <time>2018-04-18T09:39:56Z</time>
      </trkpt>
      <trkpt lat="38.61737" lon="14.65596">
        <ele>3.5</ele>
        <time>2018-04-18T09:40:11Z</time>
      </trkpt>
      <trkpt lat="38.61719" lon="14.65528">
        <ele>2.54</ele>
        <time>2018-04-18T09:40:31Z</time>
      </trkpt>
      <trkpt lat="38.61701" lon="14.65467">
        <ele>3.02</ele>
        <time>2018-04-18T09:40:49Z</time>
      </trkpt>
      <trkpt lat="38.61686" lon="14.65415">
        <ele>3.5</ele>
        <time>2018-04-18T09:41:04Z</time>
      </trkpt>
      <trkpt lat="38.61667" lon="14.65355">
        <ele>3.5</ele>
        <time>2018-04-18T09:41:22Z</time>
      </trkpt>
      <trkpt lat="38.61652" lon="14.65296">
        <ele>2.54</ele>
        <time>2018-04-18T09:41:39Z</time>
      </trkpt>
      <trkpt lat="38.61636" lon="14.65233">
        <ele>2.54</ele>
        <time>2018-04-18T09:41:57Z</time>
      </trkpt>
      <trkpt lat="38.61621" lon="14.65177">
        <ele>2.06</ele>
        <time>2018-04-18T09:42:13Z</time>
      </trkpt>
      <trkpt lat="38.61605" lon="14.65118">
        <ele>2.06</ele>
        <time>2018-04-18T09:42:30Z</time>
      </trkpt>
      <trkpt lat="38.61585" lon="14.65049">
        <ele>2.06</ele>
        <time>2018-04-18T09:42:50Z</time>
      </trkpt>
      <trkpt lat="38.61569" lon="14.6499">
        <ele>2.54</ele>
        <time>2018-04-18T09:43:07Z</time>
      </trkpt>
      <trkpt lat="38.61552" lon="14.6493">
        <ele>2.54</ele>
        <time>2018-04-18T09:43:24Z</time>
      </trkpt>
      <trkpt lat="38.61535" lon="14.64872">
        <ele>2.54</ele>
        <time>2018-04-18T09:43:41Z</time>
      </trkpt>
      <trkpt lat="38.61517" lon="14.64805">
        <ele>2.54</ele>
        <time>2018-04-18T09:44:00Z</time>
      </trkpt>
      <trkpt lat="38.61497" lon="14.64734">
        <ele>2.54</ele>
        <time>2018-04-18T09:44:20Z</time>
      </trkpt>
      <trkpt lat="38.61477" lon="14.64664">
        <ele>2.06</ele>
        <time>2018-04-18T09:44:40Z</time>
      </trkpt>
      <trkpt lat="38.61454" lon="14.64587">
        <ele>1.58</ele>
        <time>2018-04-18T09:45:02Z</time>
      </trkpt>
      <trkpt lat="38.61436" lon="14.64524">
        <ele>2.06</ele>
        <time>2018-04-18T09:45:20Z</time>
      </trkpt>
      <trkpt lat="38.61417" lon="14.64457">
        <ele>2.06</ele>
        <time>2018-04-18T09:45:39Z</time>
      </trkpt>
      <trkpt lat="38.61396" lon="14.64388">
        <ele>3.5</ele>
        <time>2018-04-18T09:45:59Z</time>
      </trkpt>
      <trkpt lat="38.61376" lon="14.64317">
        <ele>2.54</ele>
        <time>2018-04-18T09:46:19Z</time>
      </trkpt>
      <trkpt lat="38.6136" lon="14.6426">
        <ele>2.54</ele>
        <time>2018-04-18T09:46:35Z</time>
      </trkpt>
      <trkpt lat="38.61336" lon="14.64174">
        <ele>2.54</ele>
        <time>2018-04-18T09:46:59Z</time>
      </trkpt>
      <trkpt lat="38.61316" lon="14.64107">
        <ele>2.06</ele>
        <time>2018-04-18T09:47:18Z</time>
      </trkpt>
      <trkpt lat="38.61299" lon="14.64047">
        <ele>2.54</ele>
        <time>2018-04-18T09:47:35Z</time>
      </trkpt>
      <trkpt lat="38.61284" lon="14.63994">
        <ele>2.54</ele>
        <time>2018-04-18T09:47:50Z</time>
      </trkpt>
      <trkpt lat="38.61265" lon="14.63927">
        <ele>1.58</ele>
        <time>2018-04-18T09:48:09Z</time>
      </trkpt>
      <trkpt lat="38.61246" lon="14.63863">
        <ele>2.06</ele>
        <time>2018-04-18T09:48:27Z</time>
      </trkpt>
      <trkpt lat="38.61227" lon="14.63796">
        <ele>1.58</ele>
        <time>2018-04-18T09:48:46Z</time>
      </trkpt>
      <trkpt lat="38.61206" lon="14.63721">
        <ele>1.58</ele>
        <time>2018-04-18T09:49:07Z</time>
      </trkpt>
      <trkpt lat="38.61188" lon="14.63657">
        <ele>1.58</ele>
        <time>2018-04-18T09:49:25Z</time>
      </trkpt>
      <trkpt lat="38.61167" lon="14.63585">
        <ele>0.62</ele>
        <time>2018-04-18T09:49:45Z</time>
      </trkpt>
      <trkpt lat="38.61148" lon="14.63518">
        <ele>0.62</ele>
        <time>2018-04-18T09:50:04Z</time>
      </trkpt>
      <trkpt lat="38.6113" lon="14.63454">
        <ele>1.1</ele>
        <time>2018-04-18T09:50:22Z</time>
      </trkpt>
      <trkpt lat="38.61113" lon="14.63394">
        <ele>1.58</ele>
        <time>2018-04-18T09:50:39Z</time>
      </trkpt>
      <trkpt lat="38.61093" lon="14.63323">
        <ele>1.58</ele>
        <time>2018-04-18T09:50:59Z</time>
      </trkpt>
      <trkpt lat="38.61078" lon="14.63266">
        <ele>2.06</ele>
        <time>2018-04-18T09:51:15Z</time>
      </trkpt>
      <trkpt lat="38.61062" lon="14.6321">
        <ele>2.06</ele>
        <time>2018-04-18T09:51:31Z</time>
      </trkpt>
      <trkpt lat="38.61047" lon="14.6316">
        <ele>1.58</ele>
        <time>2018-04-18T09:51:45Z</time>
      </trkpt>
      <trkpt lat="38.61029" lon="14.63088">
        <ele>2.54</ele>
        <time>2018-04-18T09:52:05Z</time>
      </trkpt>
      <trkpt lat="38.61012" lon="14.6302">
        <ele>2.54</ele>
        <time>2018-04-18T09:52:24Z</time>
      </trkpt>
      <trkpt lat="38.60996" lon="14.62956">
        <ele>2.54</ele>
        <time>2018-04-18T09:52:42Z</time>
      </trkpt>
      <trkpt lat="38.6098" lon="14.62895">
        <ele>2.06</ele>
        <time>2018-04-18T09:52:59Z</time>
      </trkpt>
      <trkpt lat="38.60962" lon="14.6282">
        <ele>2.06</ele>
        <time>2018-04-18T09:53:20Z</time>
      </trkpt>
      <trkpt lat="38.60943" lon="14.62749">
        <ele>1.58</ele>
        <time>2018-04-18T09:53:40Z</time>
      </trkpt>
      <trkpt lat="38.60928" lon="14.62692">
        <ele>2.06</ele>
        <time>2018-04-18T09:53:56Z</time>
      </trkpt>
      <trkpt lat="38.60911" lon="14.62621">
        <ele>3.02</ele>
        <time>2018-04-18T09:54:16Z</time>
      </trkpt>
      <trkpt lat="38.60896" lon="14.62564">
        <ele>2.54</ele>
        <time>2018-04-18T09:54:32Z</time>
      </trkpt>
      <trkpt lat="38.60874" lon="14.62486">
        <ele>3.02</ele>
        <time>2018-04-18T09:54:54Z</time>
      </trkpt>
      <trkpt lat="38.60856" lon="14.6242">
        <ele>3.02</ele>
        <time>2018-04-18T09:55:13Z</time>
      </trkpt>
      <trkpt lat="38.60836" lon="14.62349">
        <ele>3.5</ele>
        <time>2018-04-18T09:55:34Z</time>
      </trkpt>
      <trkpt lat="38.60816" lon="14.62278">
        <ele>3.02</ele>
        <time>2018-04-18T09:55:55Z</time>
      </trkpt>
      <trkpt lat="38.60797" lon="14.62211">
        <ele>3.02</ele>
        <time>2018-04-18T09:56:15Z</time>
      </trkpt>
      <trkpt lat="38.60781" lon="14.62153">
        <ele>3.02</ele>
        <time>2018-04-18T09:56:32Z</time>
      </trkpt>
      <trkpt lat="38.6076" lon="14.62082">
        <ele>2.54</ele>
        <time>2018-04-18T09:56:53Z</time>
      </trkpt>
      <trkpt lat="38.60742" lon="14.62018">
        <ele>2.54</ele>
        <time>2018-04-18T09:57:12Z</time>
      </trkpt>
      <trkpt lat="38.60724" lon="14.61954">
        <ele>3.5</ele>
        <time>2018-04-18T09:57:31Z</time>
      </trkpt>
      <trkpt lat="38.60706" lon="14.61894">
        <ele>3.02</ele>
        <time>2018-04-18T09:57:49Z</time>
      </trkpt>
      <trkpt lat="38.60683" lon="14.61814">
        <ele>3.02</ele>
        <time>2018-04-18T09:58:13Z</time>
      </trkpt>
      <trkpt lat="38.60668" lon="14.61762">
        <ele>3.5</ele>
        <time>2018-04-18T09:58:29Z</time>
      </trkpt>
      <trkpt lat="38.60652" lon="14.6171">
        <ele>3.5</ele>
        <time>2018-04-18T09:58:45Z</time>
      </trkpt>
      <trkpt lat="38.60631" lon="14.61634">
        <ele>3.02</ele>
        <time>2018-04-18T09:59:08Z</time>
      </trkpt>
      <trkpt lat="38.60613" lon="14.61572">
        <ele>3.02</ele>
        <time>2018-04-18T09:59:28Z</time>
      </trkpt>
      <trkpt lat="38.606" lon="14.61529">
        <ele>3.02</ele>
        <time>2018-04-18T09:59:45Z</time>
      </trkpt>
      <trkpt lat="38.60588" lon="14.61485">
        <ele>3.5</ele>
        <time>2018-04-18T10:00:04Z</time>
      </trkpt>
      <trkpt lat="38.60578" lon="14.61449">
        <ele>3.02</ele>
        <time>2018-04-18T10:00:18Z</time>
      </trkpt>
      <trkpt lat="38.60562" lon="14.6139">
        <ele>2.54</ele>
        <time>2018-04-18T10:00:37Z</time>
      </trkpt>
      <trkpt lat="38.6054" lon="14.61311">
        <ele>2.54</ele>
        <time>2018-04-18T10:01:01Z</time>
      </trkpt>
      <trkpt lat="38.6052" lon="14.61237">
        <ele>2.06</ele>
        <time>2018-04-18T10:01:23Z</time>
      </trkpt>
      <trkpt lat="38.60504" lon="14.6118">
        <ele>3.02</ele>
        <time>2018-04-18T10:01:40Z</time>
      </trkpt>
      <trkpt lat="38.6049" lon="14.61129">
        <ele>2.06</ele>
        <time>2018-04-18T10:01:55Z</time>
      </trkpt>
      <trkpt lat="38.60469" lon="14.61051">
        <ele>2.06</ele>
        <time>2018-04-18T10:02:18Z</time>
      </trkpt>
      <trkpt lat="38.60453" lon="14.60994">
        <ele>2.54</ele>
        <time>2018-04-18T10:02:35Z</time>
      </trkpt>
      <trkpt lat="38.60438" lon="14.6094">
        <ele>2.54</ele>
        <time>2018-04-18T10:02:51Z</time>
      </trkpt>
      <trkpt lat="38.60421" lon="14.60876">
        <ele>2.06</ele>
        <time>2018-04-18T10:03:10Z</time>
      </trkpt>
      <trkpt lat="38.60401" lon="14.60806">
        <ele>2.06</ele>
        <time>2018-04-18T10:03:30Z</time>
      </trkpt>
      <trkpt lat="38.60383" lon="14.60742">
        <ele>2.06</ele>
        <time>2018-04-18T10:03:48Z</time>
      </trkpt>
      <trkpt lat="38.60363" lon="14.60672">
        <ele>2.06</ele>
        <time>2018-04-18T10:04:08Z</time>
      </trkpt>
      <trkpt lat="38.60345" lon="14.60608">
        <ele>1.1</ele>
        <time>2018-04-18T10:04:26Z</time>
      </trkpt>
      <trkpt lat="38.60325" lon="14.60536">
        <ele>2.06</ele>
        <time>2018-04-18T10:04:46Z</time>
      </trkpt>
      <trkpt lat="38.60305" lon="14.60465">
        <ele>2.06</ele>
        <time>2018-04-18T10:05:06Z</time>
      </trkpt>
      <trkpt lat="38.60289" lon="14.60409">
        <ele>1.58</ele>
        <time>2018-04-18T10:05:22Z</time>
      </trkpt>
      <trkpt lat="38.60267" lon="14.60338">
        <ele>2.54</ele>
        <time>2018-04-18T10:05:42Z</time>
      </trkpt>
      <trkpt lat="38.6025" lon="14.60278">
        <ele>3.02</ele>
        <time>2018-04-18T10:05:59Z</time>
      </trkpt>
      <trkpt lat="38.60231" lon="14.60214">
        <ele>2.06</ele>
        <time>2018-04-18T10:06:17Z</time>
      </trkpt>
      <trkpt lat="38.60211" lon="14.60147">
        <ele>1.1</ele>
        <time>2018-04-18T10:06:36Z</time>
      </trkpt>
      <trkpt lat="38.60189" lon="14.60065">
        <ele>1.58</ele>
        <time>2018-04-18T10:06:59Z</time>
      </trkpt>
      <trkpt lat="38.60166" lon="14.59986">
        <ele>2.54</ele>
        <time>2018-04-18T10:07:21Z</time>
      </trkpt>
      <trkpt lat="38.60147" lon="14.5992">
        <ele>3.02</ele>
        <time>2018-04-18T10:07:40Z</time>
      </trkpt>
      <trkpt lat="38.60129" lon="14.59852">
        <ele>3.5</ele>
        <time>2018-04-18T10:07:59Z</time>
      </trkpt>
      <trkpt lat="38.60109" lon="14.59782">
        <ele>3.5</ele>
        <time>2018-04-18T10:08:19Z</time>
      </trkpt>
      <trkpt lat="38.60089" lon="14.59709">
        <ele>2.06</ele>
        <time>2018-04-18T10:08:40Z</time>
      </trkpt>
      <trkpt lat="38.60071" lon="14.59646">
        <ele>3.02</ele>
        <time>2018-04-18T10:08:58Z</time>
      </trkpt>
      <trkpt lat="38.60053" lon="14.5958">
        <ele>3.02</ele>
        <time>2018-04-18T10:09:17Z</time>
      </trkpt>
      <trkpt lat="38.60036" lon="14.59517">
        <ele>3.02</ele>
        <time>2018-04-18T10:09:35Z</time>
      </trkpt>
      <trkpt lat="38.60019" lon="14.59453">
        <ele>2.54</ele>
        <time>2018-04-18T10:09:53Z</time>
      </trkpt>
      <trkpt lat="38.60001" lon="14.59383">
        <ele>3.02</ele>
        <time>2018-04-18T10:10:13Z</time>
      </trkpt>
      <trkpt lat="38.59982" lon="14.59313">
        <ele>2.54</ele>
        <time>2018-04-18T10:10:33Z</time>
      </trkpt>
      <trkpt lat="38.59964" lon="14.59249">
        <ele>2.54</ele>
        <time>2018-04-18T10:10:51Z</time>
      </trkpt>
      <trkpt lat="38.59946" lon="14.59182">
        <ele>2.06</ele>
        <time>2018-04-18T10:11:10Z</time>
      </trkpt>
      <trkpt lat="38.59926" lon="14.59111">
        <ele>3.02</ele>
        <time>2018-04-18T10:11:30Z</time>
      </trkpt>
      <trkpt lat="38.59907" lon="14.59039">
        <ele>2.54</ele>
        <time>2018-04-18T10:11:50Z</time>
      </trkpt>
      <trkpt lat="38.59885" lon="14.58958">
        <ele>2.54</ele>
        <time>2018-04-18T10:12:13Z</time>
      </trkpt>
      <trkpt lat="38.59865" lon="14.58883">
        <ele>3.02</ele>
        <time>2018-04-18T10:12:34Z</time>
      </trkpt>
      <trkpt lat="38.59843" lon="14.58798">
        <ele>3.02</ele>
        <time>2018-04-18T10:12:58Z</time>
      </trkpt>
      <trkpt lat="38.59823" lon="14.58723">
        <ele>3.5</ele>
        <time>2018-04-18T10:13:19Z</time>
      </trkpt>
      <trkpt lat="38.59804" lon="14.58647">
        <ele>3.5</ele>
        <time>2018-04-18T10:13:40Z</time>
      </trkpt>
      <trkpt lat="38.59787" lon="14.58583">
        <ele>3.02</ele>
        <time>2018-04-18T10:13:58Z</time>
      </trkpt>
      <trkpt lat="38.59769" lon="14.58509">
        <ele>3.02</ele>
        <time>2018-04-18T10:14:19Z</time>
      </trkpt>
      <trkpt lat="38.5977" lon="14.58471">
        <ele>1.1</ele>
        <time>2018-04-18T10:14:34Z</time>
      </trkpt>
      <trkpt lat="38.59787" lon="14.58441">
        <ele>-3.23</ele>
        <time>2018-04-18T10:14:51Z</time>
      </trkpt>
      <trkpt lat="38.59813" lon="14.58415">
        <ele>-1.79</ele>
        <time>2018-04-18T10:15:12Z</time>
      </trkpt>
      <trkpt lat="38.59831" lon="14.58399">
        <ele>-1.3</ele>
        <time>2018-04-18T10:15:29Z</time>
      </trkpt>
      <trkpt lat="38.59855" lon="14.58382">
        <ele>-0.82</ele>
        <time>2018-04-18T10:15:49Z</time>
      </trkpt>
      <trkpt lat="38.59877" lon="14.58367">
        <ele>-1.3</ele>
        <time>2018-04-18T10:16:06Z</time>
      </trkpt>
      <trkpt lat="38.59899" lon="14.58353">
        <ele>0.62</ele>
        <time>2018-04-18T10:16:23Z</time>
      </trkpt>
      <trkpt lat="38.59918" lon="14.58343">
        <ele>1.58</ele>
        <time>2018-04-18T10:16:38Z</time>
      </trkpt>
      <trkpt lat="38.59945" lon="14.58347">
        <ele>3.98</ele>
        <time>2018-04-18T10:16:59Z</time>
      </trkpt>
      <trkpt lat="38.5997" lon="14.58351">
        <ele>3.5</ele>
        <time>2018-04-18T10:17:18Z</time>
      </trkpt>
      <trkpt lat="38.59992" lon="14.58359">
        <ele>3.5</ele>
        <time>2018-04-18T10:17:35Z</time>
      </trkpt>
      <trkpt lat="38.60019" lon="14.58367">
        <ele>3.5</ele>
        <time>2018-04-18T10:17:54Z</time>
      </trkpt>
      <trkpt lat="38.60044" lon="14.58373">
        <ele>3.02</ele>
        <time>2018-04-18T10:18:12Z</time>
      </trkpt>
      <trkpt lat="38.60075" lon="14.58378">
        <ele>3.02</ele>
        <time>2018-04-18T10:18:34Z</time>
      </trkpt>
      <trkpt lat="38.60104" lon="14.58381">
        <ele>2.54</ele>
        <time>2018-04-18T10:18:54Z</time>
      </trkpt>
      <trkpt lat="38.60117" lon="14.58361">
        <ele>1.58</ele>
        <time>2018-04-18T10:19:10Z</time>
      </trkpt>
      <trkpt lat="38.60111" lon="14.58333">
        <ele>2.54</ele>
        <time>2018-04-18T10:19:26Z</time>
      </trkpt>
      <trkpt lat="38.6011" lon="14.58298">
        <ele>2.54</ele>
        <time>2018-04-18T10:19:44Z</time>
      </trkpt>
      <trkpt lat="38.60102" lon="14.5826">
        <ele>3.5</ele>
        <time>2018-04-18T10:20:01Z</time>
      </trkpt>
      <trkpt lat="38.6009" lon="14.58227">
        <ele>2.06</ele>
        <time>2018-04-18T10:20:14Z</time>
      </trkpt>
      <trkpt lat="38.6007" lon="14.58189">
        <ele>1.58</ele>
        <time>2018-04-18T10:20:30Z</time>
      </trkpt>
      <trkpt lat="38.60049" lon="14.58146">
        <ele>1.58</ele>
        <time>2018-04-18T10:20:46Z</time>
      </trkpt>
      <trkpt lat="38.60033" lon="14.58114">
        <ele>1.1</ele>
        <time>2018-04-18T10:20:57Z</time>
      </trkpt>
      <trkpt lat="38.60006" lon="14.58062">
        <ele>2.54</ele>
        <time>2018-04-18T10:21:15Z</time>
      </trkpt>
      <trkpt lat="38.59987" lon="14.58017">
        <ele>1.58</ele>
        <time>2018-04-18T10:21:30Z</time>
      </trkpt>
      <trkpt lat="38.59971" lon="14.5797">
        <ele>1.58</ele>
        <time>2018-04-18T10:21:45Z</time>
      </trkpt>
      <trkpt lat="38.59956" lon="14.57928">
        <ele>1.58</ele>
        <time>2018-04-18T10:21:58Z</time>
      </trkpt>
      <trkpt lat="38.59936" lon="14.57878">
        <ele>0.62</ele>
        <time>2018-04-18T10:22:14Z</time>
      </trkpt>
      <trkpt lat="38.59915" lon="14.57821">
        <ele>1.1</ele>
        <time>2018-04-18T10:22:32Z</time>
      </trkpt>
      <trkpt lat="38.59896" lon="14.5776">
        <ele>2.06</ele>
        <time>2018-04-18T10:22:51Z</time>
      </trkpt>
      <trkpt lat="38.5988" lon="14.57704">
        <ele>2.54</ele>
        <time>2018-04-18T10:23:08Z</time>
      </trkpt>
      <trkpt lat="38.5986" lon="14.57639">
        <ele>2.54</ele>
        <time>2018-04-18T10:23:28Z</time>
      </trkpt>
      <trkpt lat="38.59836" lon="14.57574">
        <ele>3.02</ele>
        <time>2018-04-18T10:23:49Z</time>
      </trkpt>
      <trkpt lat="38.59817" lon="14.57528">
        <ele>1.58</ele>
        <time>2018-04-18T10:24:04Z</time>
      </trkpt>
      <trkpt lat="38.598" lon="14.57466">
        <ele>2.54</ele>
        <time>2018-04-18T10:24:23Z</time>
      </trkpt>
      <trkpt lat="38.59778" lon="14.5741">
        <ele>2.54</ele>
        <time>2018-04-18T10:24:41Z</time>
      </trkpt>
      <trkpt lat="38.59772" lon="14.57348">
        <ele>2.06</ele>
        <time>2018-04-18T10:24:59Z</time>
      </trkpt>
      <trkpt lat="38.5976" lon="14.57282">
        <ele>3.5</ele>
        <time>2018-04-18T10:25:18Z</time>
      </trkpt>
      <trkpt lat="38.59748" lon="14.57206">
        <ele>2.54</ele>
        <time>2018-04-18T10:25:39Z</time>
      </trkpt>
      <trkpt lat="38.59738" lon="14.57134">
        <ele>2.54</ele>
        <time>2018-04-18T10:25:59Z</time>
      </trkpt>
      <trkpt lat="38.59729" lon="14.57069">
        <ele>2.06</ele>
        <time>2018-04-18T10:26:17Z</time>
      </trkpt>
      <trkpt lat="38.59718" lon="14.57001">
        <ele>2.54</ele>
        <time>2018-04-18T10:26:36Z</time>
      </trkpt>
      <trkpt lat="38.59699" lon="14.56936">
        <ele>3.02</ele>
        <time>2018-04-18T10:26:55Z</time>
      </trkpt>
      <trkpt lat="38.59687" lon="14.56864">
        <ele>3.98</ele>
        <time>2018-04-18T10:27:15Z</time>
      </trkpt>
      <trkpt lat="38.59677" lon="14.56799">
        <ele>2.54</ele>
        <time>2018-04-18T10:27:33Z</time>
      </trkpt>
      <trkpt lat="38.59675" lon="14.5674">
        <ele>0.14</ele>
        <time>2018-04-18T10:27:49Z</time>
      </trkpt>
      <trkpt lat="38.59672" lon="14.56685">
        <ele>0.62</ele>
        <time>2018-04-18T10:28:04Z</time>
      </trkpt>
      <trkpt lat="38.5966" lon="14.5661">
        <ele>2.06</ele>
        <time>2018-04-18T10:28:25Z</time>
      </trkpt>
      <trkpt lat="38.59651" lon="14.56541">
        <ele>2.06</ele>
        <time>2018-04-18T10:28:44Z</time>
      </trkpt>
      <trkpt lat="38.59637" lon="14.56463">
        <ele>2.54</ele>
        <time>2018-04-18T10:29:06Z</time>
      </trkpt>
      <trkpt lat="38.59622" lon="14.56392">
        <ele>3.02</ele>
        <time>2018-04-18T10:29:26Z</time>
      </trkpt>
      <trkpt lat="38.59606" lon="14.56318">
        <ele>3.5</ele>
        <time>2018-04-18T10:29:47Z</time>
      </trkpt>
      <trkpt lat="38.59594" lon="14.56261">
        <ele>3.5</ele>
        <time>2018-04-18T10:30:03Z</time>
      </trkpt>
      <trkpt lat="38.59579" lon="14.56202">
        <ele>3.98</ele>
        <time>2018-04-18T10:30:20Z</time>
      </trkpt>
      <trkpt lat="38.59565" lon="14.56146">
        <ele>3.02</ele>
        <time>2018-04-18T10:30:36Z</time>
      </trkpt>
      <trkpt lat="38.59551" lon="14.5609">
        <ele>3.5</ele>
        <time>2018-04-18T10:30:52Z</time>
      </trkpt>
      <trkpt lat="38.59537" lon="14.5603">
        <ele>3.5</ele>
        <time>2018-04-18T10:31:09Z</time>
      </trkpt>
      <trkpt lat="38.5952" lon="14.55968">
        <ele>3.5</ele>
        <time>2018-04-18T10:31:27Z</time>
      </trkpt>
      <trkpt lat="38.59497" lon="14.55908">
        <ele>2.06</ele>
        <time>2018-04-18T10:31:45Z</time>
      </trkpt>
      <trkpt lat="38.59476" lon="14.55854">
        <ele>0.62</ele>
        <time>2018-04-18T10:32:02Z</time>
      </trkpt>
      <trkpt lat="38.59455" lon="14.55798">
        <ele>0.62</ele>
        <time>2018-04-18T10:32:19Z</time>
      </trkpt>
      <trkpt lat="38.5944" lon="14.55748">
        <ele>1.1</ele>
        <time>2018-04-18T10:32:34Z</time>
      </trkpt>
      <trkpt lat="38.59426" lon="14.55697">
        <ele>2.06</ele>
        <time>2018-04-18T10:32:49Z</time>
      </trkpt>
      <trkpt lat="38.59409" lon="14.55621">
        <ele>2.06</ele>
        <time>2018-04-18T10:33:11Z</time>
      </trkpt>
      <trkpt lat="38.59403" lon="14.5557">
        <ele>1.58</ele>
        <time>2018-04-18T10:33:26Z</time>
      </trkpt>
      <trkpt lat="38.59397" lon="14.5552">
        <ele>2.06</ele>
        <time>2018-04-18T10:33:41Z</time>
      </trkpt>
      <trkpt lat="38.5938" lon="14.55452">
        <ele>0.62</ele>
        <time>2018-04-18T10:34:01Z</time>
      </trkpt>
      <trkpt lat="38.59362" lon="14.55381">
        <ele>0.14</ele>
        <time>2018-04-18T10:34:22Z</time>
      </trkpt>
      <trkpt lat="38.59344" lon="14.55322">
        <ele>0.62</ele>
        <time>2018-04-18T10:34:40Z</time>
      </trkpt>
      <trkpt lat="38.59331" lon="14.55277">
        <ele>0.62</ele>
        <time>2018-04-18T10:34:53Z</time>
      </trkpt>
      <trkpt lat="38.59312" lon="14.55235">
        <ele>0.14</ele>
        <time>2018-04-18T10:35:07Z</time>
      </trkpt>
      <trkpt lat="38.59286" lon="14.55186">
        <ele>-0.82</ele>
        <time>2018-04-18T10:35:24Z</time>
      </trkpt>
      <trkpt lat="38.59263" lon="14.5514">
        <ele>-0.34</ele>
        <time>2018-04-18T10:35:39Z</time>
      </trkpt>
      <trkpt lat="38.59238" lon="14.551">
        <ele>0.14</ele>
        <time>2018-04-18T10:35:58Z</time>
      </trkpt>
      <trkpt lat="38.59212" lon="14.55068">
        <ele>0.14</ele>
        <time>2018-04-18T10:36:21Z</time>
      </trkpt>
      <trkpt lat="38.59191" lon="14.55047">
        <ele>0.62</ele>
        <time>2018-04-18T10:36:40Z</time>
      </trkpt>
      <trkpt lat="38.59167" lon="14.55029">
        <ele>0.62</ele>
        <time>2018-04-18T10:37:02Z</time>
      </trkpt>
      <trkpt lat="38.59144" lon="14.55015">
        <ele>0.62</ele>
        <time>2018-04-18T10:37:22Z</time>
      </trkpt>
      <trkpt lat="38.59122" lon="14.55005">
        <ele>1.1</ele>
        <time>2018-04-18T10:37:41Z</time>
      </trkpt>
      <trkpt lat="38.59098" lon="14.54997">
        <ele>2.06</ele>
        <time>2018-04-18T10:38:02Z</time>
      </trkpt>
      <trkpt lat="38.59069" lon="14.54986">
        <ele>2.54</ele>
        <time>2018-04-18T10:38:21Z</time>
      </trkpt>
      <trkpt lat="38.59038" lon="14.54973">
        <ele>3.02</ele>
        <time>2018-04-18T10:38:39Z</time>
      </trkpt>
      <trkpt lat="38.59011" lon="14.54963">
        <ele>4.46</ele>
        <time>2018-04-18T10:38:55Z</time>
      </trkpt>
      <trkpt lat="38.58979" lon="14.54962">
        <ele>3.5</ele>
        <time>2018-04-18T10:39:16Z</time>
      </trkpt>
      <trkpt lat="38.58952" lon="14.54957">
        <ele>3.5</ele>
        <time>2018-04-18T10:39:35Z</time>
      </trkpt>
      <trkpt lat="38.58919" lon="14.54946">
        <ele>4.94</ele>
        <time>2018-04-18T10:39:56Z</time>
      </trkpt>
      <trkpt lat="38.58894" lon="14.54937">
        <ele>3.98</ele>
        <time>2018-04-18T10:40:12Z</time>
      </trkpt>
      <trkpt lat="38.58868" lon="14.54924">
        <ele>3.98</ele>
        <time>2018-04-18T10:40:29Z</time>
      </trkpt>
      <trkpt lat="38.58841" lon="14.54915">
        <ele>4.94</ele>
        <time>2018-04-18T10:40:47Z</time>
      </trkpt>
      <trkpt lat="38.58808" lon="14.54912">
        <ele>3.98</ele>
        <time>2018-04-18T10:41:08Z</time>
      </trkpt>
      <trkpt lat="38.58783" lon="14.54919">
        <ele>3.5</ele>
        <time>2018-04-18T10:41:27Z</time>
      </trkpt>
      <trkpt lat="38.58758" lon="14.54921">
        <ele>3.02</ele>
        <time>2018-04-18T10:41:49Z</time>
      </trkpt>
      <trkpt lat="38.58735" lon="14.54922">
        <ele>3.5</ele>
        <time>2018-04-18T10:42:11Z</time>
      </trkpt>
      <trkpt lat="38.58711" lon="14.54924">
        <ele>3.98</ele>
        <time>2018-04-18T10:42:35Z</time>
      </trkpt>
      <trkpt lat="38.58707" lon="14.54924">
        <ele>3.5</ele>
        <time>2018-04-18T10:42:57Z</time>
      </trkpt>
      <trkpt lat="38.58706" lon="14.54923">
        <ele>4.46</ele>
        <time>2018-04-18T10:43:18Z</time>
      </trkpt>
      <trkpt lat="38.58705" lon="14.54919">
        <ele>5.42</ele>
        <time>2018-04-18T10:43:39Z</time>
      </trkpt>
      <trkpt lat="38.58703" lon="14.54913">
        <ele>5.42</ele>
        <time>2018-04-18T10:43:54Z</time>
      </trkpt>
      <trkpt lat="38.58702" lon="14.54909">
        <ele>4.46</ele>
        <time>2018-04-18T10:44:13Z</time>
      </trkpt>
      <trkpt lat="38.587" lon="14.54905">
        <ele>3.98</ele>
        <time>2018-04-18T10:44:33Z</time>
      </trkpt>
      <trkpt lat="38.58699" lon="14.549">
        <ele>3.98</ele>
        <time>2018-04-18T10:44:57Z</time>
      </trkpt>
      <trkpt lat="38.58699" lon="14.54897">
        <ele>3.98</ele>
        <time>2018-04-18T10:45:19Z</time>
      </trkpt>
      <trkpt lat="38.58698" lon="14.54893">
        <ele>4.46</ele>
        <time>2018-04-18T10:45:36Z</time>
      </trkpt>
      <trkpt lat="38.58697" lon="14.5489">
        <ele>4.46</ele>
        <time>2018-04-18T10:45:58Z</time>
      </trkpt>
      <trkpt lat="38.58695" lon="14.54888">
        <ele>3.5</ele>
        <time>2018-04-18T10:46:20Z</time>
      </trkpt>
      <trkpt lat="38.58694" lon="14.54886">
        <ele>3.5</ele>
        <time>2018-04-18T10:46:42Z</time>
      </trkpt>
      <trkpt lat="38.58693" lon="14.54885">
        <ele>3.5</ele>
        <time>2018-04-18T10:47:02Z</time>
      </trkpt>
      <trkpt lat="38.58692" lon="14.54885">
        <ele>3.02</ele>
        <time>2018-04-18T10:47:26Z</time>
      </trkpt>
      <trkpt lat="38.5869" lon="14.54884">
        <ele>2.54</ele>
        <time>2018-04-18T10:47:48Z</time>
      </trkpt>
      <trkpt lat="38.5869" lon="14.54884">
        <ele>2.06</ele>
        <time>2018-04-18T10:48:08Z</time>
      </trkpt>
      <trkpt lat="38.58689" lon="14.54883">
        <ele>2.06</ele>
        <time>2018-04-18T10:48:28Z</time>
      </trkpt>
      <trkpt lat="38.58687" lon="14.54883">
        <ele>2.54</ele>
        <time>2018-04-18T10:48:50Z</time>
      </trkpt>
      <trkpt lat="38.58686" lon="14.54883">
        <ele>2.54</ele>
        <time>2018-04-18T10:49:16Z</time>
      </trkpt>
      <trkpt lat="38.58686" lon="14.54883">
        <ele>2.54</ele>
        <time>2018-04-18T10:49:39Z</time>
      </trkpt>
      <trkpt lat="38.58686" lon="14.54884">
        <ele>2.54</ele>
        <time>2018-04-18T10:50:03Z</time>
      </trkpt>
      <trkpt lat="38.58686" lon="14.54884">
        <ele>2.06</ele>
        <time>2018-04-18T10:50:25Z</time>
      </trkpt>
      <trkpt lat="38.58686" lon="14.54885">
        <ele>2.06</ele>
        <time>2018-04-18T10:50:32Z</time>
      </trkpt>
      <trkpt lat="38.58664" lon="14.54877">
        <ele>-5.15</ele>
        <time>2018-04-18T11:57:04Z</time>
      </trkpt>
      <trkpt lat="38.58679" lon="14.54879">
        <ele>-3.71</ele>
        <time>2018-04-18T11:57:06Z</time>
      </trkpt>
      <trkpt lat="38.58694" lon="14.54888">
        <ele>0.62</ele>
        <time>2018-04-18T11:57:13Z</time>
      </trkpt>
      <trkpt lat="38.58692" lon="14.5489">
        <ele>0.62</ele>
        <time>2018-04-18T11:57:24Z</time>
      </trkpt>
      <trkpt lat="38.5869" lon="14.54893">
        <ele>-3.23</ele>
        <time>2018-04-18T11:57:34Z</time>
      </trkpt>
      <trkpt lat="38.58688" lon="14.54893">
        <ele>-4.67</ele>
        <time>2018-04-18T11:57:47Z</time>
      </trkpt>
      <trkpt lat="38.58688" lon="14.54899">
        <ele>-3.71</ele>
        <time>2018-04-18T11:58:02Z</time>
      </trkpt>
      <trkpt lat="38.5869" lon="14.54899">
        <ele>-2.27</ele>
        <time>2018-04-18T11:58:16Z</time>
      </trkpt>
      <trkpt lat="38.5869" lon="14.549">
        <ele>-1.3</ele>
        <time>2018-04-18T11:58:26Z</time>
      </trkpt>
      <trkpt lat="38.5869" lon="14.54902">
        <ele>-1.79</ele>
        <time>2018-04-18T11:58:43Z</time>
      </trkpt>
      <trkpt lat="38.5869" lon="14.54901">
        <ele>-0.82</ele>
        <time>2018-04-18T11:58:56Z</time>
      </trkpt>
      <trkpt lat="38.5869" lon="14.54905">
        <ele>-1.3</ele>
        <time>2018-04-18T11:59:16Z</time>
      </trkpt>
      <trkpt lat="38.58691" lon="14.54907">
        <ele>-0.34</ele>
        <time>2018-04-18T11:59:28Z</time>
      </trkpt>
      <trkpt lat="38.58691" lon="14.54908">
        <ele>-0.82</ele>
        <time>2018-04-18T11:59:38Z</time>
      </trkpt>
      <trkpt lat="38.58693" lon="14.5491">
        <ele>-0.34</ele>
        <time>2018-04-18T11:59:48Z</time>
      </trkpt>
      <trkpt lat="38.58695" lon="14.54909">
        <ele>-0.82</ele>
        <time>2018-04-18T12:00:00Z</time>
      </trkpt>
      <trkpt lat="38.58698" lon="14.54909">
        <ele>-1.3</ele>
        <time>2018-04-18T12:00:12Z</time>
      </trkpt>
      <trkpt lat="38.58702" lon="14.54915">
        <ele>-1.79</ele>
        <time>2018-04-18T12:00:22Z</time>
      </trkpt>
      <trkpt lat="38.58705" lon="14.54919">
        <ele>-2.27</ele>
        <time>2018-04-18T12:00:26Z</time>
      </trkpt>
      <trkpt lat="38.5871" lon="14.54924">
        <ele>-2.27</ele>
        <time>2018-04-18T12:00:31Z</time>
      </trkpt>
      <trkpt lat="38.58712" lon="14.54927">
        <ele>-2.75</ele>
        <time>2018-04-18T12:00:35Z</time>
      </trkpt>
      <trkpt lat="38.58715" lon="14.54929">
        <ele>-3.71</ele>
        <time>2018-04-18T12:00:38Z</time>
      </trkpt>
      <trkpt lat="38.58727" lon="14.54937">
        <ele>-3.71</ele>
        <time>2018-04-18T12:00:50Z</time>
      </trkpt>
      <trkpt lat="38.58727" lon="14.54938">
        <ele>-3.71</ele>
        <time>2018-04-18T12:00:51Z</time>
      </trkpt>
      <trkpt lat="38.58732" lon="14.54942">
        <ele>-4.19</ele>
        <time>2018-04-18T12:00:55Z</time>
      </trkpt>
      <trkpt lat="38.58733" lon="14.54946">
        <ele>-4.67</ele>
        <time>2018-04-18T12:00:59Z</time>
      </trkpt>
      <trkpt lat="38.58732" lon="14.54958">
        <ele>-5.15</ele>
        <time>2018-04-18T12:01:05Z</time>
      </trkpt>
      <trkpt lat="38.58736" lon="14.54989">
        <ele>-3.71</ele>
        <time>2018-04-18T12:01:19Z</time>
      </trkpt>
      <trkpt lat="38.58744" lon="14.55015">
        <ele>-1.79</ele>
        <time>2018-04-18T12:01:30Z</time>
      </trkpt>
      <trkpt lat="38.58753" lon="14.55056">
        <ele>3.98</ele>
        <time>2018-04-18T12:01:48Z</time>
      </trkpt>
      <trkpt lat="38.58758" lon="14.551">
        <ele>3.98</ele>
        <time>2018-04-18T12:02:08Z</time>
      </trkpt>
      <trkpt lat="38.58766" lon="14.55134">
        <ele>3.98</ele>
        <time>2018-04-18T12:02:27Z</time>
      </trkpt>
      <trkpt lat="38.58772" lon="14.55167">
        <ele>3.98</ele>
        <time>2018-04-18T12:02:46Z</time>
      </trkpt>
      <trkpt lat="38.58779" lon="14.55196">
        <ele>3.98</ele>
        <time>2018-04-18T12:03:03Z</time>
      </trkpt>
      <trkpt lat="38.58787" lon="14.55231">
        <ele>4.94</ele>
        <time>2018-04-18T12:03:23Z</time>
      </trkpt>
      <trkpt lat="38.58792" lon="14.55288">
        <ele>5.42</ele>
        <time>2018-04-18T12:03:47Z</time>
      </trkpt>
      <trkpt lat="38.5881" lon="14.5536">
        <ele>4.94</ele>
        <time>2018-04-18T12:04:09Z</time>
      </trkpt>
      <trkpt lat="38.5882" lon="14.5545">
        <ele>5.91</ele>
        <time>2018-04-18T12:04:34Z</time>
      </trkpt>
      <trkpt lat="38.58825" lon="14.55491">
        <ele>1.58</ele>
        <time>2018-04-18T12:04:49Z</time>
      </trkpt>
      <trkpt lat="38.58825" lon="14.55534">
        <ele>0.62</ele>
        <time>2018-04-18T12:05:02Z</time>
      </trkpt>
      <trkpt lat="38.58822" lon="14.55576">
        <ele>0.14</ele>
        <time>2018-04-18T12:05:15Z</time>
      </trkpt>
      <trkpt lat="38.5882" lon="14.55606">
        <ele>0.62</ele>
        <time>2018-04-18T12:05:24Z</time>
      </trkpt>
      <trkpt lat="38.58815" lon="14.55664">
        <ele>1.58</ele>
        <time>2018-04-18T12:05:41Z</time>
      </trkpt>
      <trkpt lat="38.58805" lon="14.5572">
        <ele>0.62</ele>
        <time>2018-04-18T12:05:58Z</time>
      </trkpt>
      <trkpt lat="38.58793" lon="14.55779">
        <ele>2.06</ele>
        <time>2018-04-18T12:06:16Z</time>
      </trkpt>
      <trkpt lat="38.58785" lon="14.55836">
        <ele>3.02</ele>
        <time>2018-04-18T12:06:33Z</time>
      </trkpt>
      <trkpt lat="38.58777" lon="14.55889">
        <ele>3.02</ele>
        <time>2018-04-18T12:06:49Z</time>
      </trkpt>
      <trkpt lat="38.58766" lon="14.55944">
        <ele>3.02</ele>
        <time>2018-04-18T12:07:06Z</time>
      </trkpt>
      <trkpt lat="38.58761" lon="14.55998">
        <ele>3.02</ele>
        <time>2018-04-18T12:07:22Z</time>
      </trkpt>
      <trkpt lat="38.58766" lon="14.56052">
        <ele>3.02</ele>
        <time>2018-04-18T12:07:38Z</time>
      </trkpt>
      <trkpt lat="38.58763" lon="14.56095">
        <ele>3.02</ele>
        <time>2018-04-18T12:07:51Z</time>
      </trkpt>
      <trkpt lat="38.5875" lon="14.56154">
        <ele>3.02</ele>
        <time>2018-04-18T12:08:09Z</time>
      </trkpt>
      <trkpt lat="38.58744" lon="14.56205">
        <ele>2.54</ele>
        <time>2018-04-18T12:08:24Z</time>
      </trkpt>
      <trkpt lat="38.58735" lon="14.56258">
        <ele>2.54</ele>
        <time>2018-04-18T12:08:40Z</time>
      </trkpt>
      <trkpt lat="38.58727" lon="14.56316">
        <ele>3.5</ele>
        <time>2018-04-18T12:08:57Z</time>
      </trkpt>
      <trkpt lat="38.58717" lon="14.5638">
        <ele>3.98</ele>
        <time>2018-04-18T12:09:16Z</time>
      </trkpt>
      <trkpt lat="38.58707" lon="14.56441">
        <ele>3.98</ele>
        <time>2018-04-18T12:09:34Z</time>
      </trkpt>
      <trkpt lat="38.58695" lon="14.56505">
        <ele>4.46</ele>
        <time>2018-04-18T12:09:53Z</time>
      </trkpt>
      <trkpt lat="38.58685" lon="14.56569">
        <ele>3.98</ele>
        <time>2018-04-18T12:10:12Z</time>
      </trkpt>
      <trkpt lat="38.58677" lon="14.56628">
        <ele>4.46</ele>
        <time>2018-04-18T12:10:29Z</time>
      </trkpt>
      <trkpt lat="38.58668" lon="14.5669">
        <ele>5.42</ele>
        <time>2018-04-18T12:10:47Z</time>
      </trkpt>
      <trkpt lat="38.58664" lon="14.56732">
        <ele>5.42</ele>
        <time>2018-04-18T12:10:59Z</time>
      </trkpt>
      <trkpt lat="38.58657" lon="14.56783">
        <ele>4.94</ele>
        <time>2018-04-18T12:11:14Z</time>
      </trkpt>
      <trkpt lat="38.5865" lon="14.56837">
        <ele>4.94</ele>
        <time>2018-04-18T12:11:30Z</time>
      </trkpt>
      <trkpt lat="38.58641" lon="14.56894">
        <ele>3.5</ele>
        <time>2018-04-18T12:11:47Z</time>
      </trkpt>
      <trkpt lat="38.58626" lon="14.56946">
        <ele>3.5</ele>
        <time>2018-04-18T12:12:03Z</time>
      </trkpt>
      <trkpt lat="38.58608" lon="14.57001">
        <ele>3.98</ele>
        <time>2018-04-18T12:12:20Z</time>
      </trkpt>
      <trkpt lat="38.58581" lon="14.57062">
        <ele>3.02</ele>
        <time>2018-04-18T12:12:40Z</time>
      </trkpt>
      <trkpt lat="38.58559" lon="14.57117">
        <ele>3.5</ele>
        <time>2018-04-18T12:12:58Z</time>
      </trkpt>
      <trkpt lat="38.58538" lon="14.5717">
        <ele>3.02</ele>
        <time>2018-04-18T12:13:15Z</time>
      </trkpt>
      <trkpt lat="38.58521" lon="14.57225">
        <ele>2.54</ele>
        <time>2018-04-18T12:13:32Z</time>
      </trkpt>
      <trkpt lat="38.58505" lon="14.57277">
        <ele>2.06</ele>
        <time>2018-04-18T12:13:48Z</time>
      </trkpt>
      <trkpt lat="38.58484" lon="14.57339">
        <ele>2.54</ele>
        <time>2018-04-18T12:14:07Z</time>
      </trkpt>
      <trkpt lat="38.58463" lon="14.57396">
        <ele>2.06</ele>
        <time>2018-04-18T12:14:25Z</time>
      </trkpt>
      <trkpt lat="38.58435" lon="14.57466">
        <ele>2.54</ele>
        <time>2018-04-18T12:14:47Z</time>
      </trkpt>
      <trkpt lat="38.58414" lon="14.57515">
        <ele>2.06</ele>
        <time>2018-04-18T12:15:03Z</time>
      </trkpt>
      <trkpt lat="38.58384" lon="14.57571">
        <ele>3.02</ele>
        <time>2018-04-18T12:15:22Z</time>
      </trkpt>
      <trkpt lat="38.58356" lon="14.5763">
        <ele>3.5</ele>
        <time>2018-04-18T12:15:41Z</time>
      </trkpt>
      <trkpt lat="38.58325" lon="14.57696">
        <ele>3.02</ele>
        <time>2018-04-18T12:16:03Z</time>
      </trkpt>
      <trkpt lat="38.58307" lon="14.57746">
        <ele>2.06</ele>
        <time>2018-04-18T12:16:19Z</time>
      </trkpt>
      <trkpt lat="38.58283" lon="14.57801">
        <ele>2.54</ele>
        <time>2018-04-18T12:16:37Z</time>
      </trkpt>
      <trkpt lat="38.5826" lon="14.57868">
        <ele>2.06</ele>
        <time>2018-04-18T12:16:58Z</time>
      </trkpt>
      <trkpt lat="38.58239" lon="14.57927">
        <ele>2.54</ele>
        <time>2018-04-18T12:17:17Z</time>
      </trkpt>
      <trkpt lat="38.58205" lon="14.5799">
        <ele>2.54</ele>
        <time>2018-04-18T12:17:39Z</time>
      </trkpt>
      <trkpt lat="38.58189" lon="14.58065">
        <ele>2.54</ele>
        <time>2018-04-18T12:18:01Z</time>
      </trkpt>
      <trkpt lat="38.58168" lon="14.58121">
        <ele>1.58</ele>
        <time>2018-04-18T12:18:19Z</time>
      </trkpt>
      <trkpt lat="38.58146" lon="14.58167">
        <ele>1.1</ele>
        <time>2018-04-18T12:18:35Z</time>
      </trkpt>
      <trkpt lat="38.58116" lon="14.58213">
        <ele>0.14</ele>
        <time>2018-04-18T12:18:53Z</time>
      </trkpt>
      <trkpt lat="38.58089" lon="14.58258">
        <ele>0.14</ele>
        <time>2018-04-18T12:19:10Z</time>
      </trkpt>
      <trkpt lat="38.58049" lon="14.58296">
        <ele>3.02</ele>
        <time>2018-04-18T12:19:29Z</time>
      </trkpt>
      <trkpt lat="38.58006" lon="14.58332">
        <ele>3.98</ele>
        <time>2018-04-18T12:19:49Z</time>
      </trkpt>
      <trkpt lat="38.57972" lon="14.58362">
        <ele>4.46</ele>
        <time>2018-04-18T12:20:05Z</time>
      </trkpt>
      <trkpt lat="38.57926" lon="14.58391">
        <ele>4.46</ele>
        <time>2018-04-18T12:20:25Z</time>
      </trkpt>
      <trkpt lat="38.57877" lon="14.58417">
        <ele>3.98</ele>
        <time>2018-04-18T12:20:45Z</time>
      </trkpt>
      <trkpt lat="38.57829" lon="14.58438">
        <ele>3.5</ele>
        <time>2018-04-18T12:21:04Z</time>
      </trkpt>
      <trkpt lat="38.5778" lon="14.58452">
        <ele>3.5</ele>
        <time>2018-04-18T12:21:23Z</time>
      </trkpt>
      <trkpt lat="38.57731" lon="14.58468">
        <ele>2.54</ele>
        <time>2018-04-18T12:21:42Z</time>
      </trkpt>
      <trkpt lat="38.57675" lon="14.58484">
        <ele>1.58</ele>
        <time>2018-04-18T12:22:04Z</time>
      </trkpt>
      <trkpt lat="38.57617" lon="14.58487">
        <ele>1.1</ele>
        <time>2018-04-18T12:22:26Z</time>
      </trkpt>
      <trkpt lat="38.57566" lon="14.58491">
        <ele>0.62</ele>
        <time>2018-04-18T12:22:45Z</time>
      </trkpt>
      <trkpt lat="38.57515" lon="14.58513">
        <ele>1.1</ele>
        <time>2018-04-18T12:23:05Z</time>
      </trkpt>
      <trkpt lat="38.57464" lon="14.58534">
        <ele>1.58</ele>
        <time>2018-04-18T12:23:25Z</time>
      </trkpt>
      <trkpt lat="38.57407" lon="14.58545">
        <ele>0.62</ele>
        <time>2018-04-18T12:23:47Z</time>
      </trkpt>
      <trkpt lat="38.5734" lon="14.58551">
        <ele>1.1</ele>
        <time>2018-04-18T12:24:12Z</time>
      </trkpt>
      <trkpt lat="38.57279" lon="14.58559">
        <ele>0.62</ele>
        <time>2018-04-18T12:24:35Z</time>
      </trkpt>
      <trkpt lat="38.57227" lon="14.58576">
        <ele>1.58</ele>
        <time>2018-04-18T12:24:55Z</time>
      </trkpt>
      <trkpt lat="38.5717" lon="14.58587">
        <ele>1.1</ele>
        <time>2018-04-18T12:25:16Z</time>
      </trkpt>
      <trkpt lat="38.57113" lon="14.58592">
        <ele>1.58</ele>
        <time>2018-04-18T12:25:37Z</time>
      </trkpt>
      <trkpt lat="38.57065" lon="14.58595">
        <ele>0.62</ele>
        <time>2018-04-18T12:25:54Z</time>
      </trkpt>
      <trkpt lat="38.57011" lon="14.58607">
        <ele>0.14</ele>
        <time>2018-04-18T12:26:13Z</time>
      </trkpt>
      <trkpt lat="38.56966" lon="14.58615">
        <ele>0.62</ele>
        <time>2018-04-18T12:26:30Z</time>
      </trkpt>
      <trkpt lat="38.56912" lon="14.58624">
        <ele>1.58</ele>
        <time>2018-04-18T12:26:51Z</time>
      </trkpt>
      <trkpt lat="38.56875" lon="14.58625">
        <ele>2.54</ele>
        <time>2018-04-18T12:27:05Z</time>
      </trkpt>
      <trkpt lat="38.56826" lon="14.58629">
        <ele>2.54</ele>
        <time>2018-04-18T12:27:24Z</time>
      </trkpt>
      <trkpt lat="38.56768" lon="14.58636">
        <ele>2.54</ele>
        <time>2018-04-18T12:27:47Z</time>
      </trkpt>
      <trkpt lat="38.56701" lon="14.58645">
        <ele>3.02</ele>
        <time>2018-04-18T12:28:13Z</time>
      </trkpt>
      <trkpt lat="38.56645" lon="14.5865">
        <ele>3.02</ele>
        <time>2018-04-18T12:28:35Z</time>
      </trkpt>
      <trkpt lat="38.56582" lon="14.58654">
        <ele>2.06</ele>
        <time>2018-04-18T12:29:00Z</time>
      </trkpt>
      <trkpt lat="38.56523" lon="14.58654">
        <ele>1.58</ele>
        <time>2018-04-18T12:29:23Z</time>
      </trkpt>
      <trkpt lat="38.5647" lon="14.5866">
        <ele>0.62</ele>
        <time>2018-04-18T12:29:44Z</time>
      </trkpt>
      <trkpt lat="38.56407" lon="14.58663">
        <ele>2.06</ele>
        <time>2018-04-18T12:30:08Z</time>
      </trkpt>
      <trkpt lat="38.56366" lon="14.58665">
        <ele>1.58</ele>
        <time>2018-04-18T12:30:24Z</time>
      </trkpt>
      <trkpt lat="38.56318" lon="14.58668">
        <ele>1.1</ele>
        <time>2018-04-18T12:30:43Z</time>
      </trkpt>
      <trkpt lat="38.56279" lon="14.58672">
        <ele>2.06</ele>
        <time>2018-04-18T12:31:00Z</time>
      </trkpt>
      <trkpt lat="38.56252" lon="14.58673">
        <ele>2.06</ele>
        <time>2018-04-18T12:31:13Z</time>
      </trkpt>
      <trkpt lat="38.56209" lon="14.58674">
        <ele>1.58</ele>
        <time>2018-04-18T12:31:34Z</time>
      </trkpt>
      <trkpt lat="38.56188" lon="14.58676">
        <ele>1.1</ele>
        <time>2018-04-18T12:31:46Z</time>
      </trkpt>
      <trkpt lat="38.56153" lon="14.58681">
        <ele>0.62</ele>
        <time>2018-04-18T12:32:02Z</time>
      </trkpt>
      <trkpt lat="38.56128" lon="14.58684">
        <ele>1.58</ele>
        <time>2018-04-18T12:32:16Z</time>
      </trkpt>
      <trkpt lat="38.56093" lon="14.58684">
        <ele>3.02</ele>
        <time>2018-04-18T12:32:37Z</time>
      </trkpt>
      <trkpt lat="38.56059" lon="14.58683">
        <ele>3.5</ele>
        <time>2018-04-18T12:32:57Z</time>
      </trkpt>
      <trkpt lat="38.56037" lon="14.5868">
        <ele>2.06</ele>
        <time>2018-04-18T12:33:10Z</time>
      </trkpt>
      <trkpt lat="38.56003" lon="14.58674">
        <ele>0.14</ele>
        <time>2018-04-18T12:33:30Z</time>
      </trkpt>
      <trkpt lat="38.55982" lon="14.58668">
        <ele>1.58</ele>
        <time>2018-04-18T12:33:44Z</time>
      </trkpt>
      <trkpt lat="38.55964" lon="14.58661">
        <ele>1.1</ele>
        <time>2018-04-18T12:34:02Z</time>
      </trkpt>
      <trkpt lat="38.55959" lon="14.58659">
        <ele>1.58</ele>
        <time>2018-04-18T12:34:13Z</time>
      </trkpt>
      <trkpt lat="38.55957" lon="14.58657">
        <ele>1.58</ele>
        <time>2018-04-18T12:34:38Z</time>
      </trkpt>
      <trkpt lat="38.55957" lon="14.58655">
        <ele>1.58</ele>
        <time>2018-04-18T12:35:00Z</time>
      </trkpt>
      <trkpt lat="38.55958" lon="14.58654">
        <ele>1.58</ele>
        <time>2018-04-18T12:35:19Z</time>
      </trkpt>
      <trkpt lat="38.55961" lon="14.58655">
        <ele>0.14</ele>
        <time>2018-04-18T12:35:34Z</time>
      </trkpt>
      <trkpt lat="38.55964" lon="14.58654">
        <ele>0.14</ele>
        <time>2018-04-18T12:35:47Z</time>
      </trkpt>
      <trkpt lat="38.55967" lon="14.58651">
        <ele>0.14</ele>
        <time>2018-04-18T12:35:59Z</time>
      </trkpt>
      <trkpt lat="38.55966" lon="14.58647">
        <ele>1.1</ele>
        <time>2018-04-18T12:36:26Z</time>
      </trkpt>
      <trkpt lat="38.55963" lon="14.58642">
        <ele>1.58</ele>
        <time>2018-04-18T12:36:55Z</time>
      </trkpt>
      <trkpt lat="38.55959" lon="14.58638">
        <ele>2.54</ele>
        <time>2018-04-18T12:37:14Z</time>
      </trkpt>
      <trkpt lat="38.55956" lon="14.58634">
        <ele>2.06</ele>
        <time>2018-04-18T12:37:37Z</time>
      </trkpt>
      <trkpt lat="38.55952" lon="14.58633">
        <ele>1.58</ele>
        <time>2018-04-18T12:38:09Z</time>
      </trkpt>
      <trkpt lat="38.5595" lon="14.58633">
        <ele>2.06</ele>
        <time>2018-04-18T12:38:35Z</time>
      </trkpt>
      <trkpt lat="38.55949" lon="14.58637">
        <ele>2.06</ele>
        <time>2018-04-18T12:38:49Z</time>
      </trkpt>
      <trkpt lat="38.55948" lon="14.58637">
        <ele>2.06</ele>
        <time>2018-04-18T12:38:53Z</time>
      </trkpt>
      <trkpt lat="38.55948" lon="14.58639">
        <ele>0.62</ele>
        <time>2018-04-18T12:39:06Z</time>
      </trkpt>
      <trkpt lat="38.55946" lon="14.58638">
        <ele>0.14</ele>
        <time>2018-04-18T12:39:27Z</time>
      </trkpt>
      <trkpt lat="38.55945" lon="14.58639">
        <ele>0.14</ele>
        <time>2018-04-18T12:39:40Z</time>
      </trkpt>
      <trkpt lat="38.55945" lon="14.5864">
        <ele>-1.3</ele>
        <time>2018-04-18T12:39:53Z</time>
      </trkpt>
      <trkpt lat="38.55945" lon="14.58641">
        <ele>-2.27</ele>
        <time>2018-04-18T12:40:07Z</time>
      </trkpt>
      <trkpt lat="38.55944" lon="14.5864">
        <ele>-2.27</ele>
        <time>2018-04-18T12:40:34Z</time>
      </trkpt>
      <trkpt lat="38.55944" lon="14.5864">
        <ele>-2.27</ele>
        <time>2018-04-18T12:40:49Z</time>
      </trkpt>
      <trkpt lat="38.55943" lon="14.58638">
        <ele>-1.3</ele>
        <time>2018-04-18T12:41:02Z</time>
      </trkpt>
      <trkpt lat="38.55943" lon="14.58638">
        <ele>-0.82</ele>
        <time>2018-04-18T12:41:21Z</time>
      </trkpt>
      <trkpt lat="38.55943" lon="14.58638">
        <ele>0.14</ele>
        <time>2018-04-18T12:41:50Z</time>
      </trkpt>
      <trkpt lat="38.55943" lon="14.58638">
        <ele>0.62</ele>
        <time>2018-04-18T12:42:13Z</time>
      </trkpt>
      <trkpt lat="38.55943" lon="14.58639">
        <ele>0.62</ele>
        <time>2018-04-18T12:42:39Z</time>
      </trkpt>
      <trkpt lat="38.55943" lon="14.58639">
        <ele>1.1</ele>
        <time>2018-04-18T12:43:09Z</time>
      </trkpt>
      <trkpt lat="38.55943" lon="14.58638">
        <ele>1.1</ele>
        <time>2018-04-18T12:43:34Z</time>
      </trkpt>
      <trkpt lat="38.55943" lon="14.58638">
        <ele>1.1</ele>
        <time>2018-04-18T12:43:59Z</time>
      </trkpt>
      <trkpt lat="38.55943" lon="14.58638">
        <ele>1.1</ele>
        <time>2018-04-18T12:44:28Z</time>
      </trkpt>
      <trkpt lat="38.55943" lon="14.58638">
        <ele>0.62</ele>
        <time>2018-04-18T12:44:55Z</time>
      </trkpt>
      <trkpt lat="38.55942" lon="14.58638">
        <ele>0.62</ele>
        <time>2018-04-18T12:45:18Z</time>
      </trkpt>
      <trkpt lat="38.55943" lon="14.58639">
        <ele>1.1</ele>
        <time>2018-04-18T12:45:31Z</time>
      </trkpt>
      <trkpt lat="38.55943" lon="14.58641">
        <ele>0.62</ele>
        <time>2018-04-18T12:45:34Z</time>
      </trkpt>
      <trkpt lat="38.55944" lon="14.58638">
        <ele>1.1</ele>
        <time>2018-04-18T12:52:25Z</time>
      </trkpt>
      <trkpt lat="38.55949" lon="14.58641">
        <ele>0.62</ele>
        <time>2018-04-18T12:52:39Z</time>
      </trkpt>
      <trkpt lat="38.55957" lon="14.58652">
        <ele>1.1</ele>
        <time>2018-04-18T12:53:01Z</time>
      </trkpt>
      <trkpt lat="38.55958" lon="14.58659">
        <ele>1.1</ele>
        <time>2018-04-18T12:53:22Z</time>
      </trkpt>
      <trkpt lat="38.55957" lon="14.58658">
        <ele>0.62</ele>
        <time>2018-04-18T12:53:42Z</time>
      </trkpt>
      <trkpt lat="38.55957" lon="14.58651">
        <ele>1.1</ele>
        <time>2018-04-18T12:54:03Z</time>
      </trkpt>
      <trkpt lat="38.55957" lon="14.58645">
        <ele>0.62</ele>
        <time>2018-04-18T12:54:24Z</time>
      </trkpt>
      <trkpt lat="38.55954" lon="14.58644">
        <ele>0.62</ele>
        <time>2018-04-18T12:54:46Z</time>
      </trkpt>
      <trkpt lat="38.55955" lon="14.58657">
        <ele>1.1</ele>
        <time>2018-04-18T12:55:04Z</time>
      </trkpt>
      <trkpt lat="38.55983" lon="14.58686">
        <ele>2.06</ele>
        <time>2018-04-18T12:55:28Z</time>
      </trkpt>
      <trkpt lat="38.56022" lon="14.58717">
        <ele>1.1</ele>
        <time>2018-04-18T12:55:50Z</time>
      </trkpt>
      <trkpt lat="38.56051" lon="14.5876">
        <ele>1.1</ele>
        <time>2018-04-18T12:56:10Z</time>
      </trkpt>
      <trkpt lat="38.56071" lon="14.58806">
        <ele>0.62</ele>
        <time>2018-04-18T12:56:28Z</time>
      </trkpt>
      <trkpt lat="38.56091" lon="14.58847">
        <ele>1.1</ele>
        <time>2018-04-18T12:56:45Z</time>
      </trkpt>
      <trkpt lat="38.56122" lon="14.58879">
        <ele>1.58</ele>
        <time>2018-04-18T12:57:03Z</time>
      </trkpt>
      <trkpt lat="38.56153" lon="14.58907">
        <ele>1.1</ele>
        <time>2018-04-18T12:57:22Z</time>
      </trkpt>
      <trkpt lat="38.56194" lon="14.58936">
        <ele>1.1</ele>
        <time>2018-04-18T12:57:45Z</time>
      </trkpt>
      <trkpt lat="38.56242" lon="14.58962">
        <ele>0.62</ele>
        <time>2018-04-18T12:58:11Z</time>
      </trkpt>
      <trkpt lat="38.56294" lon="14.58981">
        <ele>0.62</ele>
        <time>2018-04-18T12:58:38Z</time>
      </trkpt>
      <trkpt lat="38.56332" lon="14.58996">
        <ele>1.1</ele>
        <time>2018-04-18T12:58:58Z</time>
      </trkpt>
      <trkpt lat="38.56379" lon="14.59008">
        <ele>-0.34</ele>
        <time>2018-04-18T12:59:22Z</time>
      </trkpt>
      <trkpt lat="38.56431" lon="14.59015">
        <ele>-0.34</ele>
        <time>2018-04-18T12:59:48Z</time>
      </trkpt>
      <trkpt lat="38.56481" lon="14.59025">
        <ele>0.14</ele>
        <time>2018-04-18T13:00:13Z</time>
      </trkpt>
      <trkpt lat="38.56513" lon="14.59055">
        <ele>-0.34</ele>
        <time>2018-04-18T13:00:34Z</time>
      </trkpt>
      <trkpt lat="38.5652" lon="14.59116">
        <ele>0.14</ele>
        <time>2018-04-18T13:00:54Z</time>
      </trkpt>
      <trkpt lat="38.5651" lon="14.59199">
        <ele>0.62</ele>
        <time>2018-04-18T13:01:17Z</time>
      </trkpt>
      <trkpt lat="38.5649" lon="14.59265">
        <ele>0.14</ele>
        <time>2018-04-18T13:01:36Z</time>
      </trkpt>
      <trkpt lat="38.56475" lon="14.5934">
        <ele>-0.82</ele>
        <time>2018-04-18T13:01:57Z</time>
      </trkpt>
      <trkpt lat="38.56447" lon="14.59426">
        <ele>-0.34</ele>
        <time>2018-04-18T13:02:22Z</time>
      </trkpt>
      <trkpt lat="38.56399" lon="14.59509">
        <ele>1.1</ele>
        <time>2018-04-18T13:02:49Z</time>
      </trkpt>
      <trkpt lat="38.56346" lon="14.59585">
        <ele>1.1</ele>
        <time>2018-04-18T13:03:15Z</time>
      </trkpt>
      <trkpt lat="38.56299" lon="14.59669">
        <ele>1.58</ele>
        <time>2018-04-18T13:03:41Z</time>
      </trkpt>
      <trkpt lat="38.56266" lon="14.59741">
        <ele>2.06</ele>
        <time>2018-04-18T13:04:02Z</time>
      </trkpt>
      <trkpt lat="38.56237" lon="14.5981">
        <ele>2.06</ele>
        <time>2018-04-18T13:04:22Z</time>
      </trkpt>
      <trkpt lat="38.56206" lon="14.59883">
        <ele>2.06</ele>
        <time>2018-04-18T13:04:43Z</time>
      </trkpt>
      <trkpt lat="38.56184" lon="14.59939">
        <ele>2.06</ele>
        <time>2018-04-18T13:04:59Z</time>
      </trkpt>
      <trkpt lat="38.56154" lon="14.60012">
        <ele>1.58</ele>
        <time>2018-04-18T13:05:20Z</time>
      </trkpt>
      <trkpt lat="38.56122" lon="14.60088">
        <ele>2.06</ele>
        <time>2018-04-18T13:05:42Z</time>
      </trkpt>
      <trkpt lat="38.56091" lon="14.60167">
        <ele>1.58</ele>
        <time>2018-04-18T13:06:04Z</time>
      </trkpt>
      <trkpt lat="38.56061" lon="14.60243">
        <ele>2.06</ele>
        <time>2018-04-18T13:06:25Z</time>
      </trkpt>
      <trkpt lat="38.56025" lon="14.60332">
        <ele>-0.34</ele>
        <time>2018-04-18T13:06:50Z</time>
      </trkpt>
      <trkpt lat="38.55992" lon="14.60415">
        <ele>0.62</ele>
        <time>2018-04-18T13:07:13Z</time>
      </trkpt>
      <trkpt lat="38.55961" lon="14.60495">
        <ele>0.62</ele>
        <time>2018-04-18T13:07:35Z</time>
      </trkpt>
      <trkpt lat="38.55925" lon="14.60585">
        <ele>0.62</ele>
        <time>2018-04-18T13:08:00Z</time>
      </trkpt>
      <trkpt lat="38.55886" lon="14.60687">
        <ele>0.62</ele>
        <time>2018-04-18T13:08:28Z</time>
      </trkpt>
      <trkpt lat="38.55855" lon="14.60763">
        <ele>1.1</ele>
        <time>2018-04-18T13:08:49Z</time>
      </trkpt>
      <trkpt lat="38.55825" lon="14.6084">
        <ele>1.1</ele>
        <time>2018-04-18T13:09:10Z</time>
      </trkpt>
      <trkpt lat="38.55791" lon="14.60928">
        <ele>1.58</ele>
        <time>2018-04-18T13:09:34Z</time>
      </trkpt>
      <trkpt lat="38.55752" lon="14.61026">
        <ele>1.1</ele>
        <time>2018-04-18T13:10:01Z</time>
      </trkpt>
      <trkpt lat="38.55714" lon="14.61126">
        <ele>1.1</ele>
        <time>2018-04-18T13:10:29Z</time>
      </trkpt>
      <trkpt lat="38.55681" lon="14.61213">
        <ele>1.1</ele>
        <time>2018-04-18T13:10:53Z</time>
      </trkpt>
      <trkpt lat="38.55647" lon="14.61304">
        <ele>1.1</ele>
        <time>2018-04-18T13:11:18Z</time>
      </trkpt>
      <trkpt lat="38.55611" lon="14.61398">
        <ele>0.62</ele>
        <time>2018-04-18T13:11:44Z</time>
      </trkpt>
      <trkpt lat="38.5558" lon="14.61481">
        <ele>0.14</ele>
        <time>2018-04-18T13:12:07Z</time>
      </trkpt>
      <trkpt lat="38.55551" lon="14.61557">
        <ele>-0.34</ele>
        <time>2018-04-18T13:12:28Z</time>
      </trkpt>
      <trkpt lat="38.55521" lon="14.6164">
        <ele>-0.34</ele>
        <time>2018-04-18T13:12:51Z</time>
      </trkpt>
      <trkpt lat="38.55488" lon="14.61731">
        <ele>-0.34</ele>
        <time>2018-04-18T13:13:16Z</time>
      </trkpt>
      <trkpt lat="38.55456" lon="14.61822">
        <ele>-0.82</ele>
        <time>2018-04-18T13:13:41Z</time>
      </trkpt>
      <trkpt lat="38.55428" lon="14.61898">
        <ele>-0.34</ele>
        <time>2018-04-18T13:14:02Z</time>
      </trkpt>
      <trkpt lat="38.55399" lon="14.61978">
        <ele>-0.34</ele>
        <time>2018-04-18T13:14:24Z</time>
      </trkpt>
      <trkpt lat="38.55373" lon="14.62051">
        <ele>-0.34</ele>
        <time>2018-04-18T13:14:44Z</time>
      </trkpt>
      <trkpt lat="38.55344" lon="14.62131">
        <ele>-0.34</ele>
        <time>2018-04-18T13:15:06Z</time>
      </trkpt>
      <trkpt lat="38.55314" lon="14.62214">
        <ele>-0.82</ele>
        <time>2018-04-18T13:15:29Z</time>
      </trkpt>
      <trkpt lat="38.55278" lon="14.6231">
        <ele>0.62</ele>
        <time>2018-04-18T13:15:56Z</time>
      </trkpt>
      <trkpt lat="38.5525" lon="14.62389">
        <ele>0.62</ele>
        <time>2018-04-18T13:16:18Z</time>
      </trkpt>
      <trkpt lat="38.55215" lon="14.62482">
        <ele>0.14</ele>
        <time>2018-04-18T13:16:44Z</time>
      </trkpt>
      <trkpt lat="38.55182" lon="14.62572">
        <ele>0.14</ele>
        <time>2018-04-18T13:17:09Z</time>
      </trkpt>
      <trkpt lat="38.55155" lon="14.62647">
        <ele>-0.34</ele>
        <time>2018-04-18T13:17:30Z</time>
      </trkpt>
      <trkpt lat="38.55122" lon="14.6274">
        <ele>0.62</ele>
        <time>2018-04-18T13:17:56Z</time>
      </trkpt>
      <trkpt lat="38.55092" lon="14.62826">
        <ele>1.1</ele>
        <time>2018-04-18T13:18:20Z</time>
      </trkpt>
      <trkpt lat="38.55062" lon="14.62907">
        <ele>0.62</ele>
        <time>2018-04-18T13:18:43Z</time>
      </trkpt>
      <trkpt lat="38.55033" lon="14.62986">
        <ele>0.62</ele>
        <time>2018-04-18T13:19:05Z</time>
      </trkpt>
      <trkpt lat="38.55005" lon="14.63063">
        <ele>1.1</ele>
        <time>2018-04-18T13:19:27Z</time>
      </trkpt>
      <trkpt lat="38.54979" lon="14.63134">
        <ele>-0.34</ele>
        <time>2018-04-18T13:19:47Z</time>
      </trkpt>
      <trkpt lat="38.54955" lon="14.63201">
        <ele>0.14</ele>
        <time>2018-04-18T13:20:06Z</time>
      </trkpt>
      <trkpt lat="38.54932" lon="14.63264">
        <ele>0.62</ele>
        <time>2018-04-18T13:20:24Z</time>
      </trkpt>
      <trkpt lat="38.54906" lon="14.63339">
        <ele>0.14</ele>
        <time>2018-04-18T13:20:45Z</time>
      </trkpt>
      <trkpt lat="38.54872" lon="14.6343">
        <ele>0.14</ele>
        <time>2018-04-18T13:21:11Z</time>
      </trkpt>
      <trkpt lat="38.54846" lon="14.63504">
        <ele>0.14</ele>
        <time>2018-04-18T13:21:32Z</time>
      </trkpt>
      <trkpt lat="38.54821" lon="14.63572">
        <ele>0.14</ele>
        <time>2018-04-18T13:21:51Z</time>
      </trkpt>
      <trkpt lat="38.54797" lon="14.63639">
        <ele>-0.82</ele>
        <time>2018-04-18T13:22:10Z</time>
      </trkpt>
      <trkpt lat="38.54773" lon="14.63706">
        <ele>-0.34</ele>
        <time>2018-04-18T13:22:29Z</time>
      </trkpt>
      <trkpt lat="38.54743" lon="14.63789">
        <ele>-0.34</ele>
        <time>2018-04-18T13:22:52Z</time>
      </trkpt>
      <trkpt lat="38.54708" lon="14.63884">
        <ele>-0.34</ele>
        <time>2018-04-18T13:23:19Z</time>
      </trkpt>
      <trkpt lat="38.54674" lon="14.63978">
        <ele>-0.34</ele>
        <time>2018-04-18T13:23:45Z</time>
      </trkpt>
      <trkpt lat="38.54642" lon="14.64063">
        <ele>-0.34</ele>
        <time>2018-04-18T13:24:09Z</time>
      </trkpt>
      <trkpt lat="38.54609" lon="14.64151">
        <ele>-0.34</ele>
        <time>2018-04-18T13:24:34Z</time>
      </trkpt>
      <trkpt lat="38.54577" lon="14.64235">
        <ele>-0.82</ele>
        <time>2018-04-18T13:24:58Z</time>
      </trkpt>
      <trkpt lat="38.54547" lon="14.64316">
        <ele>-0.82</ele>
        <time>2018-04-18T13:25:21Z</time>
      </trkpt>
      <trkpt lat="38.54513" lon="14.64407">
        <ele>-0.82</ele>
        <time>2018-04-18T13:25:47Z</time>
      </trkpt>
      <trkpt lat="38.54481" lon="14.6449">
        <ele>-0.82</ele>
        <time>2018-04-18T13:26:11Z</time>
      </trkpt>
      <trkpt lat="38.54452" lon="14.64567">
        <ele>-0.34</ele>
        <time>2018-04-18T13:26:33Z</time>
      </trkpt>
      <trkpt lat="38.54426" lon="14.64637">
        <ele>-0.34</ele>
        <time>2018-04-18T13:26:53Z</time>
      </trkpt>
      <trkpt lat="38.54393" lon="14.64726">
        <ele>-0.34</ele>
        <time>2018-04-18T13:27:18Z</time>
      </trkpt>
      <trkpt lat="38.54361" lon="14.64816">
        <ele>0.14</ele>
        <time>2018-04-18T13:27:43Z</time>
      </trkpt>
      <trkpt lat="38.54324" lon="14.64912">
        <ele>-0.34</ele>
        <time>2018-04-18T13:28:10Z</time>
      </trkpt>
      <trkpt lat="38.54286" lon="14.65014">
        <ele>0.14</ele>
        <time>2018-04-18T13:28:39Z</time>
      </trkpt>
      <trkpt lat="38.54253" lon="14.65105">
        <ele>0.14</ele>
        <time>2018-04-18T13:29:05Z</time>
      </trkpt>
      <trkpt lat="38.5422" lon="14.65192">
        <ele>0.14</ele>
        <time>2018-04-18T13:29:30Z</time>
      </trkpt>
      <trkpt lat="38.54187" lon="14.65285">
        <ele>0.14</ele>
        <time>2018-04-18T13:29:56Z</time>
      </trkpt>
      <trkpt lat="38.54151" lon="14.65381">
        <ele>0.14</ele>
        <time>2018-04-18T13:30:23Z</time>
      </trkpt>
      <trkpt lat="38.54121" lon="14.65463">
        <ele>0.62</ele>
        <time>2018-04-18T13:30:46Z</time>
      </trkpt>
      <trkpt lat="38.54093" lon="14.65542">
        <ele>0.14</ele>
        <time>2018-04-18T13:31:08Z</time>
      </trkpt>
      <trkpt lat="38.54059" lon="14.65634">
        <ele>-0.34</ele>
        <time>2018-04-18T13:31:34Z</time>
      </trkpt>
      <trkpt lat="38.54027" lon="14.65723">
        <ele>-0.34</ele>
        <time>2018-04-18T13:31:59Z</time>
      </trkpt>
      <trkpt lat="38.53998" lon="14.65805">
        <ele>-0.82</ele>
        <time>2018-04-18T13:32:22Z</time>
      </trkpt>
      <trkpt lat="38.53973" lon="14.65877">
        <ele>-0.82</ele>
        <time>2018-04-18T13:32:42Z</time>
      </trkpt>
      <trkpt lat="38.53947" lon="14.65948">
        <ele>-0.82</ele>
        <time>2018-04-18T13:33:02Z</time>
      </trkpt>
      <trkpt lat="38.53921" lon="14.66022">
        <ele>-0.34</ele>
        <time>2018-04-18T13:33:23Z</time>
      </trkpt>
      <trkpt lat="38.53894" lon="14.66098">
        <ele>-0.34</ele>
        <time>2018-04-18T13:33:44Z</time>
      </trkpt>
      <trkpt lat="38.53862" lon="14.6619">
        <ele>-0.34</ele>
        <time>2018-04-18T13:34:10Z</time>
      </trkpt>
      <trkpt lat="38.53832" lon="14.66272">
        <ele>-0.82</ele>
        <time>2018-04-18T13:34:33Z</time>
      </trkpt>
      <trkpt lat="38.53804" lon="14.66353">
        <ele>-0.82</ele>
        <time>2018-04-18T13:34:56Z</time>
      </trkpt>
      <trkpt lat="38.53779" lon="14.66429">
        <ele>0.14</ele>
        <time>2018-04-18T13:35:17Z</time>
      </trkpt>
      <trkpt lat="38.53747" lon="14.66523">
        <ele>0.14</ele>
        <time>2018-04-18T13:35:43Z</time>
      </trkpt>
      <trkpt lat="38.53718" lon="14.66604">
        <ele>-0.34</ele>
        <time>2018-04-18T13:36:06Z</time>
      </trkpt>
      <trkpt lat="38.53691" lon="14.66683">
        <ele>0.14</ele>
        <time>2018-04-18T13:36:28Z</time>
      </trkpt>
      <trkpt lat="38.53661" lon="14.66772">
        <ele>0.14</ele>
        <time>2018-04-18T13:36:53Z</time>
      </trkpt>
      <trkpt lat="38.53631" lon="14.66865">
        <ele>-0.82</ele>
        <time>2018-04-18T13:37:19Z</time>
      </trkpt>
      <trkpt lat="38.53601" lon="14.66953">
        <ele>-1.3</ele>
        <time>2018-04-18T13:37:44Z</time>
      </trkpt>
      <trkpt lat="38.53578" lon="14.67026">
        <ele>-0.82</ele>
        <time>2018-04-18T13:38:05Z</time>
      </trkpt>
      <trkpt lat="38.53551" lon="14.67105">
        <ele>-0.34</ele>
        <time>2018-04-18T13:38:28Z</time>
      </trkpt>
      <trkpt lat="38.53529" lon="14.67175">
        <ele>-0.34</ele>
        <time>2018-04-18T13:38:48Z</time>
      </trkpt>
      <trkpt lat="38.53509" lon="14.67237">
        <ele>-0.34</ele>
        <time>2018-04-18T13:39:06Z</time>
      </trkpt>
      <trkpt lat="38.53488" lon="14.67303">
        <ele>-0.34</ele>
        <time>2018-04-18T13:39:25Z</time>
      </trkpt>
      <trkpt lat="38.53466" lon="14.67372">
        <ele>0.14</ele>
        <time>2018-04-18T13:39:45Z</time>
      </trkpt>
      <trkpt lat="38.53442" lon="14.67449">
        <ele>-0.34</ele>
        <time>2018-04-18T13:40:07Z</time>
      </trkpt>
      <trkpt lat="38.53421" lon="14.67514">
        <ele>0.14</ele>
        <time>2018-04-18T13:40:26Z</time>
      </trkpt>
      <trkpt lat="38.53397" lon="14.67587">
        <ele>0.14</ele>
        <time>2018-04-18T13:40:47Z</time>
      </trkpt>
      <trkpt lat="38.53373" lon="14.67667">
        <ele>0.14</ele>
        <time>2018-04-18T13:41:10Z</time>
      </trkpt>
      <trkpt lat="38.53353" lon="14.67729">
        <ele>0.14</ele>
        <time>2018-04-18T13:41:28Z</time>
      </trkpt>
      <trkpt lat="38.53328" lon="14.67809">
        <ele>0.14</ele>
        <time>2018-04-18T13:41:51Z</time>
      </trkpt>
      <trkpt lat="38.53297" lon="14.67906">
        <ele>-0.34</ele>
        <time>2018-04-18T13:42:19Z</time>
      </trkpt>
      <trkpt lat="38.53268" lon="14.67993">
        <ele>0.14</ele>
        <time>2018-04-18T13:42:44Z</time>
      </trkpt>
      <trkpt lat="38.53233" lon="14.68101">
        <ele>0.14</ele>
        <time>2018-04-18T13:43:15Z</time>
      </trkpt>
      <trkpt lat="38.53204" lon="14.68195">
        <ele>0.62</ele>
        <time>2018-04-18T13:43:42Z</time>
      </trkpt>
      <trkpt lat="38.53173" lon="14.68285">
        <ele>0.62</ele>
        <time>2018-04-18T13:44:08Z</time>
      </trkpt>
      <trkpt lat="38.5315" lon="14.68354">
        <ele>1.1</ele>
        <time>2018-04-18T13:44:28Z</time>
      </trkpt>
      <trkpt lat="38.53122" lon="14.68436">
        <ele>1.1</ele>
        <time>2018-04-18T13:44:52Z</time>
      </trkpt>
      <trkpt lat="38.53093" lon="14.68522">
        <ele>1.1</ele>
        <time>2018-04-18T13:45:17Z</time>
      </trkpt>
      <trkpt lat="38.53063" lon="14.68611">
        <ele>1.1</ele>
        <time>2018-04-18T13:45:43Z</time>
      </trkpt>
      <trkpt lat="38.53034" lon="14.68696">
        <ele>1.1</ele>
        <time>2018-04-18T13:46:08Z</time>
      </trkpt>
      <trkpt lat="38.53007" lon="14.68775">
        <ele>0.62</ele>
        <time>2018-04-18T13:46:31Z</time>
      </trkpt>
      <trkpt lat="38.52985" lon="14.6884">
        <ele>0.62</ele>
        <time>2018-04-18T13:46:50Z</time>
      </trkpt>
      <trkpt lat="38.52962" lon="14.68912">
        <ele>1.1</ele>
        <time>2018-04-18T13:47:11Z</time>
      </trkpt>
      <trkpt lat="38.52935" lon="14.68992">
        <ele>0.62</ele>
        <time>2018-04-18T13:47:34Z</time>
      </trkpt>
      <trkpt lat="38.52907" lon="14.6907">
        <ele>1.58</ele>
        <time>2018-04-18T13:47:57Z</time>
      </trkpt>
      <trkpt lat="38.52884" lon="14.69139">
        <ele>1.1</ele>
        <time>2018-04-18T13:48:17Z</time>
      </trkpt>
      <trkpt lat="38.52863" lon="14.69199">
        <ele>0.62</ele>
        <time>2018-04-18T13:48:35Z</time>
      </trkpt>
      <trkpt lat="38.52841" lon="14.6926">
        <ele>1.1</ele>
        <time>2018-04-18T13:48:53Z</time>
      </trkpt>
      <trkpt lat="38.52819" lon="14.6933">
        <ele>0.62</ele>
        <time>2018-04-18T13:49:13Z</time>
      </trkpt>
      <trkpt lat="38.52791" lon="14.69415">
        <ele>0.62</ele>
        <time>2018-04-18T13:49:38Z</time>
      </trkpt>
      <trkpt lat="38.52761" lon="14.69501">
        <ele>-0.34</ele>
        <time>2018-04-18T13:50:03Z</time>
      </trkpt>
      <trkpt lat="38.52733" lon="14.6958">
        <ele>-0.34</ele>
        <time>2018-04-18T13:50:26Z</time>
      </trkpt>
      <trkpt lat="38.52705" lon="14.69662">
        <ele>0.14</ele>
        <time>2018-04-18T13:50:50Z</time>
      </trkpt>
      <trkpt lat="38.52678" lon="14.69739">
        <ele>0.14</ele>
        <time>2018-04-18T13:51:12Z</time>
      </trkpt>
      <trkpt lat="38.52653" lon="14.69812">
        <ele>0.14</ele>
        <time>2018-04-18T13:51:33Z</time>
      </trkpt>
      <trkpt lat="38.52625" lon="14.69892">
        <ele>-0.34</ele>
        <time>2018-04-18T13:51:56Z</time>
      </trkpt>
      <trkpt lat="38.52597" lon="14.69975">
        <ele>0.14</ele>
        <time>2018-04-18T13:52:20Z</time>
      </trkpt>
      <trkpt lat="38.52568" lon="14.7006">
        <ele>0.14</ele>
        <time>2018-04-18T13:52:44Z</time>
      </trkpt>
      <trkpt lat="38.52541" lon="14.70135">
        <ele>-0.34</ele>
        <time>2018-04-18T13:53:06Z</time>
      </trkpt>
      <trkpt lat="38.52512" lon="14.70219">
        <ele>0.14</ele>
        <time>2018-04-18T13:53:30Z</time>
      </trkpt>
      <trkpt lat="38.52485" lon="14.70295">
        <ele>-0.34</ele>
        <time>2018-04-18T13:53:52Z</time>
      </trkpt>
      <trkpt lat="38.52461" lon="14.70365">
        <ele>0.14</ele>
        <time>2018-04-18T13:54:12Z</time>
      </trkpt>
      <trkpt lat="38.52431" lon="14.70445">
        <ele>0.14</ele>
        <time>2018-04-18T13:54:35Z</time>
      </trkpt>
      <trkpt lat="38.52402" lon="14.70529">
        <ele>-0.34</ele>
        <time>2018-04-18T13:54:59Z</time>
      </trkpt>
      <trkpt lat="38.52371" lon="14.70616">
        <ele>-0.82</ele>
        <time>2018-04-18T13:55:23Z</time>
      </trkpt>
      <trkpt lat="38.52335" lon="14.7072">
        <ele>-1.3</ele>
        <time>2018-04-18T13:55:52Z</time>
      </trkpt>
      <trkpt lat="38.52308" lon="14.70794">
        <ele>-1.3</ele>
        <time>2018-04-18T13:56:13Z</time>
      </trkpt>
      <trkpt lat="38.52277" lon="14.70883">
        <ele>-1.3</ele>
        <time>2018-04-18T13:56:38Z</time>
      </trkpt>
      <trkpt lat="38.52251" lon="14.70957">
        <ele>-0.82</ele>
        <time>2018-04-18T13:56:59Z</time>
      </trkpt>
      <trkpt lat="38.52225" lon="14.71027">
        <ele>-0.34</ele>
        <time>2018-04-18T13:57:19Z</time>
      </trkpt>
      <trkpt lat="38.52201" lon="14.71098">
        <ele>-0.34</ele>
        <time>2018-04-18T13:57:39Z</time>
      </trkpt>
      <trkpt lat="38.5217" lon="14.71183">
        <ele>-0.34</ele>
        <time>2018-04-18T13:58:03Z</time>
      </trkpt>
      <trkpt lat="38.5214" lon="14.71268">
        <ele>-0.34</ele>
        <time>2018-04-18T13:58:27Z</time>
      </trkpt>
      <trkpt lat="38.52112" lon="14.71347">
        <ele>0.14</ele>
        <time>2018-04-18T13:58:49Z</time>
      </trkpt>
      <trkpt lat="38.52089" lon="14.71415">
        <ele>-0.34</ele>
        <time>2018-04-18T13:59:08Z</time>
      </trkpt>
      <trkpt lat="38.52062" lon="14.7149">
        <ele>-0.82</ele>
        <time>2018-04-18T13:59:29Z</time>
      </trkpt>
      <trkpt lat="38.52036" lon="14.71565">
        <ele>-0.34</ele>
        <time>2018-04-18T13:59:50Z</time>
      </trkpt>
      <trkpt lat="38.52005" lon="14.7165">
        <ele>-0.34</ele>
        <time>2018-04-18T14:00:14Z</time>
      </trkpt>
      <trkpt lat="38.51974" lon="14.71736">
        <ele>0.14</ele>
        <time>2018-04-18T14:00:38Z</time>
      </trkpt>
      <trkpt lat="38.51949" lon="14.71807">
        <ele>0.14</ele>
        <time>2018-04-18T14:00:58Z</time>
      </trkpt>
      <trkpt lat="38.51921" lon="14.71885">
        <ele>0.14</ele>
        <time>2018-04-18T14:01:20Z</time>
      </trkpt>
      <trkpt lat="38.51894" lon="14.7196">
        <ele>0.14</ele>
        <time>2018-04-18T14:01:41Z</time>
      </trkpt>
      <trkpt lat="38.51865" lon="14.72042">
        <ele>0.14</ele>
        <time>2018-04-18T14:02:04Z</time>
      </trkpt>
      <trkpt lat="38.51835" lon="14.72125">
        <ele>0.62</ele>
        <time>2018-04-18T14:02:27Z</time>
      </trkpt>
      <trkpt lat="38.51806" lon="14.72206">
        <ele>0.14</ele>
        <time>2018-04-18T14:02:50Z</time>
      </trkpt>
      <trkpt lat="38.51781" lon="14.72278">
        <ele>0.14</ele>
        <time>2018-04-18T14:03:10Z</time>
      </trkpt>
      <trkpt lat="38.51749" lon="14.72368">
        <ele>-0.34</ele>
        <time>2018-04-18T14:03:35Z</time>
      </trkpt>
      <trkpt lat="38.51718" lon="14.72458">
        <ele>-0.34</ele>
        <time>2018-04-18T14:04:00Z</time>
      </trkpt>
      <trkpt lat="38.51687" lon="14.72545">
        <ele>-0.34</ele>
        <time>2018-04-18T14:04:24Z</time>
      </trkpt>
      <trkpt lat="38.51658" lon="14.72629">
        <ele>-0.34</ele>
        <time>2018-04-18T14:04:47Z</time>
      </trkpt>
      <trkpt lat="38.51627" lon="14.72715">
        <ele>-0.34</ele>
        <time>2018-04-18T14:05:11Z</time>
      </trkpt>
      <trkpt lat="38.51598" lon="14.72798">
        <ele>-0.82</ele>
        <time>2018-04-18T14:05:34Z</time>
      </trkpt>
      <trkpt lat="38.51567" lon="14.72887">
        <ele>-0.34</ele>
        <time>2018-04-18T14:05:59Z</time>
      </trkpt>
      <trkpt lat="38.5154" lon="14.72966">
        <ele>-0.34</ele>
        <time>2018-04-18T14:06:21Z</time>
      </trkpt>
      <trkpt lat="38.51511" lon="14.73052">
        <ele>0.14</ele>
        <time>2018-04-18T14:06:45Z</time>
      </trkpt>
      <trkpt lat="38.5148" lon="14.73137">
        <ele>-0.34</ele>
        <time>2018-04-18T14:07:09Z</time>
      </trkpt>
      <trkpt lat="38.5145" lon="14.73223">
        <ele>-0.82</ele>
        <time>2018-04-18T14:07:33Z</time>
      </trkpt>
      <trkpt lat="38.51421" lon="14.73309">
        <ele>-0.82</ele>
        <time>2018-04-18T14:07:57Z</time>
      </trkpt>
      <trkpt lat="38.51386" lon="14.73409">
        <ele>-1.3</ele>
        <time>2018-04-18T14:08:25Z</time>
      </trkpt>
      <trkpt lat="38.51365" lon="14.7347">
        <ele>-0.34</ele>
        <time>2018-04-18T14:08:42Z</time>
      </trkpt>
      <trkpt lat="38.51336" lon="14.73553">
        <ele>0.14</ele>
        <time>2018-04-18T14:09:05Z</time>
      </trkpt>
      <trkpt lat="38.51312" lon="14.73621">
        <ele>0.14</ele>
        <time>2018-04-18T14:09:24Z</time>
      </trkpt>
      <trkpt lat="38.51285" lon="14.73699">
        <ele>-0.34</ele>
        <time>2018-04-18T14:09:46Z</time>
      </trkpt>
      <trkpt lat="38.51258" lon="14.73779">
        <ele>-0.34</ele>
        <time>2018-04-18T14:10:08Z</time>
      </trkpt>
      <trkpt lat="38.51227" lon="14.73869">
        <ele>-0.34</ele>
        <time>2018-04-18T14:10:33Z</time>
      </trkpt>
      <trkpt lat="38.51204" lon="14.73937">
        <ele>-0.34</ele>
        <time>2018-04-18T14:10:52Z</time>
      </trkpt>
      <trkpt lat="38.51173" lon="14.74031">
        <ele>0.14</ele>
        <time>2018-04-18T14:11:18Z</time>
      </trkpt>
      <trkpt lat="38.51144" lon="14.74121">
        <ele>0.62</ele>
        <time>2018-04-18T14:11:43Z</time>
      </trkpt>
      <trkpt lat="38.51119" lon="14.74192">
        <ele>0.62</ele>
        <time>2018-04-18T14:12:03Z</time>
      </trkpt>
      <trkpt lat="38.51095" lon="14.74268">
        <ele>1.1</ele>
        <time>2018-04-18T14:12:24Z</time>
      </trkpt>
      <trkpt lat="38.51071" lon="14.74344">
        <ele>1.1</ele>
        <time>2018-04-18T14:12:45Z</time>
      </trkpt>
      <trkpt lat="38.51047" lon="14.74415">
        <ele>1.58</ele>
        <time>2018-04-18T14:13:05Z</time>
      </trkpt>
      <trkpt lat="38.51023" lon="14.74491">
        <ele>2.06</ele>
        <time>2018-04-18T14:13:26Z</time>
      </trkpt>
      <trkpt lat="38.50995" lon="14.74576">
        <ele>2.54</ele>
        <time>2018-04-18T14:13:50Z</time>
      </trkpt>
      <trkpt lat="38.50968" lon="14.74658">
        <ele>0.62</ele>
        <time>2018-04-18T14:14:13Z</time>
      </trkpt>
      <trkpt lat="38.50943" lon="14.74736">
        <ele>-0.82</ele>
        <time>2018-04-18T14:14:35Z</time>
      </trkpt>
      <trkpt lat="38.50917" lon="14.7482">
        <ele>-0.82</ele>
        <time>2018-04-18T14:14:59Z</time>
      </trkpt>
      <trkpt lat="38.50891" lon="14.74901">
        <ele>-1.3</ele>
        <time>2018-04-18T14:15:22Z</time>
      </trkpt>
      <trkpt lat="38.50867" lon="14.74981">
        <ele>-0.82</ele>
        <time>2018-04-18T14:15:45Z</time>
      </trkpt>
      <trkpt lat="38.50844" lon="14.75057">
        <ele>-1.3</ele>
        <time>2018-04-18T14:16:07Z</time>
      </trkpt>
      <trkpt lat="38.50817" lon="14.75143">
        <ele>-1.3</ele>
        <time>2018-04-18T14:16:32Z</time>
      </trkpt>
      <trkpt lat="38.50792" lon="14.75226">
        <ele>-0.82</ele>
        <time>2018-04-18T14:16:56Z</time>
      </trkpt>
      <trkpt lat="38.5077" lon="14.75303">
        <ele>-1.3</ele>
        <time>2018-04-18T14:17:18Z</time>
      </trkpt>
      <trkpt lat="38.50745" lon="14.75386">
        <ele>-0.82</ele>
        <time>2018-04-18T14:17:42Z</time>
      </trkpt>
      <trkpt lat="38.50715" lon="14.75482">
        <ele>-1.3</ele>
        <time>2018-04-18T14:18:10Z</time>
      </trkpt>
      <trkpt lat="38.50689" lon="14.75569">
        <ele>-1.3</ele>
        <time>2018-04-18T14:18:35Z</time>
      </trkpt>
      <trkpt lat="38.50666" lon="14.75641">
        <ele>-1.79</ele>
        <time>2018-04-18T14:18:56Z</time>
      </trkpt>
      <trkpt lat="38.5064" lon="14.75723">
        <ele>-0.82</ele>
        <time>2018-04-18T14:19:20Z</time>
      </trkpt>
      <trkpt lat="38.50615" lon="14.75804">
        <ele>-0.34</ele>
        <time>2018-04-18T14:19:44Z</time>
      </trkpt>
      <trkpt lat="38.50591" lon="14.7588">
        <ele>-0.34</ele>
        <time>2018-04-18T14:20:06Z</time>
      </trkpt>
      <trkpt lat="38.50572" lon="14.75942">
        <ele>-0.34</ele>
        <time>2018-04-18T14:20:24Z</time>
      </trkpt>
      <trkpt lat="38.50551" lon="14.76011">
        <ele>-0.82</ele>
        <time>2018-04-18T14:20:44Z</time>
      </trkpt>
      <trkpt lat="38.50523" lon="14.761">
        <ele>-0.82</ele>
        <time>2018-04-18T14:21:10Z</time>
      </trkpt>
      <trkpt lat="38.50494" lon="14.76189">
        <ele>-0.82</ele>
        <time>2018-04-18T14:21:36Z</time>
      </trkpt>
      <trkpt lat="38.5047" lon="14.76268">
        <ele>-0.34</ele>
        <time>2018-04-18T14:21:59Z</time>
      </trkpt>
      <trkpt lat="38.50445" lon="14.7635">
        <ele>-0.34</ele>
        <time>2018-04-18T14:22:23Z</time>
      </trkpt>
      <trkpt lat="38.50419" lon="14.76436">
        <ele>-0.34</ele>
        <time>2018-04-18T14:22:48Z</time>
      </trkpt>
      <trkpt lat="38.50393" lon="14.76522">
        <ele>0.14</ele>
        <time>2018-04-18T14:23:13Z</time>
      </trkpt>
      <trkpt lat="38.50363" lon="14.7661">
        <ele>0.14</ele>
        <time>2018-04-18T14:23:39Z</time>
      </trkpt>
      <trkpt lat="38.50337" lon="14.76692">
        <ele>0.62</ele>
        <time>2018-04-18T14:24:03Z</time>
      </trkpt>
      <trkpt lat="38.50316" lon="14.76761">
        <ele>0.62</ele>
        <time>2018-04-18T14:24:23Z</time>
      </trkpt>
      <trkpt lat="38.50295" lon="14.76829">
        <ele>1.1</ele>
        <time>2018-04-18T14:24:43Z</time>
      </trkpt>
      <trkpt lat="38.50274" lon="14.76899">
        <ele>1.1</ele>
        <time>2018-04-18T14:25:03Z</time>
      </trkpt>
      <trkpt lat="38.5025" lon="14.76975">
        <ele>1.58</ele>
        <time>2018-04-18T14:25:25Z</time>
      </trkpt>
      <trkpt lat="38.50229" lon="14.77043">
        <ele>1.1</ele>
        <time>2018-04-18T14:25:45Z</time>
      </trkpt>
      <trkpt lat="38.50207" lon="14.77112">
        <ele>1.58</ele>
        <time>2018-04-18T14:26:05Z</time>
      </trkpt>
      <trkpt lat="38.50182" lon="14.77195">
        <ele>1.58</ele>
        <time>2018-04-18T14:26:29Z</time>
      </trkpt>
      <trkpt lat="38.50158" lon="14.77275">
        <ele>1.58</ele>
        <time>2018-04-18T14:26:52Z</time>
      </trkpt>
      <trkpt lat="38.50135" lon="14.77351">
        <ele>1.1</ele>
        <time>2018-04-18T14:27:14Z</time>
      </trkpt>
      <trkpt lat="38.50111" lon="14.77427">
        <ele>1.1</ele>
        <time>2018-04-18T14:27:36Z</time>
      </trkpt>
      <trkpt lat="38.50085" lon="14.77515">
        <ele>1.1</ele>
        <time>2018-04-18T14:28:01Z</time>
      </trkpt>
      <trkpt lat="38.50062" lon="14.77592">
        <ele>1.58</ele>
        <time>2018-04-18T14:28:23Z</time>
      </trkpt>
      <trkpt lat="38.50036" lon="14.77681">
        <ele>1.1</ele>
        <time>2018-04-18T14:28:48Z</time>
      </trkpt>
      <trkpt lat="38.50015" lon="14.77752">
        <ele>1.1</ele>
        <time>2018-04-18T14:29:08Z</time>
      </trkpt>
      <trkpt lat="38.49992" lon="14.77828">
        <ele>0.62</ele>
        <time>2018-04-18T14:29:30Z</time>
      </trkpt>
      <trkpt lat="38.49969" lon="14.77906">
        <ele>0.62</ele>
        <time>2018-04-18T14:29:52Z</time>
      </trkpt>
      <trkpt lat="38.49947" lon="14.77985">
        <ele>0.14</ele>
        <time>2018-04-18T14:30:14Z</time>
      </trkpt>
      <trkpt lat="38.49923" lon="14.78066">
        <ele>0.62</ele>
        <time>2018-04-18T14:30:37Z</time>
      </trkpt>
      <trkpt lat="38.49902" lon="14.78137">
        <ele>0.62</ele>
        <time>2018-04-18T14:30:57Z</time>
      </trkpt>
      <trkpt lat="38.49881" lon="14.78212">
        <ele>1.1</ele>
        <time>2018-04-18T14:31:18Z</time>
      </trkpt>
      <trkpt lat="38.49862" lon="14.78279">
        <ele>1.1</ele>
        <time>2018-04-18T14:31:37Z</time>
      </trkpt>
      <trkpt lat="38.49841" lon="14.78348">
        <ele>0.62</ele>
        <time>2018-04-18T14:31:57Z</time>
      </trkpt>
      <trkpt lat="38.49823" lon="14.78411">
        <ele>1.1</ele>
        <time>2018-04-18T14:32:15Z</time>
      </trkpt>
      <trkpt lat="38.49804" lon="14.78477">
        <ele>1.58</ele>
        <time>2018-04-18T14:32:34Z</time>
      </trkpt>
      <trkpt lat="38.49785" lon="14.78543">
        <ele>1.58</ele>
        <time>2018-04-18T14:32:53Z</time>
      </trkpt>
      <trkpt lat="38.49763" lon="14.78621">
        <ele>1.58</ele>
        <time>2018-04-18T14:33:15Z</time>
      </trkpt>
      <trkpt lat="38.49739" lon="14.78705">
        <ele>1.1</ele>
        <time>2018-04-18T14:33:39Z</time>
      </trkpt>
      <trkpt lat="38.49719" lon="14.78772">
        <ele>0.62</ele>
        <time>2018-04-18T14:33:58Z</time>
      </trkpt>
      <trkpt lat="38.49699" lon="14.78846">
        <ele>0.62</ele>
        <time>2018-04-18T14:34:19Z</time>
      </trkpt>
      <trkpt lat="38.49676" lon="14.78931">
        <ele>0.62</ele>
        <time>2018-04-18T14:34:43Z</time>
      </trkpt>
      <trkpt lat="38.49655" lon="14.79005">
        <ele>1.1</ele>
        <time>2018-04-18T14:35:04Z</time>
      </trkpt>
      <trkpt lat="38.49633" lon="14.79082">
        <ele>0.62</ele>
        <time>2018-04-18T14:35:26Z</time>
      </trkpt>
      <trkpt lat="38.49608" lon="14.7917">
        <ele>0.62</ele>
        <time>2018-04-18T14:35:51Z</time>
      </trkpt>
      <trkpt lat="38.49588" lon="14.7924">
        <ele>0.14</ele>
        <time>2018-04-18T14:36:11Z</time>
      </trkpt>
      <trkpt lat="38.49567" lon="14.79313">
        <ele>0.14</ele>
        <time>2018-04-18T14:36:32Z</time>
      </trkpt>
      <trkpt lat="38.49543" lon="14.79397">
        <ele>0.14</ele>
        <time>2018-04-18T14:36:56Z</time>
      </trkpt>
      <trkpt lat="38.49522" lon="14.79471">
        <ele>0.14</ele>
        <time>2018-04-18T14:37:17Z</time>
      </trkpt>
      <trkpt lat="38.49505" lon="14.79535">
        <ele>0.62</ele>
        <time>2018-04-18T14:37:35Z</time>
      </trkpt>
      <trkpt lat="38.49485" lon="14.79606">
        <ele>0.14</ele>
        <time>2018-04-18T14:37:55Z</time>
      </trkpt>
      <trkpt lat="38.49463" lon="14.79686">
        <ele>0.14</ele>
        <time>2018-04-18T14:38:18Z</time>
      </trkpt>
      <trkpt lat="38.49439" lon="14.79769">
        <ele>0.14</ele>
        <time>2018-04-18T14:38:42Z</time>
      </trkpt>
      <trkpt lat="38.49422" lon="14.79835">
        <ele>0.62</ele>
        <time>2018-04-18T14:39:01Z</time>
      </trkpt>
      <trkpt lat="38.49404" lon="14.79901">
        <ele>0.62</ele>
        <time>2018-04-18T14:39:20Z</time>
      </trkpt>
      <trkpt lat="38.49385" lon="14.79965">
        <ele>0.62</ele>
        <time>2018-04-18T14:39:39Z</time>
      </trkpt>
      <trkpt lat="38.49369" lon="14.80028">
        <ele>0.62</ele>
        <time>2018-04-18T14:39:57Z</time>
      </trkpt>
      <trkpt lat="38.49348" lon="14.801">
        <ele>0.62</ele>
        <time>2018-04-18T14:40:18Z</time>
      </trkpt>
      <trkpt lat="38.49326" lon="14.80183">
        <ele>0.14</ele>
        <time>2018-04-18T14:40:42Z</time>
      </trkpt>
      <trkpt lat="38.49306" lon="14.80254">
        <ele>0.62</ele>
        <time>2018-04-18T14:41:03Z</time>
      </trkpt>
      <trkpt lat="38.49288" lon="14.80319">
        <ele>1.1</ele>
        <time>2018-04-18T14:41:22Z</time>
      </trkpt>
      <trkpt lat="38.49271" lon="14.80381">
        <ele>1.1</ele>
        <time>2018-04-18T14:41:40Z</time>
      </trkpt>
      <trkpt lat="38.49254" lon="14.80442">
        <ele>1.1</ele>
        <time>2018-04-18T14:41:58Z</time>
      </trkpt>
      <trkpt lat="38.49235" lon="14.8051">
        <ele>1.1</ele>
        <time>2018-04-18T14:42:18Z</time>
      </trkpt>
      <trkpt lat="38.49217" lon="14.80574">
        <ele>0.62</ele>
        <time>2018-04-18T14:42:37Z</time>
      </trkpt>
      <trkpt lat="38.49197" lon="14.80648">
        <ele>0.14</ele>
        <time>2018-04-18T14:42:59Z</time>
      </trkpt>
      <trkpt lat="38.49176" lon="14.80719">
        <ele>0.14</ele>
        <time>2018-04-18T14:43:20Z</time>
      </trkpt>
      <trkpt lat="38.49157" lon="14.80786">
        <ele>0.14</ele>
        <time>2018-04-18T14:43:40Z</time>
      </trkpt>
      <trkpt lat="38.49134" lon="14.80871">
        <ele>0.14</ele>
        <time>2018-04-18T14:44:05Z</time>
      </trkpt>
      <trkpt lat="38.49112" lon="14.80948">
        <ele>0.14</ele>
        <time>2018-04-18T14:44:28Z</time>
      </trkpt>
      <trkpt lat="38.49087" lon="14.81036">
        <ele>0.14</ele>
        <time>2018-04-18T14:44:54Z</time>
      </trkpt>
      <trkpt lat="38.49067" lon="14.81115">
        <ele>0.62</ele>
        <time>2018-04-18T14:45:17Z</time>
      </trkpt>
      <trkpt lat="38.49043" lon="14.81199">
        <ele>0.62</ele>
        <time>2018-04-18T14:45:42Z</time>
      </trkpt>
      <trkpt lat="38.49026" lon="14.8126">
        <ele>0.14</ele>
        <time>2018-04-18T14:46:00Z</time>
      </trkpt>
      <trkpt lat="38.49007" lon="14.81328">
        <ele>0.14</ele>
        <time>2018-04-18T14:46:20Z</time>
      </trkpt>
      <trkpt lat="38.48987" lon="14.81402">
        <ele>0.62</ele>
        <time>2018-04-18T14:46:42Z</time>
      </trkpt>
      <trkpt lat="38.48966" lon="14.81477">
        <ele>0.62</ele>
        <time>2018-04-18T14:47:04Z</time>
      </trkpt>
      <trkpt lat="38.48948" lon="14.81544">
        <ele>0.14</ele>
        <time>2018-04-18T14:47:24Z</time>
      </trkpt>
      <trkpt lat="38.48927" lon="14.81621">
        <ele>0.62</ele>
        <time>2018-04-18T14:47:47Z</time>
      </trkpt>
      <trkpt lat="38.48908" lon="14.81688">
        <ele>0.62</ele>
        <time>2018-04-18T14:48:07Z</time>
      </trkpt>
      <trkpt lat="38.48889" lon="14.81759">
        <ele>0.62</ele>
        <time>2018-04-18T14:48:28Z</time>
      </trkpt>
      <trkpt lat="38.48873" lon="14.8182">
        <ele>0.62</ele>
        <time>2018-04-18T14:48:46Z</time>
      </trkpt>
      <trkpt lat="38.48859" lon="14.81871">
        <ele>0.62</ele>
        <time>2018-04-18T14:49:01Z</time>
      </trkpt>
      <trkpt lat="38.48845" lon="14.81925">
        <ele>0.62</ele>
        <time>2018-04-18T14:49:17Z</time>
      </trkpt>
      <trkpt lat="38.48832" lon="14.81976">
        <ele>0.14</ele>
        <time>2018-04-18T14:49:32Z</time>
      </trkpt>
      <trkpt lat="38.48816" lon="14.82038">
        <ele>0.62</ele>
        <time>2018-04-18T14:49:50Z</time>
      </trkpt>
      <trkpt lat="38.48799" lon="14.82105">
        <ele>0.62</ele>
        <time>2018-04-18T14:50:10Z</time>
      </trkpt>
      <trkpt lat="38.48786" lon="14.82156">
        <ele>0.62</ele>
        <time>2018-04-18T14:50:25Z</time>
      </trkpt>
      <trkpt lat="38.48772" lon="14.8221">
        <ele>0.14</ele>
        <time>2018-04-18T14:50:41Z</time>
      </trkpt>
      <trkpt lat="38.48754" lon="14.82278">
        <ele>0.62</ele>
        <time>2018-04-18T14:51:01Z</time>
      </trkpt>
      <trkpt lat="38.48737" lon="14.82341">
        <ele>0.62</ele>
        <time>2018-04-18T14:51:20Z</time>
      </trkpt>
      <trkpt lat="38.48718" lon="14.82411">
        <ele>1.1</ele>
        <time>2018-04-18T14:51:41Z</time>
      </trkpt>
      <trkpt lat="38.487" lon="14.8248">
        <ele>1.58</ele>
        <time>2018-04-18T14:52:01Z</time>
      </trkpt>
      <trkpt lat="38.48682" lon="14.82548">
        <ele>1.58</ele>
        <time>2018-04-18T14:52:21Z</time>
      </trkpt>
      <trkpt lat="38.48664" lon="14.82619">
        <ele>2.06</ele>
        <time>2018-04-18T14:52:42Z</time>
      </trkpt>
      <trkpt lat="38.48645" lon="14.82691">
        <ele>2.06</ele>
        <time>2018-04-18T14:53:03Z</time>
      </trkpt>
      <trkpt lat="38.48625" lon="14.82764">
        <ele>2.54</ele>
        <time>2018-04-18T14:53:24Z</time>
      </trkpt>
      <trkpt lat="38.48606" lon="14.82836">
        <ele>2.06</ele>
        <time>2018-04-18T14:53:45Z</time>
      </trkpt>
      <trkpt lat="38.4859" lon="14.82901">
        <ele>2.54</ele>
        <time>2018-04-18T14:54:04Z</time>
      </trkpt>
      <trkpt lat="38.48572" lon="14.82968">
        <ele>2.06</ele>
        <time>2018-04-18T14:54:24Z</time>
      </trkpt>
      <trkpt lat="38.48551" lon="14.83043">
        <ele>2.06</ele>
        <time>2018-04-18T14:54:46Z</time>
      </trkpt>
      <trkpt lat="38.48531" lon="14.83118">
        <ele>2.54</ele>
        <time>2018-04-18T14:55:08Z</time>
      </trkpt>
      <trkpt lat="38.48517" lon="14.83176">
        <ele>2.06</ele>
        <time>2018-04-18T14:55:25Z</time>
      </trkpt>
      <trkpt lat="38.48496" lon="14.83248">
        <ele>2.06</ele>
        <time>2018-04-18T14:55:46Z</time>
      </trkpt>
      <trkpt lat="38.48474" lon="14.83314">
        <ele>2.54</ele>
        <time>2018-04-18T14:56:06Z</time>
      </trkpt>
      <trkpt lat="38.48452" lon="14.83379">
        <ele>2.54</ele>
        <time>2018-04-18T14:56:26Z</time>
      </trkpt>
      <trkpt lat="38.48427" lon="14.83451">
        <ele>2.06</ele>
        <time>2018-04-18T14:56:48Z</time>
      </trkpt>
      <trkpt lat="38.48402" lon="14.83525">
        <ele>2.06</ele>
        <time>2018-04-18T14:57:11Z</time>
      </trkpt>
      <trkpt lat="38.48384" lon="14.83578">
        <ele>1.58</ele>
        <time>2018-04-18T14:57:27Z</time>
      </trkpt>
      <trkpt lat="38.48364" lon="14.8364">
        <ele>1.58</ele>
        <time>2018-04-18T14:57:46Z</time>
      </trkpt>
      <trkpt lat="38.48343" lon="14.83701">
        <ele>2.06</ele>
        <time>2018-04-18T14:58:05Z</time>
      </trkpt>
      <trkpt lat="38.48323" lon="14.8376">
        <ele>2.06</ele>
        <time>2018-04-18T14:58:23Z</time>
      </trkpt>
      <trkpt lat="38.48298" lon="14.83831">
        <ele>2.06</ele>
        <time>2018-04-18T14:58:45Z</time>
      </trkpt>
      <trkpt lat="38.48273" lon="14.83907">
        <ele>1.58</ele>
        <time>2018-04-18T14:59:08Z</time>
      </trkpt>
      <trkpt lat="38.48244" lon="14.83984">
        <ele>2.54</ele>
        <time>2018-04-18T14:59:32Z</time>
      </trkpt>
      <trkpt lat="38.48219" lon="14.84043">
        <ele>3.02</ele>
        <time>2018-04-18T14:59:51Z</time>
      </trkpt>
      <trkpt lat="38.48193" lon="14.84109">
        <ele>3.02</ele>
        <time>2018-04-18T15:00:12Z</time>
      </trkpt>
      <trkpt lat="38.48166" lon="14.84178">
        <ele>3.02</ele>
        <time>2018-04-18T15:00:34Z</time>
      </trkpt>
      <trkpt lat="38.4814" lon="14.84242">
        <ele>3.5</ele>
        <time>2018-04-18T15:00:54Z</time>
      </trkpt>
      <trkpt lat="38.48112" lon="14.84316">
        <ele>2.54</ele>
        <time>2018-04-18T15:01:17Z</time>
      </trkpt>
      <trkpt lat="38.48089" lon="14.84371">
        <ele>2.54</ele>
        <time>2018-04-18T15:01:35Z</time>
      </trkpt>
      <trkpt lat="38.48065" lon="14.84433">
        <ele>2.06</ele>
        <time>2018-04-18T15:01:54Z</time>
      </trkpt>
      <trkpt lat="38.48044" lon="14.84496">
        <ele>2.06</ele>
        <time>2018-04-18T15:02:13Z</time>
      </trkpt>
      <trkpt lat="38.48022" lon="14.84554">
        <ele>2.54</ele>
        <time>2018-04-18T15:02:31Z</time>
      </trkpt>
      <trkpt lat="38.47996" lon="14.8462">
        <ele>2.06</ele>
        <time>2018-04-18T15:02:52Z</time>
      </trkpt>
      <trkpt lat="38.47969" lon="14.84687">
        <ele>2.06</ele>
        <time>2018-04-18T15:03:13Z</time>
      </trkpt>
      <trkpt lat="38.47937" lon="14.84762">
        <ele>1.58</ele>
        <time>2018-04-18T15:03:37Z</time>
      </trkpt>
      <trkpt lat="38.47908" lon="14.84827">
        <ele>1.58</ele>
        <time>2018-04-18T15:03:58Z</time>
      </trkpt>
      <trkpt lat="38.47879" lon="14.84887">
        <ele>1.58</ele>
        <time>2018-04-18T15:04:18Z</time>
      </trkpt>
      <trkpt lat="38.47848" lon="14.84952">
        <ele>2.06</ele>
        <time>2018-04-18T15:04:39Z</time>
      </trkpt>
      <trkpt lat="38.4782" lon="14.85018">
        <ele>2.54</ele>
        <time>2018-04-18T15:05:00Z</time>
      </trkpt>
      <trkpt lat="38.47796" lon="14.8507">
        <ele>1.58</ele>
        <time>2018-04-18T15:05:17Z</time>
      </trkpt>
      <trkpt lat="38.47769" lon="14.85128">
        <ele>2.54</ele>
        <time>2018-04-18T15:05:36Z</time>
      </trkpt>
      <trkpt lat="38.47742" lon="14.85186">
        <ele>3.02</ele>
        <time>2018-04-18T15:05:55Z</time>
      </trkpt>
      <trkpt lat="38.47712" lon="14.85245">
        <ele>2.06</ele>
        <time>2018-04-18T15:06:15Z</time>
      </trkpt>
      <trkpt lat="38.47672" lon="14.85325">
        <ele>2.06</ele>
        <time>2018-04-18T15:06:42Z</time>
      </trkpt>
      <trkpt lat="38.4764" lon="14.85389">
        <ele>2.06</ele>
        <time>2018-04-18T15:07:03Z</time>
      </trkpt>
      <trkpt lat="38.47606" lon="14.85457">
        <ele>2.06</ele>
        <time>2018-04-18T15:07:26Z</time>
      </trkpt>
      <trkpt lat="38.47578" lon="14.85515">
        <ele>2.06</ele>
        <time>2018-04-18T15:07:45Z</time>
      </trkpt>
      <trkpt lat="38.47553" lon="14.85565">
        <ele>1.58</ele>
        <time>2018-04-18T15:08:02Z</time>
      </trkpt>
      <trkpt lat="38.47529" lon="14.85613">
        <ele>1.1</ele>
        <time>2018-04-18T15:08:18Z</time>
      </trkpt>
      <trkpt lat="38.47505" lon="14.85664">
        <ele>1.58</ele>
        <time>2018-04-18T15:08:35Z</time>
      </trkpt>
      <trkpt lat="38.47474" lon="14.85727">
        <ele>1.58</ele>
        <time>2018-04-18T15:08:56Z</time>
      </trkpt>
      <trkpt lat="38.47445" lon="14.85787">
        <ele>1.58</ele>
        <time>2018-04-18T15:09:16Z</time>
      </trkpt>
      <trkpt lat="38.47415" lon="14.85851">
        <ele>1.1</ele>
        <time>2018-04-18T15:09:37Z</time>
      </trkpt>
      <trkpt lat="38.47389" lon="14.85906">
        <ele>1.1</ele>
        <time>2018-04-18T15:09:55Z</time>
      </trkpt>
      <trkpt lat="38.47352" lon="14.85982">
        <ele>0.62</ele>
        <time>2018-04-18T15:10:20Z</time>
      </trkpt>
      <trkpt lat="38.4732" lon="14.86048">
        <ele>1.1</ele>
        <time>2018-04-18T15:10:42Z</time>
      </trkpt>
      <trkpt lat="38.4729" lon="14.86108">
        <ele>1.1</ele>
        <time>2018-04-18T15:11:02Z</time>
      </trkpt>
      <trkpt lat="38.47259" lon="14.86168">
        <ele>1.58</ele>
        <time>2018-04-18T15:11:22Z</time>
      </trkpt>
      <trkpt lat="38.47234" lon="14.86219">
        <ele>1.58</ele>
        <time>2018-04-18T15:11:39Z</time>
      </trkpt>
      <trkpt lat="38.47205" lon="14.86276">
        <ele>1.58</ele>
        <time>2018-04-18T15:11:58Z</time>
      </trkpt>
      <trkpt lat="38.47172" lon="14.8634">
        <ele>2.06</ele>
        <time>2018-04-18T15:12:20Z</time>
      </trkpt>
      <trkpt lat="38.47141" lon="14.86403">
        <ele>1.58</ele>
        <time>2018-04-18T15:12:41Z</time>
      </trkpt>
      <trkpt lat="38.47115" lon="14.86454">
        <ele>1.58</ele>
        <time>2018-04-18T15:12:58Z</time>
      </trkpt>
      <trkpt lat="38.47087" lon="14.8651">
        <ele>2.06</ele>
        <time>2018-04-18T15:13:17Z</time>
      </trkpt>
      <trkpt lat="38.4705" lon="14.86582">
        <ele>2.06</ele>
        <time>2018-04-18T15:13:41Z</time>
      </trkpt>
      <trkpt lat="38.47022" lon="14.86639">
        <ele>2.06</ele>
        <time>2018-04-18T15:14:00Z</time>
      </trkpt>
      <trkpt lat="38.46996" lon="14.8669">
        <ele>2.06</ele>
        <time>2018-04-18T15:14:17Z</time>
      </trkpt>
      <trkpt lat="38.46966" lon="14.86749">
        <ele>1.58</ele>
        <time>2018-04-18T15:14:37Z</time>
      </trkpt>
      <trkpt lat="38.46937" lon="14.86805">
        <ele>1.58</ele>
        <time>2018-04-18T15:14:56Z</time>
      </trkpt>
      <trkpt lat="38.46903" lon="14.86861">
        <ele>1.1</ele>
        <time>2018-04-18T15:15:16Z</time>
      </trkpt>
      <trkpt lat="38.4687" lon="14.86934">
        <ele>2.06</ele>
        <time>2018-04-18T15:15:40Z</time>
      </trkpt>
      <trkpt lat="38.4684" lon="14.87002">
        <ele>1.1</ele>
        <time>2018-04-18T15:16:02Z</time>
      </trkpt>
      <trkpt lat="38.46808" lon="14.87046">
        <ele>1.1</ele>
        <time>2018-04-18T15:16:19Z</time>
      </trkpt>
      <trkpt lat="38.46781" lon="14.87104">
        <ele>2.54</ele>
        <time>2018-04-18T15:16:38Z</time>
      </trkpt>
      <trkpt lat="38.46757" lon="14.87164">
        <ele>3.02</ele>
        <time>2018-04-18T15:16:57Z</time>
      </trkpt>
      <trkpt lat="38.46733" lon="14.8722">
        <ele>3.02</ele>
        <time>2018-04-18T15:17:15Z</time>
      </trkpt>
      <trkpt lat="38.46703" lon="14.87294">
        <ele>3.02</ele>
        <time>2018-04-18T15:17:39Z</time>
      </trkpt>
      <trkpt lat="38.46679" lon="14.87361">
        <ele>3.5</ele>
        <time>2018-04-18T15:18:00Z</time>
      </trkpt>
      <trkpt lat="38.46651" lon="14.87436">
        <ele>3.02</ele>
        <time>2018-04-18T15:18:24Z</time>
      </trkpt>
      <trkpt lat="38.46624" lon="14.87508">
        <ele>3.98</ele>
        <time>2018-04-18T15:18:47Z</time>
      </trkpt>
      <trkpt lat="38.46597" lon="14.87585">
        <ele>3.5</ele>
        <time>2018-04-18T15:19:11Z</time>
      </trkpt>
      <trkpt lat="38.46576" lon="14.87642">
        <ele>3.98</ele>
        <time>2018-04-18T15:19:29Z</time>
      </trkpt>
      <trkpt lat="38.4656" lon="14.87685">
        <ele>3.98</ele>
        <time>2018-04-18T15:19:43Z</time>
      </trkpt>
      <trkpt lat="38.46536" lon="14.87745">
        <ele>3.5</ele>
        <time>2018-04-18T15:20:02Z</time>
      </trkpt>
      <trkpt lat="38.46511" lon="14.87811">
        <ele>3.5</ele>
        <time>2018-04-18T15:20:23Z</time>
      </trkpt>
      <trkpt lat="38.46485" lon="14.87877">
        <ele>3.5</ele>
        <time>2018-04-18T15:20:44Z</time>
      </trkpt>
      <trkpt lat="38.46465" lon="14.8793">
        <ele>3.98</ele>
        <time>2018-04-18T15:21:01Z</time>
      </trkpt>
      <trkpt lat="38.46439" lon="14.87998">
        <ele>3.02</ele>
        <time>2018-04-18T15:21:22Z</time>
      </trkpt>
      <trkpt lat="38.46413" lon="14.88056">
        <ele>3.98</ele>
        <time>2018-04-18T15:21:41Z</time>
      </trkpt>
      <trkpt lat="38.46385" lon="14.88124">
        <ele>4.46</ele>
        <time>2018-04-18T15:22:02Z</time>
      </trkpt>
      <trkpt lat="38.46365" lon="14.88175">
        <ele>4.46</ele>
        <time>2018-04-18T15:22:18Z</time>
      </trkpt>
      <trkpt lat="38.46338" lon="14.88239">
        <ele>4.46</ele>
        <time>2018-04-18T15:22:38Z</time>
      </trkpt>
      <trkpt lat="38.46299" lon="14.88333">
        <ele>4.46</ele>
        <time>2018-04-18T15:23:07Z</time>
      </trkpt>
      <trkpt lat="38.46272" lon="14.884">
        <ele>4.94</ele>
        <time>2018-04-18T15:23:28Z</time>
      </trkpt>
      <trkpt lat="38.46244" lon="14.88471">
        <ele>4.94</ele>
        <time>2018-04-18T15:23:50Z</time>
      </trkpt>
      <trkpt lat="38.46217" lon="14.88534">
        <ele>4.94</ele>
        <time>2018-04-18T15:24:10Z</time>
      </trkpt>
      <trkpt lat="38.46189" lon="14.88605">
        <ele>4.94</ele>
        <time>2018-04-18T15:24:32Z</time>
      </trkpt>
      <trkpt lat="38.46161" lon="14.88672">
        <ele>4.94</ele>
        <time>2018-04-18T15:24:53Z</time>
      </trkpt>
      <trkpt lat="38.46139" lon="14.88726">
        <ele>4.46</ele>
        <time>2018-04-18T15:25:10Z</time>
      </trkpt>
      <trkpt lat="38.46119" lon="14.88777">
        <ele>4.46</ele>
        <time>2018-04-18T15:25:26Z</time>
      </trkpt>
      <trkpt lat="38.46095" lon="14.88833">
        <ele>4.94</ele>
        <time>2018-04-18T15:25:44Z</time>
      </trkpt>
      <trkpt lat="38.46066" lon="14.88903">
        <ele>5.91</ele>
        <time>2018-04-18T15:26:06Z</time>
      </trkpt>
      <trkpt lat="38.46032" lon="14.88983">
        <ele>4.94</ele>
        <time>2018-04-18T15:26:31Z</time>
      </trkpt>
      <trkpt lat="38.46005" lon="14.89046">
        <ele>4.46</ele>
        <time>2018-04-18T15:26:51Z</time>
      </trkpt>
      <trkpt lat="38.45971" lon="14.89126">
        <ele>3.5</ele>
        <time>2018-04-18T15:27:16Z</time>
      </trkpt>
      <trkpt lat="38.45937" lon="14.89207">
        <ele>3.98</ele>
        <time>2018-04-18T15:27:41Z</time>
      </trkpt>
      <trkpt lat="38.45901" lon="14.8929">
        <ele>3.5</ele>
        <time>2018-04-18T15:28:07Z</time>
      </trkpt>
      <trkpt lat="38.45869" lon="14.89363">
        <ele>3.5</ele>
        <time>2018-04-18T15:28:30Z</time>
      </trkpt>
      <trkpt lat="38.45845" lon="14.8942">
        <ele>3.02</ele>
        <time>2018-04-18T15:28:48Z</time>
      </trkpt>
      <trkpt lat="38.45821" lon="14.89478">
        <ele>3.02</ele>
        <time>2018-04-18T15:29:06Z</time>
      </trkpt>
      <trkpt lat="38.45787" lon="14.89555">
        <ele>3.5</ele>
        <time>2018-04-18T15:29:30Z</time>
      </trkpt>
      <trkpt lat="38.45754" lon="14.89632">
        <ele>3.5</ele>
        <time>2018-04-18T15:29:54Z</time>
      </trkpt>
      <trkpt lat="38.45723" lon="14.89703">
        <ele>4.94</ele>
        <time>2018-04-18T15:30:16Z</time>
      </trkpt>
      <trkpt lat="38.45693" lon="14.8977">
        <ele>3.98</ele>
        <time>2018-04-18T15:30:37Z</time>
      </trkpt>
      <trkpt lat="38.45666" lon="14.89831">
        <ele>3.98</ele>
        <time>2018-04-18T15:30:56Z</time>
      </trkpt>
      <trkpt lat="38.45638" lon="14.89899">
        <ele>3.5</ele>
        <time>2018-04-18T15:31:17Z</time>
      </trkpt>
      <trkpt lat="38.45608" lon="14.89966">
        <ele>3.5</ele>
        <time>2018-04-18T15:31:38Z</time>
      </trkpt>
      <trkpt lat="38.45579" lon="14.9003">
        <ele>3.98</ele>
        <time>2018-04-18T15:31:58Z</time>
      </trkpt>
      <trkpt lat="38.45552" lon="14.9009">
        <ele>4.46</ele>
        <time>2018-04-18T15:32:17Z</time>
      </trkpt>
      <trkpt lat="38.45515" lon="14.90175">
        <ele>3.98</ele>
        <time>2018-04-18T15:32:43Z</time>
      </trkpt>
      <trkpt lat="38.45483" lon="14.90245">
        <ele>4.46</ele>
        <time>2018-04-18T15:33:05Z</time>
      </trkpt>
      <trkpt lat="38.45455" lon="14.90306">
        <ele>3.98</ele>
        <time>2018-04-18T15:33:24Z</time>
      </trkpt>
      <trkpt lat="38.45425" lon="14.90372">
        <ele>3.5</ele>
        <time>2018-04-18T15:33:44Z</time>
      </trkpt>
      <trkpt lat="38.45389" lon="14.90446">
        <ele>3.98</ele>
        <time>2018-04-18T15:34:07Z</time>
      </trkpt>
      <trkpt lat="38.45357" lon="14.90512">
        <ele>3.98</ele>
        <time>2018-04-18T15:34:28Z</time>
      </trkpt>
      <trkpt lat="38.4532" lon="14.90594">
        <ele>3.98</ele>
        <time>2018-04-18T15:34:53Z</time>
      </trkpt>
      <trkpt lat="38.45285" lon="14.90667">
        <ele>3.5</ele>
        <time>2018-04-18T15:35:16Z</time>
      </trkpt>
      <trkpt lat="38.45254" lon="14.90741">
        <ele>3.98</ele>
        <time>2018-04-18T15:35:38Z</time>
      </trkpt>
      <trkpt lat="38.4523" lon="14.90789">
        <ele>4.94</ele>
        <time>2018-04-18T15:35:53Z</time>
      </trkpt>
      <trkpt lat="38.45195" lon="14.90864">
        <ele>4.46</ele>
        <time>2018-04-18T15:36:16Z</time>
      </trkpt>
      <trkpt lat="38.45162" lon="14.90932">
        <ele>4.94</ele>
        <time>2018-04-18T15:36:37Z</time>
      </trkpt>
      <trkpt lat="38.45135" lon="14.91">
        <ele>4.46</ele>
        <time>2018-04-18T15:36:57Z</time>
      </trkpt>
      <trkpt lat="38.4511" lon="14.91063">
        <ele>4.94</ele>
        <time>2018-04-18T15:37:15Z</time>
      </trkpt>
      <trkpt lat="38.45082" lon="14.91144">
        <ele>5.42</ele>
        <time>2018-04-18T15:37:38Z</time>
      </trkpt>
      <trkpt lat="38.45059" lon="14.91211">
        <ele>3.98</ele>
        <time>2018-04-18T15:37:57Z</time>
      </trkpt>
      <trkpt lat="38.45034" lon="14.9129">
        <ele>3.5</ele>
        <time>2018-04-18T15:38:19Z</time>
      </trkpt>
      <trkpt lat="38.45006" lon="14.91376">
        <ele>3.98</ele>
        <time>2018-04-18T15:38:43Z</time>
      </trkpt>
      <trkpt lat="38.44977" lon="14.91465">
        <ele>3.02</ele>
        <time>2018-04-18T15:39:08Z</time>
      </trkpt>
      <trkpt lat="38.44955" lon="14.91537">
        <ele>3.02</ele>
        <time>2018-04-18T15:39:28Z</time>
      </trkpt>
      <trkpt lat="38.44936" lon="14.91599">
        <ele>3.02</ele>
        <time>2018-04-18T15:39:45Z</time>
      </trkpt>
      <trkpt lat="38.44915" lon="14.91674">
        <ele>3.02</ele>
        <time>2018-04-18T15:40:05Z</time>
      </trkpt>
      <trkpt lat="38.44892" lon="14.9175">
        <ele>2.54</ele>
        <time>2018-04-18T15:40:26Z</time>
      </trkpt>
      <trkpt lat="38.44866" lon="14.9182">
        <ele>2.54</ele>
        <time>2018-04-18T15:40:46Z</time>
      </trkpt>
      <trkpt lat="38.44839" lon="14.91886">
        <ele>3.02</ele>
        <time>2018-04-18T15:41:05Z</time>
      </trkpt>
      <trkpt lat="38.44813" lon="14.91949">
        <ele>3.02</ele>
        <time>2018-04-18T15:41:23Z</time>
      </trkpt>
      <trkpt lat="38.44786" lon="14.92016">
        <ele>3.5</ele>
        <time>2018-04-18T15:41:42Z</time>
      </trkpt>
      <trkpt lat="38.4476" lon="14.92078">
        <ele>3.5</ele>
        <time>2018-04-18T15:42:00Z</time>
      </trkpt>
      <trkpt lat="38.44733" lon="14.9214">
        <ele>3.5</ele>
        <time>2018-04-18T15:42:18Z</time>
      </trkpt>
      <trkpt lat="38.44699" lon="14.92216">
        <ele>3.5</ele>
        <time>2018-04-18T15:42:40Z</time>
      </trkpt>
      <trkpt lat="38.44669" lon="14.92295">
        <ele>3.98</ele>
        <time>2018-04-18T15:43:02Z</time>
      </trkpt>
      <trkpt lat="38.44646" lon="14.92365">
        <ele>4.46</ele>
        <time>2018-04-18T15:43:21Z</time>
      </trkpt>
      <trkpt lat="38.4462" lon="14.92433">
        <ele>4.46</ele>
        <time>2018-04-18T15:43:40Z</time>
      </trkpt>
      <trkpt lat="38.44588" lon="14.92512">
        <ele>4.94</ele>
        <time>2018-04-18T15:44:02Z</time>
      </trkpt>
      <trkpt lat="38.44558" lon="14.92582">
        <ele>5.42</ele>
        <time>2018-04-18T15:44:22Z</time>
      </trkpt>
      <trkpt lat="38.44524" lon="14.92664">
        <ele>5.42</ele>
        <time>2018-04-18T15:44:45Z</time>
      </trkpt>
      <trkpt lat="38.44489" lon="14.9275">
        <ele>3.5</ele>
        <time>2018-04-18T15:45:09Z</time>
      </trkpt>
      <trkpt lat="38.44456" lon="14.92828">
        <ele>3.02</ele>
        <time>2018-04-18T15:45:31Z</time>
      </trkpt>
      <trkpt lat="38.4442" lon="14.92923">
        <ele>3.5</ele>
        <time>2018-04-18T15:45:57Z</time>
      </trkpt>
      <trkpt lat="38.44389" lon="14.93009">
        <ele>3.98</ele>
        <time>2018-04-18T15:46:20Z</time>
      </trkpt>
      <trkpt lat="38.4436" lon="14.93091">
        <ele>4.46</ele>
        <time>2018-04-18T15:46:42Z</time>
      </trkpt>
      <trkpt lat="38.44332" lon="14.93178">
        <ele>3.98</ele>
        <time>2018-04-18T15:47:05Z</time>
      </trkpt>
      <trkpt lat="38.44303" lon="14.93266">
        <ele>4.46</ele>
        <time>2018-04-18T15:47:28Z</time>
      </trkpt>
      <trkpt lat="38.44279" lon="14.93343">
        <ele>5.42</ele>
        <time>2018-04-18T15:47:48Z</time>
      </trkpt>
      <trkpt lat="38.44257" lon="14.93407">
        <ele>5.91</ele>
        <time>2018-04-18T15:48:05Z</time>
      </trkpt>
      <trkpt lat="38.44231" lon="14.93501">
        <ele>5.42</ele>
        <time>2018-04-18T15:48:29Z</time>
      </trkpt>
      <trkpt lat="38.44207" lon="14.93588">
        <ele>4.94</ele>
        <time>2018-04-18T15:48:51Z</time>
      </trkpt>
      <trkpt lat="38.44184" lon="14.93675">
        <ele>3.98</ele>
        <time>2018-04-18T15:49:13Z</time>
      </trkpt>
      <trkpt lat="38.44166" lon="14.93765">
        <ele>3.98</ele>
        <time>2018-04-18T15:49:35Z</time>
      </trkpt>
      <trkpt lat="38.4415" lon="14.93864">
        <ele>3.98</ele>
        <time>2018-04-18T15:49:59Z</time>
      </trkpt>
      <trkpt lat="38.44133" lon="14.93963">
        <ele>3.98</ele>
        <time>2018-04-18T15:50:23Z</time>
      </trkpt>
      <trkpt lat="38.44119" lon="14.94046">
        <ele>3.98</ele>
        <time>2018-04-18T15:50:43Z</time>
      </trkpt>
      <trkpt lat="38.44106" lon="14.94129">
        <ele>3.5</ele>
        <time>2018-04-18T15:51:03Z</time>
      </trkpt>
      <trkpt lat="38.44086" lon="14.94227">
        <ele>2.54</ele>
        <time>2018-04-18T15:51:27Z</time>
      </trkpt>
      <trkpt lat="38.44064" lon="14.94322">
        <ele>3.02</ele>
        <time>2018-04-18T15:51:50Z</time>
      </trkpt>
      <trkpt lat="38.44038" lon="14.9442">
        <ele>3.98</ele>
        <time>2018-04-18T15:52:14Z</time>
      </trkpt>
      <trkpt lat="38.44007" lon="14.94525">
        <ele>3.98</ele>
        <time>2018-04-18T15:52:39Z</time>
      </trkpt>
      <trkpt lat="38.43966" lon="14.94631">
        <ele>3.98</ele>
        <time>2018-04-18T15:53:05Z</time>
      </trkpt>
      <trkpt lat="38.4393" lon="14.94729">
        <ele>4.46</ele>
        <time>2018-04-18T15:53:29Z</time>
      </trkpt>
      <trkpt lat="38.43902" lon="14.94808">
        <ele>3.98</ele>
        <time>2018-04-18T15:53:48Z</time>
      </trkpt>
      <trkpt lat="38.43863" lon="14.94929">
        <ele>3.5</ele>
        <time>2018-04-18T15:54:17Z</time>
      </trkpt>
      <trkpt lat="38.43827" lon="14.95039">
        <ele>3.98</ele>
        <time>2018-04-18T15:54:43Z</time>
      </trkpt>
      <trkpt lat="38.43804" lon="14.95139">
        <ele>3.02</ele>
        <time>2018-04-18T15:55:06Z</time>
      </trkpt>
      <trkpt lat="38.43784" lon="14.95242">
        <ele>2.54</ele>
        <time>2018-04-18T15:55:29Z</time>
      </trkpt>
      <trkpt lat="38.43766" lon="14.95358">
        <ele>3.02</ele>
        <time>2018-04-18T15:55:54Z</time>
      </trkpt>
      <trkpt lat="38.43762" lon="14.95456">
        <ele>3.5</ele>
        <time>2018-04-18T15:56:15Z</time>
      </trkpt>
      <trkpt lat="38.43784" lon="14.95568">
        <ele>3.02</ele>
        <time>2018-04-18T15:56:40Z</time>
      </trkpt>
      <trkpt lat="38.4383" lon="14.95642">
        <ele>2.54</ele>
        <time>2018-04-18T15:57:01Z</time>
      </trkpt>
      <trkpt lat="38.43891" lon="14.95723">
        <ele>2.06</ele>
        <time>2018-04-18T15:57:26Z</time>
      </trkpt>
      <trkpt lat="38.43961" lon="14.95811">
        <ele>2.06</ele>
        <time>2018-04-18T15:57:54Z</time>
      </trkpt>
      <trkpt lat="38.44026" lon="14.9588">
        <ele>1.58</ele>
        <time>2018-04-18T15:58:18Z</time>
      </trkpt>
      <trkpt lat="38.44091" lon="14.95941">
        <ele>1.58</ele>
        <time>2018-04-18T15:58:41Z</time>
      </trkpt>
      <trkpt lat="38.44169" lon="14.96016">
        <ele>2.06</ele>
        <time>2018-04-18T15:59:09Z</time>
      </trkpt>
      <trkpt lat="38.44237" lon="14.9607">
        <ele>2.06</ele>
        <time>2018-04-18T15:59:32Z</time>
      </trkpt>
      <trkpt lat="38.44314" lon="14.96123">
        <ele>2.06</ele>
        <time>2018-04-18T15:59:57Z</time>
      </trkpt>
      <trkpt lat="38.44391" lon="14.96177">
        <ele>2.06</ele>
        <time>2018-04-18T16:00:23Z</time>
      </trkpt>
      <trkpt lat="38.44459" lon="14.96229">
        <ele>2.06</ele>
        <time>2018-04-18T16:00:46Z</time>
      </trkpt>
      <trkpt lat="38.44528" lon="14.96285">
        <ele>3.02</ele>
        <time>2018-04-18T16:01:10Z</time>
      </trkpt>
      <trkpt lat="38.44613" lon="14.96354">
        <ele>4.46</ele>
        <time>2018-04-18T16:01:40Z</time>
      </trkpt>
      <trkpt lat="38.4468" lon="14.96404">
        <ele>6.39</ele>
        <time>2018-04-18T16:02:03Z</time>
      </trkpt>
      <trkpt lat="38.44755" lon="14.96448">
        <ele>4.46</ele>
        <time>2018-04-18T16:02:29Z</time>
      </trkpt>
      <trkpt lat="38.44832" lon="14.9649">
        <ele>3.98</ele>
        <time>2018-04-18T16:02:56Z</time>
      </trkpt>
      <trkpt lat="38.44899" lon="14.96505">
        <ele>4.46</ele>
        <time>2018-04-18T16:03:19Z</time>
      </trkpt>
      <trkpt lat="38.44948" lon="14.96521">
        <ele>3.98</ele>
        <time>2018-04-18T16:03:42Z</time>
      </trkpt>
      <trkpt lat="38.44975" lon="14.96557">
        <ele>3.98</ele>
        <time>2018-04-18T16:04:02Z</time>
      </trkpt>
      <trkpt lat="38.44984" lon="14.96618">
        <ele>3.98</ele>
        <time>2018-04-18T16:04:26Z</time>
      </trkpt>
      <trkpt lat="38.44991" lon="14.96664">
        <ele>3.5</ele>
        <time>2018-04-18T16:04:46Z</time>
      </trkpt>
      <trkpt lat="38.45018" lon="14.96664">
        <ele>4.46</ele>
        <time>2018-04-18T16:05:02Z</time>
      </trkpt>
      <trkpt lat="38.45065" lon="14.96669">
        <ele>4.46</ele>
        <time>2018-04-18T16:05:28Z</time>
      </trkpt>
      <trkpt lat="38.45112" lon="14.9666">
        <ele>3.98</ele>
        <time>2018-04-18T16:05:53Z</time>
      </trkpt>
      <trkpt lat="38.45163" lon="14.96646">
        <ele>3.02</ele>
        <time>2018-04-18T16:06:20Z</time>
      </trkpt>
      <trkpt lat="38.45208" lon="14.96635">
        <ele>3.5</ele>
        <time>2018-04-18T16:06:44Z</time>
      </trkpt>
      <trkpt lat="38.45242" lon="14.9663">
        <ele>3.5</ele>
        <time>2018-04-18T16:07:02Z</time>
      </trkpt>
      <trkpt lat="38.45272" lon="14.96624">
        <ele>3.98</ele>
        <time>2018-04-18T16:07:17Z</time>
      </trkpt>
      <trkpt lat="38.45303" lon="14.96617">
        <ele>3.98</ele>
        <time>2018-04-18T16:07:33Z</time>
      </trkpt>
      <trkpt lat="38.45339" lon="14.96604">
        <ele>4.46</ele>
        <time>2018-04-18T16:07:52Z</time>
      </trkpt>
      <trkpt lat="38.45379" lon="14.96587">
        <ele>4.46</ele>
        <time>2018-04-18T16:08:13Z</time>
      </trkpt>
      <trkpt lat="38.45412" lon="14.96573">
        <ele>4.94</ele>
        <time>2018-04-18T16:08:30Z</time>
      </trkpt>
      <trkpt lat="38.45455" lon="14.96555">
        <ele>4.94</ele>
        <time>2018-04-18T16:08:52Z</time>
      </trkpt>
      <trkpt lat="38.45487" lon="14.9654">
        <ele>4.46</ele>
        <time>2018-04-18T16:09:09Z</time>
      </trkpt>
      <trkpt lat="38.45532" lon="14.96518">
        <ele>3.98</ele>
        <time>2018-04-18T16:09:32Z</time>
      </trkpt>
      <trkpt lat="38.45581" lon="14.96495">
        <ele>5.42</ele>
        <time>2018-04-18T16:09:57Z</time>
      </trkpt>
      <trkpt lat="38.45633" lon="14.96475">
        <ele>5.91</ele>
        <time>2018-04-18T16:10:23Z</time>
      </trkpt>
      <trkpt lat="38.4568" lon="14.9646">
        <ele>4.46</ele>
        <time>2018-04-18T16:10:44Z</time>
      </trkpt>
      <trkpt lat="38.45733" lon="14.96461">
        <ele>4.94</ele>
        <time>2018-04-18T16:11:06Z</time>
      </trkpt>
      <trkpt lat="38.45791" lon="14.96459">
        <ele>4.46</ele>
        <time>2018-04-18T16:11:28Z</time>
      </trkpt>
      <trkpt lat="38.45853" lon="14.9646">
        <ele>5.91</ele>
        <time>2018-04-18T16:11:51Z</time>
      </trkpt>
      <trkpt lat="38.45903" lon="14.96452">
        <ele>4.94</ele>
        <time>2018-04-18T16:12:10Z</time>
      </trkpt>
      <trkpt lat="38.45963" lon="14.96433">
        <ele>4.94</ele>
        <time>2018-04-18T16:12:33Z</time>
      </trkpt>
      <trkpt lat="38.46028" lon="14.96411">
        <ele>5.42</ele>
        <time>2018-04-18T16:12:58Z</time>
      </trkpt>
      <trkpt lat="38.46092" lon="14.96396">
        <ele>4.46</ele>
        <time>2018-04-18T16:13:22Z</time>
      </trkpt>
      <trkpt lat="38.46145" lon="14.96386">
        <ele>3.5</ele>
        <time>2018-04-18T16:13:42Z</time>
      </trkpt>
      <trkpt lat="38.46187" lon="14.96383">
        <ele>3.5</ele>
        <time>2018-04-18T16:13:58Z</time>
      </trkpt>
      <trkpt lat="38.46234" lon="14.96382">
        <ele>4.46</ele>
        <time>2018-04-18T16:14:16Z</time>
      </trkpt>
      <trkpt lat="38.46297" lon="14.96377">
        <ele>3.98</ele>
        <time>2018-04-18T16:14:40Z</time>
      </trkpt>
      <trkpt lat="38.46369" lon="14.96371">
        <ele>4.46</ele>
        <time>2018-04-18T16:15:07Z</time>
      </trkpt>
      <trkpt lat="38.46438" lon="14.96362">
        <ele>4.46</ele>
        <time>2018-04-18T16:15:33Z</time>
      </trkpt>
      <trkpt lat="38.46513" lon="14.96352">
        <ele>3.5</ele>
        <time>2018-04-18T16:16:01Z</time>
      </trkpt>
      <trkpt lat="38.46582" lon="14.96339">
        <ele>4.94</ele>
        <time>2018-04-18T16:16:27Z</time>
      </trkpt>
      <trkpt lat="38.46648" lon="14.96321">
        <ele>5.42</ele>
        <time>2018-04-18T16:16:52Z</time>
      </trkpt>
      <trkpt lat="38.46703" lon="14.96307">
        <ele>5.42</ele>
        <time>2018-04-18T16:17:13Z</time>
      </trkpt>
      <trkpt lat="38.46753" lon="14.96294">
        <ele>5.42</ele>
        <time>2018-04-18T16:17:32Z</time>
      </trkpt>
      <trkpt lat="38.46817" lon="14.96281">
        <ele>5.42</ele>
        <time>2018-04-18T16:17:56Z</time>
      </trkpt>
      <trkpt lat="38.46873" lon="14.96272">
        <ele>4.94</ele>
        <time>2018-04-18T16:18:17Z</time>
      </trkpt>
      <trkpt lat="38.46927" lon="14.96265">
        <ele>4.46</ele>
        <time>2018-04-18T16:18:37Z</time>
      </trkpt>
      <trkpt lat="38.46978" lon="14.96258">
        <ele>4.46</ele>
        <time>2018-04-18T16:18:56Z</time>
      </trkpt>
      <trkpt lat="38.47036" lon="14.96249">
        <ele>4.94</ele>
        <time>2018-04-18T16:19:18Z</time>
      </trkpt>
      <trkpt lat="38.47108" lon="14.96232">
        <ele>5.42</ele>
        <time>2018-04-18T16:19:45Z</time>
      </trkpt>
      <trkpt lat="38.47178" lon="14.96218">
        <ele>4.94</ele>
        <time>2018-04-18T16:20:11Z</time>
      </trkpt>
      <trkpt lat="38.47234" lon="14.96209">
        <ele>5.42</ele>
        <time>2018-04-18T16:20:32Z</time>
      </trkpt>
      <trkpt lat="38.47295" lon="14.96206">
        <ele>3.98</ele>
        <time>2018-04-18T16:20:55Z</time>
      </trkpt>
      <trkpt lat="38.47357" lon="14.96202">
        <ele>5.42</ele>
        <time>2018-04-18T16:21:20Z</time>
      </trkpt>
      <trkpt lat="38.47403" lon="14.96198">
        <ele>5.42</ele>
        <time>2018-04-18T16:21:44Z</time>
      </trkpt>
      <trkpt lat="38.47446" lon="14.96196">
        <ele>4.94</ele>
        <time>2018-04-18T16:22:06Z</time>
      </trkpt>
      <trkpt lat="38.47489" lon="14.96194">
        <ele>5.42</ele>
        <time>2018-04-18T16:22:27Z</time>
      </trkpt>
      <trkpt lat="38.47531" lon="14.96188">
        <ele>5.42</ele>
        <time>2018-04-18T16:22:48Z</time>
      </trkpt>
      <trkpt lat="38.47559" lon="14.96187">
        <ele>5.42</ele>
        <time>2018-04-18T16:23:05Z</time>
      </trkpt>
      <trkpt lat="38.47587" lon="14.96185">
        <ele>4.46</ele>
        <time>2018-04-18T16:23:28Z</time>
      </trkpt>
      <trkpt lat="38.47609" lon="14.96189">
        <ele>4.46</ele>
        <time>2018-04-18T16:23:47Z</time>
      </trkpt>
      <trkpt lat="38.47638" lon="14.962">
        <ele>4.94</ele>
        <time>2018-04-18T16:24:06Z</time>
      </trkpt>
      <trkpt lat="38.47672" lon="14.96222">
        <ele>3.98</ele>
        <time>2018-04-18T16:24:31Z</time>
      </trkpt>
      <trkpt lat="38.47691" lon="14.96248">
        <ele>2.54</ele>
        <time>2018-04-18T16:24:54Z</time>
      </trkpt>
      <trkpt lat="38.47706" lon="14.96278">
        <ele>4.46</ele>
        <time>2018-04-18T16:25:21Z</time>
      </trkpt>
      <trkpt lat="38.47719" lon="14.96307">
        <ele>4.94</ele>
        <time>2018-04-18T16:25:47Z</time>
      </trkpt>
      <trkpt lat="38.47734" lon="14.96339">
        <ele>5.42</ele>
        <time>2018-04-18T16:26:16Z</time>
      </trkpt>
      <trkpt lat="38.47752" lon="14.9637">
        <ele>5.42</ele>
        <time>2018-04-18T16:26:47Z</time>
      </trkpt>
      <trkpt lat="38.47757" lon="14.96387">
        <ele>4.46</ele>
        <time>2018-04-18T16:27:15Z</time>
      </trkpt>
      <trkpt lat="38.47769" lon="14.96369">
        <ele>4.46</ele>
        <time>2018-04-18T16:27:40Z</time>
      </trkpt>
      <trkpt lat="38.47778" lon="14.96357">
        <ele>3.98</ele>
        <time>2018-04-18T16:28:11Z</time>
      </trkpt>
      <trkpt lat="38.47781" lon="14.96354">
        <ele>4.46</ele>
        <time>2018-04-18T16:28:44Z</time>
      </trkpt>
      <trkpt lat="38.47782" lon="14.96354">
        <ele>3.98</ele>
        <time>2018-04-18T16:29:12Z</time>
      </trkpt>
      <trkpt lat="38.47783" lon="14.96352">
        <ele>3.5</ele>
        <time>2018-04-18T16:29:41Z</time>
      </trkpt>
      <trkpt lat="38.47783" lon="14.96352">
        <ele>3.98</ele>
        <time>2018-04-18T16:30:09Z</time>
      </trkpt>
      <trkpt lat="38.47783" lon="14.96352">
        <ele>3.5</ele>
        <time>2018-04-18T16:30:38Z</time>
      </trkpt>
      <trkpt lat="38.47783" lon="14.96352">
        <ele>3.02</ele>
        <time>2018-04-18T16:30:59Z</time>
      </trkpt>
      <trkpt lat="38.47783" lon="14.96352">
        <ele>3.5</ele>
        <time>2018-04-18T16:31:16Z</time>
      </trkpt>
      <trkpt lat="38.47783" lon="14.96353">
        <ele>3.5</ele>
        <time>2018-04-18T16:31:19Z</time>
      </trkpt>
    </trkseg>
  </trk>
</gpx>